     2              OBSERVATION DATA    G (GPS)             RINEX VERSION / TYPE
ASRINEXO V2.9.9 LH AIUB 01-FEB- 1 17:09                     PGM / RUN BY / DATE
BERN ASHTECH Z-12                                           COMMENT
BIT 2 OF LLI (+4) FLAGS DATA COLLECTED UNDER "AS" CONDITION COMMENT
USNB                                                        MARKER NAME
                                                            OBSERVER / AGENCY
? ASHTECH Z-XII3 1D15                                       REC # / TYPE / VERS
? CHOKE RING                                                ANT # / TYPE
  1112161.1900 -4842864.8200  3985498.5800                  APPROX POSITION XYZ
        0.0000        0.0000        0.0000                  ANTENNA: DELTA H/E/N
     1     1                                                WAVELENGTH FACT L1/2
     5    C1    L1    L2    P1    P2                        # / TYPES OF OBSERV
  2000     6     7     0     0   30.000000                  TIME OF FIRST OBS
                                                            END OF HEADER
 00  6  7  0  0 30.0000000  0  7 17 09 05 21 29 15 23
  23008802.203   -10198320.464 8  -7933086.21045  23008801.727    23008813.8144
  21295843.850   -15909863.978 9 -12374442.47747  21295849.034    21295856.9744
  23820822.922    -3834380.353 8  -2973981.24045  23820832.194    23820841.5784
  21419888.668   -18901896.791 9 -14711207.95547  21419891.812    21419901.5114
  21406742.277   -17754504.196 9 -13814958.23847  21406743.979    21406752.4744
  21990614.067   -11969194.935 8  -9303473.62047  21990618.108    21990628.0414
  20665242.636   -22323469.431 9 -17385169.39448  20665245.215    20665253.4704
 00  6  7  0  1  0.0000000  0  7 17 09 05 21 29 15 23
  23030749.481   -10082976.245 8  -7843207.72945  23030752.019    23030763.0824
  21307037.233   -15851047.874 9 -12328611.77047  21307041.210    21307049.6144
  23806587.312    -3909243.030 8  -3032315.70645  23806587.100    23806597.6134
  21407124.427   -18968975.446 9 -14763476.99847  21407127.312    21407136.2094
  21398205.835   -17799362.146 9 -13849912.43847  21398208.090    21398216.4234
  21978988.003   -12030294.696 8  -9351083.80147  21978991.048    21979000.7114
  20666840.283   -22315073.784 9 -17378627.33048  20666842.699    20666850.8744
 00  6  7  0  1 30.0000000  0  7 17 09 05 21 29 15 23
  23052727.560    -9967427.136 8  -7753169.57645  23052740.090    23052752.2774
  21318327.812   -15791720.133 9 -12282382.37847  21318330.546    21318339.5054
  23792367.920    -3983911.527 8  -3090498.86345  23792376.566    23792387.4254
  21394397.688   -19035855.376 9 -14815591.19247  21394400.678    21394409.7824
  21389713.407   -17843992.558 9 -13884689.33347  21389715.028    21389723.2354
  21967462.179   -12090864.607 8  -9398281.12347  21967464.744    21967475.1324
  20668500.771   -22306337.170 9 -17371819.57648  20668505.288    20668513.3694
 00  6  7  0  2  0.0000000  0  7 17 09 05 21 29 15 23
  23074763.302    -9851676.158 8  -7662974.15845  23074767.605    23074778.6074
  21329714.047   -15731883.134 9 -12235756.16647  21329717.310    21329726.3404
  23778207.142    -4058382.828 8  -3148528.32845  23778206.050    23778215.6794
  21381709.200   -19102534.777 9 -14867549.11547  21381711.912    21381720.9394
  21381261.694   -17888395.931 9 -13919289.32347  21381265.017    21381273.7114
  21956036.177   -12150902.529 8  -9445063.88847  21956040.326    21956050.1504
  20670231.432   -22297258.680 9 -17364745.41848  20670232.989    20670241.2304
 00  6  7  0  2 30.0000000  0  7 17 09 05 21 29 15 23
  23096822.997    -9735726.561 8  -7572623.94445  23096831.164    23096843.5724
  21341196.863   -15671539.257 9 -12188734.98147  21341200.654    21341209.8244
  23764063.924    -4132653.910 8  -3206401.76645  23764072.564    23764082.7754
  21369058.450   -19169011.920 9 -14919349.44347  21369061.651    21369070.1594
  21372853.620   -17932572.152 9 -13953712.31347  21372858.265    21372867.1534
  21944714.008   -12210406.000 8  -9491430.21447  21944717.386    21944726.4804
  20672022.493   -22287837.337 9 -17357404.10948  20672026.011    20672033.7804
 00  6  7  0  3  0.0000000  0  7 17 09 05 21 29 15 23
  23118929.125    -9619581.225 8  -7482121.24045  23118933.453    23118944.6934
  21352776.459   -15610690.922 9 -12141320.72147  21352779.523    21352788.3894
  23749977.363    -4206721.642 8  -3264116.75845  23749977.355    23749988.3204
  21356447.684   -19235284.655 9 -14970990.48747  21356450.691    21356459.0804
  21364493.299   -17976521.451 9 -13987958.47647  21364494.867    21364503.4314
  21933493.431   -12269372.920 8  -9537378.43947  21933495.691    21933505.5954
  20673881.245   -22278072.172 9 -17349794.88348  20673884.064    20673892.0184
 00  6  7  0  3 30.0000000  0  7 17 09 05 21 29 15 23
  23141067.556    -9503243.186 8  -7391468.33846  23141072.467    23141083.1444
  21364449.324   -15549340.584 9 -12093515.28847  21364454.314    21364462.6464
  23735915.797    -4280583.029 8  -3321670.98745  23735922.110    23735932.7704
  21343876.310   -19301351.037 9 -15022470.74447  21343878.795    21343886.5834
  21356171.580   -18020244.145 9 -14022028.07247  21356174.390    21356183.3774
  21922372.907   -12327801.173 8  -9582906.92147  21922376.780    21922387.2314
  20675805.335   -22267962.236 9 -17341917.00148  20675807.865    20675816.2094
 00  6  7  0  4  0.0000000  0  7 17 09 05 21 29 15 23
  23163239.789    -9386715.601 8  -7300667.73745  23163246.724    23163257.0544
  21376222.964   -15487490.580 9 -12045320.50747  21376224.387    21376232.5444
  23721905.286    -4354235.286 8  -3379062.22845  23721904.726    23721917.1694
  21331344.000   -19367209.016 9 -15073788.61047  21331346.406    21331354.2204
  21347891.936   -18063740.280 8 -14055921.12347  21347897.355    21347906.2514
  21911360.706   -12385688.760 8  -9628014.11346  21911361.176    21911371.5474
  20677795.051   -22257506.357 9 -17333769.55248  20677797.525    20677805.8344
 00  6  7  0  4 30.0000000  0  7 17 09 05 21 29 15 23
  23185459.400    -9270001.412 8  -7209721.75445  23185456.393    23185467.5254
  21388086.370   -15425143.347 9 -11996738.27447  21388088.925    21388096.5944
  23707924.877    -4427675.205 8  -3436288.03745  23707931.141    23707942.5784
  21318852.426   -19432856.628 9 -15124942.53847  21318853.642    21318861.9354
  21339660.385   -18107010.222 9 -14089637.91547  21339663.772    21339671.9784
  21900445.759   -12443033.367 8  -9672698.17746  21900448.534    21900458.8154
  20679849.723   -22246703.771 9 -17325351.94148  20679853.109    20679861.4414
 00  6  7  0  5  0.0000000  0  7 17 09 05 21 29 15 23
  23207702.315    -9153103.679 8  -7118632.77946  23207701.598    23207713.8284
  21400042.887   -15362301.284 9 -11947770.45447  21400047.032    21400054.9994
  23693997.336    -4500899.874 8  -3493346.09845  23693996.358    23694009.3594
  21306398.500   -19498291.804 9 -15175930.93547  21306401.710    21306410.0734
  21331470.744   -18150054.141 9 -14123178.59447  21331473.056    21331480.6374
  21889638.880   -12499832.698 8  -9716957.37947  21889640.830    21889650.6924
  20681974.115   -22235553.312 9 -17316663.26648  20681975.163    20681983.4774
 00  6  7  0  5 30.0000000  0  7 17 09 05 21 29 15 23
  23229971.414    -9036025.504 8  -7027403.16846  23229980.564    23229992.7484
  21412095.706   -15298966.820 9 -11898418.95147  21412098.992    21412107.5544
  23680103.350    -4573906.079 8  -3550233.93045  23680103.720    23680115.3624
  21293987.424   -19563512.538 9 -15226752.24447  21293990.234    21293999.2864
  21323321.847   -18192872.374 9 -14156543.40947  21323324.515    21323332.8994
  21878931.901   -12556084.706 8  -9760790.06847  21878935.981    21878946.8684
  20684159.917   -22224054.155 9 -17307702.87448  20684163.186    20684171.7384
 00  6  7  0  6  0.0000000  0  7 17 09 05 21 29 15 23
  23252286.439    -8918769.897 8  -6936035.29346  23252293.011    23252305.8484
  21424243.847   -15235142.471 9 -11848685.71647  21424244.686    21424252.8714
  23666252.228    -4646690.970 8  -3606949.31745  23666254.046    23666265.2364
  21281617.782   -19628516.798 9 -15277404.86847  21281620.591    21281629.2734
  21315215.497   -18235464.995 9 -14189732.41547  21315219.353    21315228.2174
  21868333.233   -12611787.438 8  -9804194.75347  21868336.228    21868346.3854
  20686416.624   -22212205.154 9 -17298469.87948  20686418.406    20686426.4484
 00  6  7  0  6 30.0000000  0  7 17 09 05 21 29 15 23
  23274644.963    -8801340.144 8  -6844531.73046  23274640.137    23274652.9484
  21436479.954   -15170830.678 9 -11798572.66147  21436482.652    21436491.1814
  23652440.857    -4719251.445 8  -3663489.81145  23652446.111    23652458.0504
  21269287.561   -19693302.486 9 -15327887.18347  21269292.470    21269300.7874
  21307155.105   -18277832.359 9 -14222745.90647  21307157.352    21307165.8694
  21857839.391   -12666938.693 8  -9847169.71147  21857841.505    21857851.6104
  20688737.938   -22200005.484 9 -17288963.63748  20688739.979    20688747.7734
 00  6  7  0  7  0.0000000  0  7 17 09 05 21 29 15 23
  23297005.695    -8683739.173 8  -6752894.74946  23297019.127    23297031.6114
  21448808.520   -15106034.063 9 -11748081.81347  21448812.897    21448821.8524
  23638679.437    -4791584.613 7  -3719853.21445  23638680.042    23638692.5724
  21257002.914   -19757867.731 9 -15378197.71647  21257006.198    21257014.4324
  21299133.237   -18319974.696 9 -14255584.04347  21299137.918    21299146.6064
  21847448.098   -12721536.453 8  -9889713.37247  21847451.007    21847461.4534
  20691124.944   -22187454.144 9 -17279183.37248  20691128.353    20691136.2924
 00  6  7  0  7 30.0000000  0  7 17 09 05 21 29 15 23
  23319423.037    -8565969.968 8  -6661126.65646  23319429.189    23319442.6174
  21461231.609   -15040755.013 9 -11697215.05947  21461234.901    21461243.7494
  23624950.874    -4863687.307 7  -3776036.99845  23624960.177    23624971.6834
  21244759.014   -19822210.409 9 -15428334.81447  21244762.010    21244770.1704
  21291157.992   -18361891.947 9 -14288246.79547  21291161.580    21291169.8664
  21837167.169   -12775578.955 8  -9931824.35647  21837167.388    21837178.4024
  20693581.599   -22174550.231 9 -17269128.36348  20693583.947    20693591.4874
 00  6  7  0  8  0.0000000  0  7 17 09 05 21 29 15 23
  23341871.208    -8448035.631 8  -6569229.92746  23341872.445    23341885.0234
  21473746.266   -14974995.940 9 -11645974.25247  21473748.888    21473757.6234
  23611282.005    -4935556.374 7  -3832038.75345  23611283.693    23611295.4074
  21232558.284   -19886328.457 9 -15478296.87547  21232561.033    21232568.6334
  21283224.685   -18403584.816 9 -14320734.71047  21283227.622    21283235.2154
  21826988.414   -12829063.834 8  -9973500.82347  21826990.296    21826999.4724
  20696104.556   -22161292.948 9 -17258798.01448  20696106.877    20696114.2234
 00  6  7  0  8 30.0000000  0  7 17 09 05 21 29 15 23
  23364343.770    -8329939.188 8  -6477206.86146  23364346.023    23364357.4364
  21486350.820   -14908759.678 9 -11594361.61047  21486352.717    21486361.9244
  23597651.207    -5007188.878 8  -3887856.15845  23597652.078    23597663.7164
  21220400.778   -19950220.324 9 -15528082.70547  21220402.490    21220410.0204
  21275332.359   -18445053.140 9 -14353047.65147  21275336.565    21275344.4844
  21816914.671   -12881989.180 8 -10014741.29147  21816918.546    21816928.4134
  20698692.947   -22147681.273 9 -17248191.51348  20698696.808    20698704.7574
 00  6  7  0  9  0.0000000  0  7 17 09 05 21 29 15 23
  23386841.879    -8211683.795 8  -6385059.93446  23386848.900    23386861.2104
  21499046.514   -14842048.604 9 -11542379.00047  21499047.922    21499056.3594
  23584063.958    -5078581.988 7  -3943486.99845  23584066.661    23584076.5004
  21208284.522   -20013883.523 9 -15577690.34947  21208287.348    21208295.6414
  21267485.149   -18486297.102 9 -14385185.77547  21267487.895    21267495.5704
  21806947.406   -12934353.043 8 -10055544.23147  21806953.300    21806964.2444
  20701353.251   -22133714.433 9 -17237308.26348  20701354.712    20701362.3494
 00  6  7  0  9 30.0000000  0  7 17 09 05 21 29 15 23
  23409375.666    -8093272.512 8  -6292791.54545  23409382.504    23409394.7594
  21511827.575   -14774865.227 9 -11490028.33447  21511832.220    21511840.9454
  23570523.113    -5149732.531 8  -3998928.84645  23570526.385    23570536.5514
  21196213.192   -20077315.681 9 -15627117.96647  21196216.483    21196225.1614
  21259677.533   -18527317.319 9 -14417149.53947  21259681.932    21259689.4734
  21797093.846   -12986153.383 8 -10095908.09147  21797096.783    21797106.4934
  20704077.706   -22119391.533 9 -17226147.56348  20704080.216    20704087.7924
 00  6  7  0 10  0.0000000  0  7 17 09 05 21 29 15 23
  23431944.683    -7974708.262 8  -6200403.96145  23431943.683    23431957.1584
  21524703.060   -14707212.030 9 -11437311.59447  21524706.528    21524714.9654
  23557031.390    -5220637.476 8  -4054179.31245  23557034.798    23557045.0194
  21184186.780   -20140514.560 9 -15676363.80747  21184190.088    21184198.8504
  21251915.916   -18568113.646 9 -14448938.86047  21251918.514    21251926.3864
  21787344.078   -13037388.280 8 -10135831.31347  21787346.966    21787356.6804
  20706870.979   -22104711.611 9 -17214708.67448  20706873.365    20706881.7014
 00  6  7  0 10 30.0000000  0  7 17 09 05 21 29 15 23
  23454528.328    -7855994.297 8  -6107899.72345  23454533.849    23454546.7394
  21537665.217   -14639091.465 9 -11384230.66947  21537669.478    21537677.8494
  23543585.181    -5291293.928 8  -4109236.15245  23543589.412    23543598.3564
  21172206.152   -20203478.853 9 -15725426.86047  21172208.525    21172217.5674
  21244193.800   -18608686.558 9 -14480554.08147  21244197.327    21244205.2504
  21777703.493   -13088055.908 8 -10175312.51647  21777705.378    21777715.2284
  20709732.348   -22089673.547 9 -17202990.70748  20709735.143    20709743.4214
 00  6  7  0 11  0.0000000  0  7 17 09 05 21 29 15 23
  23477149.342    -7737133.694 8  -6015281.22845  23477153.279    23477165.6014
  21550715.220   -14570506.249 9 -11330787.68547  21550720.843    21550729.0834
  23530196.161    -5361698.964 8  -4164097.09645  23530191.424    23530200.6034
  21160269.739   -20266206.371 9 -15774305.41047  21160271.980    21160280.5694
  21236516.988   -18649036.102 9 -14511995.24947  21236519.588    21236527.4234
  21768170.985   -13138154.145 8 -10214350.04047  21768172.490    21768181.3914
  20712661.488   -22074276.600 9 -17190993.08948  20712665.043    20712673.3144
 00  6  7  0 11 30.0000000  0  7 17 09 05 21 29 15 23
  23499798.236    -7618129.383 8  -5922550.72045  23499799.295    23499811.3824
  21563857.590   -14501459.004 9 -11276984.67047  21563859.810    21563868.3494
  23516838.461    -5431849.517 8  -4218759.73545  23516841.780    23516853.4144
  21148378.651   -20328694.632 9 -15822997.53747  21148380.367    21148389.7884
  21228878.981   -18689162.624 9 -14543262.64747  21228883.797    21228891.9284
  21758745.292   -13187680.935 9 -10252942.28047  21758747.620    21758756.5254
  20715660.486   -22058519.958 9 -17178715.19248  20715663.662    20715671.8674
 00  6  7  0 12  0.0000000  0  7 17 09 05 21 29 15 23
  23522470.112    -7498984.446 8  -5829710.64945  23522472.019    23522484.6994
  21577081.816   -14431952.425 9 -11222823.73147  21577086.775    21577095.1974
  23503529.540    -5501742.673 8  -4273221.80445  23503541.995    23503552.4564
  21136532.335   -20390941.915 9 -15871501.89047  21136534.985    21136544.5334
  21221289.324   -18729066.326 9 -14574356.40247  21221290.441    21221298.2404
  21749429.418   -13236634.819 9 -10291088.10647  21749431.831    21749441.0714
  20718728.146   -22042402.661 9 -17166156.25948  20718730.505    20718738.5964
 00  6  7  0 12 30.0000000  0  7 17 09 05 21 29 15 23
  23545169.810    -7379701.850 8  -5736763.33545  23545170.892    23545182.5394
  21590397.717   -14361988.821 9 -11168306.66147  21590399.903    21590408.7574
  23490292.812    -5571375.491 8  -4327481.04745  23490291.619    23490301.8264
  21124734.583   -20452945.780 9 -15919816.57247  21124736.421    21124745.0714
  21213735.983   -18768747.514 9 -14605276.77847  21213739.170    21213747.4424
  21740223.848   -13285013.645 8 -10328785.84347  21740225.338    21740234.3914
  20721863.197   -22025923.788 9 -17153315.57847  20721865.964    20721874.6104
 00  6  7  0 13  0.0000000  0  7 17 09 05 21 29 15 23
  23567890.915    -7260284.600 8  -5643711.07745  23567895.224    23567907.4014
  21603799.955   -14291571.047 9 -11113435.69747  21603800.097    21603808.7434
  23477090.389    -5640744.877 8  -4381535.00745  23477090.476    23477101.2314
  21112981.250   -20514704.409 9 -15967940.15947  21112984.328    21112993.1364
  21206227.815   -18808206.552 9 -14636024.05247  21206230.393    21206238.5684
  21731127.544   -13332815.778 9 -10366034.20047  21731128.881    21731138.4814
  20725070.349   -22009082.559 9 -17140192.54347  20725071.126    20725079.2484
 00  6  7  0 13 30.0000000  0  7 17 09 05 21 29 15 23
  23590637.233    -7140735.739 8  -5550556.26645  23590644.600    23590656.6814
  21617281.517   -14220701.413 9 -11058212.64347  21617286.239    21617294.3564
  23463938.850    -5709847.834 8  -4435381.33845  23463939.479    23463950.4464
  21101275.220   -20576215.772 9 -16015871.06847  21101278.774    21101287.8594
  21198759.770   -18847443.273 9 -14666598.08147  21198763.792    21198772.0184
  21722139.940   -13380039.453 8 -10402831.81347  21722142.763    21722151.5124
  20728343.467   -21991878.085 9 -17126786.45947  20728344.890    20728353.3334
 00  6  7  0 14  0.0000000  0  7 17 09 05 21 29 15 23
  23613419.778    -7021058.349 8  -5457301.31945  23613418.048    23613432.1334
  21630857.516   -14149382.757 9 -11002639.69647  21630858.377    21630865.8604
  23450841.801    -5778681.279 8  -4489017.68345  23450840.924    23450852.1884
  21089617.531   -20637477.688 9 -16063607.60747  21089620.967    21089629.9724
  21191337.618   -18886458.084 9 -14696999.19847  21191339.493    21191347.4174
  21713266.047   -13426682.681 8 -10439177.13347  21713266.738    21713275.4714
  20731684.853   -21974309.597 9 -17113096.72948  20731688.121    20731696.5494
 00  6  7  0 14 30.0000000  0  7 17 09 05 21 29 15 23
  23636215.534    -6901255.516 8  -5363948.62445  23636216.604    23636228.3294
  21644510.775   -14077617.473 9 -10946718.72147  21644514.419    21644523.0434
  23437793.119    -5847242.293 8  -4542441.74645  23437794.402    23437805.3264
  21078008.681   -20698487.817 9 -16111147.95247  21078011.377    21078019.8384
  21183954.379   -18925251.353 9 -14727227.68247  21183957.317    21183964.3144
  21704498.731   -13472743.896 8 -10475068.92047  21704500.752    21704510.2554
  20735100.057   -21956376.450 9 -17099122.84548  20735100.809    20735109.0314
 00  6  7  0 15  0.0000000  0  7 17 09 05 21 29 15 23
  23659032.242    -6781330.084 8  -5270500.42545  23659037.493    23659050.1964
  21658257.416   -14005408.476 9 -10890452.01347  21658255.974    21658263.6954
  23424797.218    -5915528.035 8  -4595651.32745  23424801.005    23424810.5484
  21066447.648   -20759243.974 9 -16158490.38847  21066450.154    21066458.4234
  21176614.145   -18963823.103 9 -14757283.56147  21176617.445    21176624.8824
  21695840.732   -13518221.419 8 -10510505.89547  21695845.728    21695856.5784
  20738579.415   -21938077.676 9 -17084864.06248  20738582.678    20738591.2894
 00  6  7  0 15 30.0000000  0  7 17 09 05 21 29 15 23
  23681863.071    -6661285.225 7  -5176959.11345  23681881.585    23681893.6694
  21672078.796   -13932758.395 9 -10833841.58747  21672080.072    21672088.9924
  23411854.220    -5983535.462 8  -4648644.05445  23411859.425    23411868.1824
  21054933.984   -20819743.977 9 -16205633.22647  21054937.397    21054945.7394
  21169315.888   -19002173.731 9 -14787167.13247  21169319.462    21169327.3654
  21687303.294   -13563113.227 8 -10545486.48547  21687304.475    21687313.5364
  20742131.384   -21919412.440 9 -17070319.72648  20742134.563    20742143.3044
 00  6  7  0 16  0.0000000  0  7 17 09 05 21 29 15 23
  23704747.305    -6541123.932 7  -5083327.10345  23704747.348    23704759.9454
  21685984.037   -13859669.887 8 -10776889.53447  21685988.242    21685997.1294
  23398967.644    -6051261.577 8  -4701417.53545  23398971.533    23398982.2454
  21043469.715   -20879986.025 9 -16252575.04347  21043473.471    21043481.8874
  21162059.534   -19040303.339 9 -14816878.48547  21162063.381    21162071.3504
  21678868.695   -13607417.757 8 -10580009.44147  21678873.010    21678882.7424
  20745753.971   -21900379.921 9 -17055489.19148  20745756.420    20745765.0804
 00  6  7  0 16 30.0000000  0  7 17 09 05 21 29 15 23
  23727629.986    -6420849.232 7  -4989606.75345  23727635.591    23727645.6234
  21699974.797   -13786145.360 8 -10719597.73347  21699979.174    21699988.4714
  23386130.028    -6118703.611 8  -4753969.68545  23386136.522    23386147.2744
  21032055.852   -20939967.780 9 -16299314.04548  21032059.570    21032068.0324
  21154846.852   -19078212.369 9 -14846417.95247  21154849.663    21154857.5984
  21670550.851   -13651133.557 8 -10614073.64847  21670554.321    21670562.7514
  20749445.928   -21880979.435 9 -17040371.93547  20749448.023    20749456.8804
 00  6  7  0 17  0.0000000  0  7 17 09 05 21 29 15 23
  23750547.906    -6300464.220 7  -4895800.38945  23750543.163    23750555.7284
  21714051.028   -13712187.405 9 -10661968.19047  21714053.393    21714062.0244
  23373348.873    -6185858.566 8  -4806298.12145  23373356.976    23373368.0154
  21020693.106   -20999687.772 9 -16345849.07848  21020694.701    21020703.4834
  21147673.224   -19115900.784 9 -14875785.51247  21147677.573    21147685.6884
  21662344.151   -13694258.698 8 -10647677.59947  21662348.322    21662357.3154
  20753206.284   -21861210.238 9 -17024967.37847  20753209.999    20753218.7594
 00  6  7  0 17 30.0000000  0  7 17 09 05 21 29 15 23
  23773481.443    -6179971.929 7  -4801910.46445  23773473.331    23773483.6434
  21728209.378   -13637798.986 9 -10604003.22347  21728209.322    21728217.8534
  23360635.680    -6252723.559 8  -4858400.58745  23360633.413    23360643.5914
  21009375.681   -21059143.290 9 -16392178.02247  21009380.345    21009389.2664
  21140543.618   -19153369.011 9 -14904981.50047  21140547.545    21140556.1604
  21654250.133   -13736791.622 8 -10680820.09447  21654254.182    21654263.7164
  20757040.499   -21841071.558 9 -17009274.90247  20757042.333    20757050.7814
 00  6  7  0 18  0.0000000  0  7 17 09 05 21 29 15 23
  23796408.606    -6059375.203 7  -4707939.16945  23796420.786    23796433.0304
  21742443.537   -13562982.874 8 -10545704.97947  21742446.088    21742454.6734
  23347966.358    -6319295.587 8  -4910274.82945  23347965.777    23347975.0354
  20998115.140   -21118332.271 9 -16438299.27347  20998117.990    20998125.4534
  21133454.607   -19190617.180 9 -14934006.01147  21133458.989    21133467.4894
  21646269.258   -13778730.934 8 -10713500.03647  21646273.451    21646282.8034
  20760942.961   -21820562.440 9 -16993293.76647  20760944.828    20760953.4234
 00  6  7  0 18 30.0000000  0  7 17 09 05 21 29 15 23
  23819393.954    -5938677.244 7  -4613888.93445  23819390.417    23819400.9274
  21756762.928   -13487741.670 8 -10487075.50847  21756764.183    21756772.9854
  23335351.994    -6385571.845 8  -4961918.58445  23335353.322    23335364.2784
  20986902.797   -21177252.621 9 -16484211.19647  20986905.652    20986913.6364
  21126410.162   -19227645.649 9 -14962859.32447  21126412.795    21126421.0514
  21638402.573   -13820074.907 8 -10745716.08647  21638406.149    21638415.9574
  20764915.321   -21799682.176 9 -16977023.43047  20764918.464    20764926.6234
 00  6  7  0 19  0.0000000  0  7 17 09 05 21 29 15 23
  23842370.627    -5817880.996 7  -4519762.15145  23842375.857    23842388.8694
  21771157.812   -13412078.071 8 -10428116.89647  21771162.501    21771171.0814
  23322794.157    -6451549.297 8  -5013329.48146  23322798.036    23322808.9684
  20975743.615   -21235901.972 9 -16529911.94448  20975745.197    20975753.1314
  21119405.018   -19264454.668 9 -14991541.63947  21119408.817    21119416.5474
  21630649.550   -13860822.080 8 -10777467.06447  21630651.528    21630662.1974
  20768959.994   -21778430.058 9 -16960463.34047  20768962.822    20768971.0584
 00  6  7  0 19 30.0000000  0  7 17 09 05 21 29 15 23
  23865379.683    -5696989.495 7  -4425561.11545  23865382.592    23865394.5604
  21785637.835   -13335994.767 8 -10368831.23647  21785640.448    21785650.1794
  23310302.037    -6517225.329 8  -5064505.53145  23310300.227    23310310.7274
  20964634.315   -21294278.470 9 -16575400.07847  20964635.910    20964644.4914
  21112441.893   -19301044.370 9 -15020053.06547  21112446.329    21112453.6864
  21623007.360   -13900970.796 8 -10808751.73647  21623011.373    21623021.3004
  20773075.154   -21756805.271 9 -16943612.85247  20773077.691    20773085.9354
 00  6  7  0 20  0.0000000  0  7 17 09 05 21 29 15 23
  23888407.707    -5576005.701 7  -4331288.19345  23888403.599    23888417.9264
  21800197.696   -13259494.358 9 -10309220.57247  21800198.663    21800207.0554
  23297860.345    -6582596.957 8  -5115444.40146  23297860.343    23297871.5264
  20953576.857   -21352379.728 9 -16620673.74347  20953579.488    20953588.2534
  21105521.673   -19337414.976 9 -15048393.76247  21105525.018    21105532.3154
  21615482.476   -13940519.557 8 -10839568.91847  21615485.634    21615495.6394
  20777261.496   -21734807.272 9 -16926471.55847  20777263.756    20777272.1354
 00  6  7  0 20 30.0000000  0  7 17 09 05 21 29 15 23
  23911438.037    -5454932.719 7  -4236945.76845  23911444.282    23911454.3104
  21814829.106   -13182579.493 8 -10249286.93947  21814834.612    21814843.5714
  23285476.342    -6647661.071 8  -5166143.58646  23285479.788    23285489.0864
  20942573.718   -21410203.717 9 -16665731.36647  20942575.575    20942584.4404
  21098642.741   -19373566.725 9 -15076563.92347  21098645.280    21098652.7284
  21608072.606   -13979466.918 9 -10869917.48147  21608074.842    21608083.7494
  20781519.504   -21712435.301 9 -16909038.86147  20781520.916    20781529.5594
 00  6  7  0 21  0.0000000  0  7 17 09 05 21 29 15 23
  23934493.286    -5333773.378 7  -4142536.06744  23934498.494    23934513.2704
  21829548.183   -13105252.990 8 -10189032.55447  21829549.022    21829558.5124
  23273153.141    -6712414.631 8  -5216600.83546  23273156.893    23273167.7624
  20931621.487   -21467748.675 9 -16710571.55247  20931625.069    20931634.1184
  21091804.909   -19409499.972 9 -15104563.81547  21091807.622    21091815.3884
  21600774.687   -14017811.397 9 -10899796.25847  21600778.042    21600787.4874
  20785845.688   -21689688.552 9 -16891314.13047  20785849.222    20785858.0964
 00  6  7  0 21 30.0000000  0  7 17 09 05 21 29 15 23
  23957577.509    -5212530.779 7  -4048061.53945  23957571.628    23957585.9404
  21844339.939   -13027517.594 8 -10128459.54547  21844341.877    21844350.9824
  23260891.737    -6776854.974 8  -5266814.00746  23260894.184    23260904.8194
  20920726.698   -21525011.597 9 -16755191.96447  20920728.789    20920736.9624
  21085007.627   -19445214.894 9 -15132393.58147  21085011.259    21085019.0844
  21593595.817   -14055551.512 8 -10929204.10947  21593596.273    21593605.0204
  20790247.570   -21666566.356 9 -16873296.83747  20790249.674    20790258.0654
 00  6  7  0 22  0.0000000  0  7 17 09 05 21 29 15 23
  23980669.515    -5091207.823 7  -3953524.37444  23980659.635    23980669.5064
  21859211.109   -12949375.838 8 -10067569.89347  21859211.456    21859220.1844
  23248687.414    -6840979.424 8  -5316781.02546  23248691.867    23248701.2994
  20909883.800   -21581990.906 9 -16799591.38547  20909885.968    20909893.9144
  21078252.584   -19480711.602 9 -15160053.31447  21078256.415    21078264.3554
  21586526.107   -14092685.813 8 -10958139.89947  21586529.228    21586537.4564
  20794719.043   -21643068.027 9 -16854986.45547  20794721.334    20794729.4054
 00  6  7  0 22 30.0000000  0  7 17 09 05 21 29 15 23
  24003758.382    -4969807.409 7  -3858926.80845  24003760.753    24003772.0244
  21874153.260   -12870830.553 9 -10006365.80347  21874158.551    21874168.1244
  23236546.844    -6904784.906 8  -5366499.48646  23236550.115    23236560.2974
  20899094.243   -21638684.535 9 -16843768.19447  20899097.725    20899105.7424
  21071542.093   -19515990.604 9 -15187543.41147  21071543.339    21071551.0774
  21579574.804   -14129213.036 8 -10986602.62947  21579578.079    21579586.8294
  20799261.064   -21619192.909 9 -16836382.47747  20799264.719    20799272.7394
 00  6  7  0 23  0.0000000  0  7 17 09 05 21 29 15 23
  24026877.751    -4848332.803 7  -3764271.44745  24026876.062    24026888.9054
  21889179.472   -12791884.452 9  -9944849.39747  21889181.896    21889190.3154
  23224468.651    -6968268.436 8  -5415967.07346  23224468.878    23224479.3854
  20888361.404   -21695090.128 9 -16887720.56647  20888363.476    20888371.7374
  21064866.432   -19551051.882 9 -15214863.86247  21064870.849    21064878.5414
  21572739.119   -14165131.641 9 -11014591.12647  21572743.394    21572752.2464
  20803878.691   -21594940.291 9 -16817484.32747  20803879.681    20803887.9234
 00  6  7  0 23 30.0000000  0  7 17 09 05 21 29 15 23
  24050012.434    -4726786.554 7  -3669560.26645  24050006.143    24050018.8214
  21904274.822   -12712540.315 8  -9883022.81847  21904280.341    21904289.3304
  23212442.366    -7031427.221 8  -5465181.61046  23212450.236    23212461.0754
  20877681.970   -21751205.499 9 -16931446.78847  20877685.176    20877694.0874
  21058238.133   -19585895.648 9 -15242014.81647  21058240.152    21058247.9584
  21566021.501   -14200440.405 9 -11042104.41047  21566025.214    21566033.9884
  20808564.108   -21570309.567 9 -16798291.55847  20808566.888    20808574.9984
 00  6  7  0 24  0.0000000  0  7 17 09 05 21 29 15 23
  24073149.909    -4605171.997 7  -3574795.86044  24073147.638    24073161.6944
  21919451.105   -12632800.994 9  -9820888.32247  21919454.617    21919463.3164
  23200491.190    -7094258.346 8  -5514140.84446  23200493.992    23200503.8764
  20867059.182   -21807028.155 9 -16974944.93247  20867061.997    20867071.0214
  21051647.649   -19620522.317 9 -15268996.60947  21051650.551    21051658.9704
  21559419.830   -14235137.935 8 -11069141.41447  21559421.735    21559430.9894
  20813325.777   -21545300.036 9 -16778803.62047  20813326.106    20813334.1604
 00  6  7  0 24 30.0000000  0  7 17 09 05 21 29 15 23
  24096295.928    -4483491.978 7  -3479980.42144  24096301.621    24096315.5904
  21934700.586   -12552668.974 8  -9758447.81847  21934702.684    21934712.1304
  23188597.482    -7156759.318 8  -5562842.81446  23188601.043    23188610.0494
  20856492.528   -21862556.217 9 -17018213.52147  20856495.612    20856504.6664
  21045099.272   -19654931.948 9 -15295809.27747  21045102.294    21045110.5854
  21552930.554   -14269223.012 8 -11095701.19347  21552934.959    21552944.6534
  20818154.322   -21519911.027 9 -16759019.98847  20818157.468    20818165.8654
 00  6  7  0 25  0.0000000  0  7 17 09 05 21 29 15 23
  24119462.984    -4361749.377 7  -3385116.30144  24119468.001    24119482.6314
  21950021.974   -12472147.251 8  -9695703.67047  21950026.065    21950035.0874
  23176766.486    -7218927.310 8  -5611285.31346  23176769.741    23176781.4314
  20845982.695   -21917787.636 9 -17061250.95648  20845985.628    20845994.4124
  21038592.539   -19689124.922 9 -15322453.13447  21038595.714    21038604.0694
  21546561.609   -14302694.382 8 -11121782.75147  21546565.759    21546575.5594
  20823058.513   -21494141.834 9 -16738940.10147  20823061.322    20823069.6934
 00  6  7  0 25 30.0000000  0  6 09 05 21 29 15 23
  21965419.061   -12391238.585 8  -9632657.98447  21965422.343    21965430.4944
  23165000.310    -7280759.054 8  -5659465.79146  23165003.348    23165013.8734
  20835530.928   -21972720.080 9 -17104055.42748  20835532.424    20835541.2324
  21032125.703   -19723101.452 9 -15348928.31647  21032130.359    21032138.7354
  21540310.664   -14335550.741 8 -11147385.08547  21540313.582    21540322.7634
  20828036.278   -21467991.905 9 -16718563.54047  20828037.584    20828045.8064
 00  6  7  0 26  0.0000000  0  6 09 05 21 29 15 23
  21980891.999   -12309945.712 8  -9569312.90547  21980891.878    21980900.4654
  23153298.936    -7342251.864 8  -5707382.16445  23153301.423    23153312.0274
  20825132.415   -22027351.337 9 -17146625.20448  20825136.234    20825145.1464
  21025703.587   -19756861.780 9 -15375235.03447  21025706.596    21025714.0774
  21534173.285   -14367790.860 8 -11172507.23047  21534178.448    21534187.4524
  20833083.485   -21441460.758 9 -16697889.92247  20833085.899    20833094.4204
 00  6  7  0 26 30.0000000  0  6 09 05 21 29 15 23
  21996430.185   -12228271.237 8  -9505670.51347  21996434.053    21996442.4634
  23141663.662    -7403402.980 8  -5755032.29145  23141663.828    23141675.9724
  20814795.182   -22081679.198 9 -17188958.58248  20814798.026    20814806.7824
  21019321.199   -19790405.929 9 -15401373.30647  21019323.342    21019330.5754
  21528158.308   -14399413.424 8 -11197148.16847  21528161.144    21528170.1904
  20838204.581   -21414547.755 9 -16676918.76947  20838207.115    20838215.7944
 00  6  7  0 27  0.0000000  0  6 09 05 21 29 15 23
  22012047.986   -12146217.992 8  -9441732.95147  22012048.777    22012056.3684
  23130093.208    -7464209.730 8  -5802414.07345  23130093.814    23130103.5534
  20804515.535   -22135701.538 9 -17231053.88248  20804517.787    20804526.4564
  21012977.572   -19823734.324 9 -15427343.45547  21012981.218    21012988.4984
  21522257.778   -14430417.399 8 -11221307.08347  21522260.958    21522270.8894
  20843400.062   -21387252.287 9 -16655649.58047  20843401.453    20843409.8604
 00  6  7  0 27 30.0000000  0  6 09 05 21 29 15 23
  22027729.349   -12063788.714 8  -9377502.38847  22027734.124    22027742.5994
  23118588.471    -7524669.337 8  -5849525.38545  23118588.944    23118598.8974
  20794293.083   -22189416.107 9 -17272909.36048  20794296.552    20794304.7124
  21006676.783   -19856847.119 9 -15453145.60947  21006680.248    21006687.3174
  21516473.569   -14460801.610 8 -11244983.07247  21516478.558    21516489.0724
  20848666.146   -21359573.756 9 -16634081.90247  20848668.842    20848677.0624
 00  6  7  0 28  0.0000000  0  6 09 05 21 29 15 23
  22043483.486   -11980986.422 8  -9312981.15447  22043490.212    22043499.0324
  23107144.620    -7584778.938 8  -5896363.94745  23107151.077    23107160.4384
  20784130.802   -22242820.930 9 -17314523.48448  20784134.030    20784142.2164
  21000417.846   -19889744.635 9 -15478780.00747  21000419.782    21000427.5254
  21510811.144   -14490565.000 8 -11268175.29647  21510814.557    21510824.5494
  20854006.271   -21331511.558 9 -16612215.25847  20854009.042    20854016.9144
 00  6  7  0 28 30.0000000  0  6 09 05 21 29 15 23
  22059317.886   -11897813.712 8  -9248171.29247  22059317.509    22059326.6594
  23095775.905    -7644535.878 8  -5942927.71145  23095779.127    23095789.1044
  20774028.850   -22295914.120 9 -17355894.77748  20774030.613    20774038.8384
  20994196.019   -19922426.997 9 -15504246.75747  20994199.841    20994208.0774
  21505268.137   -14519706.317 9 -11290882.79747  21505270.321    21505279.0924
  20859417.906   -21303065.260 9 -16590049.31647  20859421.926    20859429.8824
 00  6  7  0 29  0.0000000  0  6 09 05 21 29 15 23
  22075212.688   -11814273.504 8  -9183075.05947  22075215.827    22075223.9774
  23084473.025    -7703937.475 8  -5989214.58345  23084475.159    23084485.0864
  20763984.845   -22348693.153 9 -17397021.26548  20763987.252    20763995.5444
  20988019.195   -19954894.363 9 -15529545.97047  20988021.711    20988029.6554
  21499840.486   -14548224.711 9 -11313104.89047  21499843.048    21499852.6564
  20864907.076   -21274234.220 9 -16567583.57247  20864908.323    20864916.7624
 00  6  7  0 29 30.0000000  0  6 09 05 21 29 15 23
  22091175.625   -11730368.341 8  -9117694.44747  22091181.160    22091190.5434
  23073238.451    -7762980.832 8  -6035222.29945  23073239.162    23073249.8154
  20754001.917   -22401155.731 9 -17437901.17248  20754004.176    20754012.2724
  20981880.110   -19987147.163 9 -15554678.00047  20981884.219    20981892.2574
  21494534.749   -14576118.836 9 -11334840.54947  21494535.324    21494544.8324
  20870465.109   -21245017.804 9 -16544817.55047  20870468.189    20870476.3054
 00  6  7  0 30  0.0000000  0  6 09 05 21 29 15 23
  22107214.874   -11646101.007 8  -9052031.63247  22107217.245    22107226.4544
  23062067.089    -7821663.262 8  -6080948.75346  23062071.891    23062082.5614
  20744077.440   -22453299.353 9 -17478532.52548  20744081.512    20744089.7164
  20975782.970   -20019185.370 9 -15579642.81347  20975787.414    20975795.9084
  21489345.533   -14603387.874 9 -11356089.11247  21489346.216    21489355.3894
  20876099.187   -21215415.600 9 -16521750.90047  20876101.103    20876109.2254
 00  6  7  0 30 30.0000000  0  6 09 05 21 29 15 23
  22123319.945   -11561474.327 8  -8986088.80747  22123322.002    22123329.7624
  23050972.644    -7879981.980 8  -6126391.84046  23050974.589    23050985.2594
  20734216.918   -22505122.013 9 -17518913.79248  20734219.986    20734228.2244
  20969728.718   -20051009.549 9 -15604440.84447  20969731.612    20969739.8074
  21484274.590   -14630030.909 9 -11376849.89147  21484276.025    21484285.3224
  20881805.988   -21185427.163 9 -16498383.29947  20881807.587    20881815.8124
 00  6  7  0 31  0.0000000  0  6 09 05 21 29 15 23
  22139490.346   -11476491.169 8  -8919868.20146  22139492.820    22139501.4994
  23039938.619    -7937934.298 8  -6171549.41646  23039946.708    23039957.0184
  20724417.832   -22556622.009 9 -17559043.62848  20724419.747    20724427.8544
  20963713.978   -20082619.383 9 -15629071.85747  20963716.457    20963724.7204
  21479321.574   -14656046.894 9 -11397122.06847  21479325.179    21479334.8544
  20887584.614   -21155051.997 9 -16474714.34347  20887587.657    20887596.2174
 00  6  7  0 31 30.0000000  0  7 17 09 05 21 29 15 23
  24421475.379       44759.51417
  22155727.371   -11391154.250 8  -8853371.94446  22155732.143    22155741.2414
  23028986.036    -7995517.354 8  -6216419.25646  23028989.441    23028999.7884
  20714678.268   -22607796.536 9 -17598919.86148  20714681.442    20714689.8494
  20957740.462   -20114015.641 9 -15653536.44547  20957741.948    20957750.1354
  21474492.464   -14681435.039 9 -11416905.01247  21474494.232    21474503.8334
  20893441.192   -21124289.416 9 -16450743.50547  20893441.477    20893450.0604
 00  6  7  0 32  0.0000000  0  7 17 09 05 21 29 15 23
  24444752.091      167067.736 7    102546.30454                  24444755.5694
  22172034.744   -11305466.451 8  -8786602.28446  22172037.558    22172046.9054
  23018101.400    -8052728.632 8  -6260999.37946  23018102.285    23018112.3854
  20705001.403   -22658643.706 9 -17638541.00348  20705005.218    20705013.7544
  20951805.675   -20145198.224 9 -15677834.53247  20951808.242    20951816.0724
  21469781.042   -14706194.588 9 -11436198.14947  21469782.385    21469792.0484
  20899365.759   -21093139.027 9 -16426470.48947  20899369.233    20899377.7604
 00  6  7  0 32 30.0000000  0  8 17 09 25 05 21 29 15 23
  24467997.543      289394.290 7    197865.49844  24468020.668    24468033.7564
  22188407.341   -11219430.415 8  -8719561.26146  22188410.100    22188418.8504
  24716546.967    -1600384.45817  -1212121.34255  24716565.815    24716577.6064
  23007277.954    -8109565.533 8  -6305287.79746  23007286.362    23007296.7164
  20695388.378   -22709161.417 9 -17677905.42548  20695392.077    20695400.7034
  20945911.823   -20176167.435 9 -15701966.35147  20945914.977    20945922.7444
  21465186.723   -14730324.319 9 -11455000.51147  21465190.168    21465199.6624
  20905369.854   -21061600.411 9 -16401894.95147  20905370.913    20905379.1934
 00  6  7  0 33  0.0000000  0  8 17 09 25 05 21 29 15 23
  24491278.139      411736.399 7    293196.85044  24491303.129    24491315.1844
  22204845.541   -11133048.962 8  -8652251.08046  22204847.749    22204857.0424
  24696801.390    -1704242.974 7  -1293049.77945  24696802.911    24696813.9284
  22996539.702    -8166025.349 8  -6349282.36446  22996542.535    22996551.9164
  20685838.542   -22759347.229 9 -17717011.22348  20685841.829    20685850.4554
  20940058.989   -20206923.273 9 -15725931.89847  20940062.142    20940070.1394
  21460714.318   -14753823.350 9 -11473311.42847  21460718.693    21460728.3694
  20911443.299   -21029673.124 9 -16377016.54847  20911446.532    20911454.7544
 00  6  7  0 33 30.0000000  0  8 17 09 25 05 21 29 15 23
  24514586.479      534091.275 7    388538.12144  24514587.441    24514598.7304
  22221348.476   -11046324.752 8  -8584673.81546  22221350.958    22221360.4444
  24677059.246    -1808001.886 7  -1373900.58645  24677057.595    24677068.3644
  22985870.457    -8222105.359 8  -6392980.99146  22985871.704    22985880.7464
  20676353.487   -22809199.260 9 -17755856.94448  20676355.254    20676364.0534
  20934246.798   -20237466.293 9 -15749731.61447  20934250.259    20934257.8294
  21456364.599   -14776690.972 9 -11491130.33647  21456367.159    21456376.7974
  20917593.006   -20997356.650 9 -16351834.88847  20917596.068    20917604.3014
 00  6  7  0 34  0.0000000  0  8 17 09 25 05 21 29 15 23
  24537871.755      656456.017 7    483887.05444  24537871.040    24537885.5714
  22237915.891   -10959260.693 8  -8516831.71746  22237919.082    22237927.9904
  24657326.525    -1911659.086 7  -1454672.15145  24657333.101    24657344.6404
  22975264.812    -8277802.819 8  -6436381.51946  22975271.787    22975282.0534
  20666929.444   -22858714.760 9 -17794440.42648  20666932.567    20666941.3654
  20928475.689   -20267796.440 9 -15773365.46147  20928478.720    20928485.8534
  21452133.635   -14798926.505 9 -11508456.69347  21452136.081    21452145.1904
  20923816.251   -20964650.626 9 -16326349.68947  20923819.994    20923828.2464
 00  6  7  0 34 30.0000000  0  7 09 25 05 21 29 15 23
  22254546.898   -10871859.726 8  -8448727.12046  22254550.708    22254560.1304
  24637627.874    -2015213.096 7  -1535363.37145  24637628.545    24637637.2844
  22964740.630    -8333115.207 8  -6479482.01046  22964745.540    22964756.0454
  20657572.010   -22907892.133 9 -17832760.43648  20657574.488    20657583.1724
  20922742.575   -20297914.076 9 -15796833.70647  20922747.318    20922754.4764
  21448021.916   -14820528.818 8 -11525289.65947  21448024.492    21448034.0674
  20930117.036   -20931554.694 9 -16300560.66747  20930118.152    20930126.1964
 00  6  7  0 35  0.0000000  0  7 09 25 05 21 29 15 23
  22271245.206   -10784124.598 8  -8380362.14546  22271246.931    22271255.4374
  24617933.692    -2118662.581 7  -1615973.19745  24617940.773    24617952.4194
  22954289.401    -8388039.698 8  -6522280.24346  22954294.178    22954303.6214
  20648279.150   -22956729.275 9 -17870815.32448  20648281.189    20648289.4194
  20917053.912   -20327819.424 9 -15820136.54447  20917056.651    20917064.1334
  21444029.620   -14841497.483 8 -11541628.87247  21444034.590    21444044.9794
  20936486.446   -20898068.470 9 -16274467.52547  20936490.227    20936498.7144
 00  6  7  0 35 30.0000000  0  7 09 25 05 21 29 15 23
  22288005.535   -10696057.852 8  -8311738.74146  22288005.895    22288013.7324
  24598266.084    -2222005.351 7  -1696499.88945  24598276.692    24598286.9464
  22943916.651    -8442573.781 8  -6564774.27046  22943917.397    22943926.4134
  20639050.745   -23005223.418 9 -17908602.94748  20639053.382    20639061.3154
  20911402.709   -20357512.607 9 -15843274.05147  20911405.804    20911413.6484
  21440161.872   -14861831.724 8 -11557473.72447  21440165.293    21440175.1884
  20942933.519   -20864191.427 9 -16248069.84647  20942936.921    20942944.8714
 00  6  7  0 36  0.0000000  0  7 09 25 05 21 29 15 23
  22304823.724   -10607662.509 8  -8242859.30046  22304825.816    22304834.9934
  24578637.840    -2325239.466 8  -1776941.81245  24578630.624    24578642.1224
  22933610.086    -8496714.938 8  -6606962.11046  22933614.232    22933623.8244
  20629889.648   -23053373.072 9 -17946122.13548  20629890.763    20629898.7784
  20905792.178   -20386993.738 9 -15866246.33047  20905795.493    20905803.2924
  21436412.537   -14881531.025 8 -11572823.82147  21436415.946    21436425.9454
  20949455.878   -20829923.214 9 -16221367.36147  20949457.937    20949466.0724
 00  6  7  0 36 30.0000000  0  7 09 25 05 21 29 15 23
  22321705.623   -10518941.058 8  -8173725.74846  22321709.953    22321717.9314
  24558996.853    -2428362.862 8  -1857297.43345  24559007.279    24559017.9714
  22923380.676    -8550460.689 8  -6648841.85146  22923386.334    22923396.0474
  20620790.508   -23101175.499 9 -17983370.76248  20620793.968    20620802.6914
  20900223.842   -20416263.250 9 -15889053.71747  20900225.952    20900233.7214
  21432784.830   -14900594.887 8 -11587678.77747  21432788.098    21432798.6614
  20956053.307   -20795263.508 9 -16194359.81147  20956053.477    20956061.7724
 00  6  7  0 37  0.0000000  0  7 09 25 05 21 29 15 23
  22338648.519   -10429896.451 8  -8104340.39046  22338653.864    22338662.9184
  24539402.523    -2531374.408 7  -1937565.96645  24539403.381    24539415.7554
  22913234.813    -8603808.382 8  -6690411.41946  22913234.348    22913244.1184
  20611760.828   -23148628.811 9 -18020347.35448  20611764.024    20611772.6024
  20894692.072   -20445321.174 9 -15911696.22047  20894696.229    20894704.3664
  21429279.417   -14919022.305 8 -11602037.79647  21429281.279    21429291.9004
  20962718.075   -20760211.920 9 -16167046.90047  20962723.281    20962731.4554
 00  6  7  0 37 30.0000000  0  7 09 25 05 21 29 15 23
  22355655.504   -10340531.544 8  -8034705.44846  22355659.637    22355668.4504
  24519825.198    -2634272.333 7  -2017745.91745  24519821.270    24519832.9054
  22903153.630    -8656755.399 8  -6731668.77046  22903158.562    22903168.1224
  20602797.333   -23195730.747 9 -18057050.14148  20602800.396    20602809.0574
  20889201.919   -20474167.795 9 -15934174.07747  20889206.633    20889214.7324
  21425890.984   -14936812.784 8 -11615900.50347  21425896.262    21425906.6104
  20969465.297   -20724768.070 9 -16139428.33047  20969467.970    20969476.3224
 00  6  7  0 38  0.0000000  0  8 09 25 05 21 29 15 23 30
  22372725.631   -10250849.311 8  -7964823.24446  22372725.821    22372735.1744
  24500246.106    -2737054.802 7  -2097835.94245  24500260.992    24500274.4494
  22893155.952    -8709299.135 8  -6772611.88746  22893160.904    22893169.7414
  20593901.830   -23242478.926 9 -18093477.27448  20593904.936    20593912.8894
  20883753.428   -20502803.192 9 -15956487.34247  20883757.434    20883765.4074
  21422632.210   -14953965.709 8 -11629266.40747  21422633.040    21422642.4814
  20976285.448   -20688931.448 9 -16111503.70447  20976287.346    20976295.8064
  23956055.680      -37807.41117
 00  6  7  0 38 30.0000000  0  8 09 25 05 21 29 15 23 30
  22389850.056   -10160852.332 8  -7894695.78846  22389851.330    22389860.1004
  24480734.660    -2839719.958 7  -2177834.54045  24480724.852    24480738.4104
  22883240.770    -8761436.795 8  -6813238.58246  22883238.913    22883248.5024
  20585073.392   -23288871.241 9 -18129627.10648  20585076.766    20585085.1934
  20878344.873   -20531227.684 9 -15978636.26447  20878348.755    20878356.1304
  21419488.409   -14970480.563 9 -11642135.11247  21419490.754    21419499.2774
  20983179.978   -20652701.814 9 -16083272.83647  20983181.673    20983190.2394
  23938312.550     -131106.065 7
 00  6  7  0 39  0.0000000  0  8 09 25 05 21 29 15 23 30
  22407033.565   -10070543.276 8  -7824325.12646  22407036.974    22407045.9674
  24461193.617    -2942265.939 7  -2257740.30245  24461211.500    24461224.5364
  22873391.796    -8813166.193 8  -6853547.13346  22873395.019    22873404.0194
  20576315.197   -23334905.310 9 -18165497.78748  20576316.961    20576325.0864
  20872976.698   -20559441.508 9 -16000621.02747  20872980.093    20872987.3274
  21416467.246   -14986356.747 9 -11654506.14947  21416469.357    21416478.3944
  20990149.349   -20616078.997 9 -16054735.58447  20990151.144    20990159.5124
  23920569.588     -224324.638 8
 00  6  7  0 39 30.0000000  0  8 09 25 05 21 29 15 23 30
  22424280.321    -9979925.094 8  -7753713.62146  22424281.197    22424290.8454
  24441711.488    -3044691.305 7  -2337552.08345  24441719.502    24441732.7604
  22863627.812    -8864484.760 8  -6893535.55546  22863629.579    22863638.3244
  20567622.460   -23380579.330 9 -18201087.91248  20567625.366    20567633.4454
  20867648.894   -20587444.725 9 -16022441.68448  20867651.576    20867658.7724
  21413567.407   -15001593.786 9 -11666379.16147  21413569.773    21413578.8424
  20997192.809   -20579062.619 9 -16025891.66147  20997195.098    20997203.4244
  23902842.097     -317460.108 7
 00  6  7  0 40  0.0000000  0  8 09 25 05 21 29 15 23 30
  22441578.614    -9889000.577 8  -7682863.39746  22441583.571    22441592.2294
  24422232.849    -3146994.194 7  -2417268.40245  24422251.760    24422265.8184
  22853939.545    -8915390.138 8  -6933202.01246  22853942.072    22853951.0104
  20558999.808   -23425891.139 9 -18236395.79348  20559002.667    20559010.7904
  20862359.052   -20615237.501 9 -16044098.36448  20862362.521    20862369.9484
  21410786.797   -15016191.298 9 -11677753.80947  21410791.722    21410800.8244
  21004309.956   -20541652.314 9 -15996740.78247  21004314.128    21004322.2764
  23885137.000     -410509.370 8    -86470.86355  23885141.022    23885147.5514
 00  6  7  0 40 30.0000000  0  8 09 25 05 21 29 15 23 30
  22458942.951    -9797772.351 8  -7611776.50946  22458943.303    22458953.2524
  24402797.456    -3249172.825 7  -2496887.97245  24402808.833    24402822.3994
  22844332.278    -8965879.909 8  -6972544.61146  22844333.928    22844343.6414
  20550447.690   -23470838.413 9 -18271419.61548  20550449.385    20550457.3824
  20857110.428   -20642820.083 9 -16065591.26247  20857113.362    20857120.6814
  21408132.389   -15030148.714 9 -11688629.68947  21408135.693    21408145.5224
  21011505.317   -20503847.937 9 -15967282.84147  21011508.217    21011516.1554
  23867452.952     -503469.336 8   -158907.07645  23867450.188    23867460.2374
 00  6  7  0 41  0.0000000  0  8 09 25 05 21 29 15 23 30
  22476362.513    -9706243.438 8  -7540455.34446  22476361.031    22476369.6484
  24383383.203    -3351225.719 7  -2576409.47445  24383388.806    24383401.9344
  22834805.236    -9015951.299 8  -7011561.20246  22834806.138    22834815.9624
  20541962.821   -23515419.181 9 -18306157.85548  20541965.990    20541974.2184
  20851902.388   -20670192.659 9 -16086920.52247  20851904.253    20851912.2034
  21405599.156   -15043465.662 9 -11699006.49247  21405601.153    21405611.8554
  21018775.097   -20465649.114 9 -15937517.53447  21018777.029    21018785.1944
  23849780.997     -596336.904 8   -231271.24645  23849777.755    23849787.4274
 00  6  7  0 41 30.0000000  0  8 09 25 05 21 29 15 23 30
  22493831.888    -9614416.518 8  -7468901.95946  22493834.609    22493844.9454
  24363985.876    -3453151.163 7  -2655831.71145  24363991.275    24364003.9874
  22825356.297    -9065601.978 8  -7050249.98046  22825358.249    22825367.4764
  20533548.142   -23559631.198 9 -18340608.74948  20533552.999    20533561.4464
  20846732.883   -20697355.440 9 -16108086.30347  20846735.589    20846743.3594
  21403187.998   -15056141.727 9 -11708883.92147  21403189.482    21403198.9874
  21026122.008   -20427055.688 9 -15907444.75547  21026121.211    21026129.4064
  23832125.822     -689109.012 8   -303561.04145  23832123.104    23832133.0204
 00  6  7  0 42  0.0000000  0  8 09 25 05 21 29 15 23 30
  22511365.791    -9522294.271 8  -7397118.44546  22511365.288    22511374.7944
  24344628.055    -3554946.874 7  -2735152.84045  24344620.271    24344635.4924
  22815981.230    -9114829.462 8  -7088608.98146  22815989.738    22815999.4664
  20525208.066   -23603472.034 9 -18374770.41148  20525210.333    20525218.5954
  20841602.954   -20724308.591 9 -16129088.74047  20841606.318    20841614.0374
  21400897.057   -15068176.823 9 -11718261.88247  21400899.767    21400908.2934
  21033536.349   -20388067.266 9 -15877064.19347  21033540.419    21033548.7204
  23814478.156     -781782.486 8   -375773.97145  23814487.218    23814498.4664
 00  6  7  0 42 30.0000000  0  8 09 25 05 21 29 15 23 30
  22528950.087    -9429879.569 8  -7325107.04646  22528951.721    22528961.4754
  24325263.492    -3656611.443 7  -2814371.81645  24325274.676    24325289.0324
  22806697.756    -9163631.407 8  -7126636.39346  22806702.734    22806712.8404
  20516935.715   -23646939.984 9 -18408641.51948  20516938.461    20516946.4954
  20836513.244   -20751052.200 9 -16149927.89247  20836517.102    20836524.9614
  21398728.642   -15079570.623 9 -11727140.13947  21398731.392    21398739.8974
  21041032.797   -20348683.647 9 -15846375.68547  21041035.198    21041043.1354
  23796868.770     -874354.512 8   -447907.87445  23796871.534    23796881.9674
 00  6  7  0 43  0.0000000  0  8 09 25 05 21 29 15 23 30
  22546593.187    -9337175.156 8  -7252869.92046  22546592.046    22546601.9574
  24305960.438    -3758143.667 7  -2893487.63245  24305955.093    24305966.1284
  22797493.612    -9212005.402 8  -7164330.34846  22797498.272    22797507.8074
  20508736.092   -23690032.507 9 -18442220.08748  20508738.297    20508746.0534
  20831463.984   -20777586.455 9 -16170603.91147  20831467.770    20831475.5644
  21396683.544   -15090322.640 9 -11735518.30347  21396685.306    21396693.9564
  21048601.572   -20308904.720 9 -15815379.12647  21048604.784    21048612.4174
  23779267.646     -966821.740 7   -519960.12145  23779274.211    23779285.8114
 00  6  7  0 43 30.0000000  0  8 09 25 05 21 29 15 23 30
  22564282.701    -9244183.666 8  -7180409.04946  22564287.904    22564297.8334
  24286647.181    -3859541.552 7  -2972498.77745  24286658.848    24286671.1174
  22788369.861    -9259948.841 8  -7201688.81746  22788374.486    22788384.8324
  20500606.770   -23732747.306 9 -18475504.32048  20500609.875    20500617.9274
  20826453.665   -20803911.411 9 -16191116.84148  20826458.292    20826466.4824
  21394757.393   -15100432.694 9 -11743396.23847  21394760.929    21394770.8294
  21056247.083   -20268730.405 9 -15784074.47947  21056249.635    21056257.3164
  23761692.382    -1059180.987 7   -591928.22345  23761699.908    23761709.8704
 00  6  7  0 44  0.0000000  0  8 09 25 05 21 29 15 23 30
  22582039.161    -9150908.015 8  -7107726.79746  22582038.218    22582048.0664
  24267396.891    -3960803.170 8  -3051403.70045  24267389.900    24267400.8154
  22779329.888    -9307459.370 8  -7238709.95746  22779333.293    22779342.9984
  20492551.436   -23775082.912 9 -18508493.07848  20492553.680    20492561.9604
  20821484.997   -20830027.625 9 -16211467.11448  20821488.733    20821496.3574
  21392955.930   -15109900.299 9 -11750773.58647  21392959.620    21392969.3794
  21063966.601   -20228160.487 9 -15752461.57347  21063969.766    21063977.6334
  23744147.336    -1151429.110 8   -663809.74245  23744145.903    23744155.6004
 00  6  7  0 44 30.0000000  0  8 09 25 05 21 29 15 23 30
  22599838.858    -9057350.969 8  -7034825.26646  22599840.399    22599849.9474
  24248144.317    -4061926.603 7  -3130200.98245  24248145.224    24248155.9804
  22770372.202    -9354534.939 8  -7275392.15646  22770374.472    22770385.3914
  20484566.208   -23817036.661 9 -18541184.29148  20484569.919    20484578.2074
  20816556.204   -20855934.907 9 -16231654.59248  20816559.142    20816566.3644
  21391275.302   -15118725.400 9 -11757650.27147  21391280.062    21391289.2514
  21071764.529   -20187194.636 9 -15720540.14047  21071765.460    21071773.3794
  23726610.032    -1243563.150 8   -735602.37945  23726612.496    23726623.5064
 00  6  7  0 45  0.0000000  0  8 09 25 05 21 29 15 23 30
  22617688.532    -8963515.221 8  -6961706.56646  22617697.667    22617707.6204
  24228928.496    -4162910.504 7  -3208889.55645  24228927.419    24228939.1604
  22761500.381    -9401173.012 8  -7311733.46946  22761499.972    22761510.3964
  20476657.596   -23858606.734 9 -18573576.53248  20476659.765    20476667.7864
  20811665.599   -20881633.543 9 -16251679.48348  20811668.995    20811676.0494
  21389721.450   -15126907.909 9 -11764026.23147  21389723.577    21389731.9204
  21079634.567   -20145832.697 9 -15688310.06347  21079636.384    21079644.0734
  23709104.516    -1335580.075 8   -807303.74345  23709102.534    23709113.3434
 00  6  7  0 45 30.0000000  0  8 09 25 05 21 29 15 23 30
  22635609.801    -8869403.500 8  -6888372.84646  22635606.848    22635615.8954
  24209727.247    -4263752.675 7  -3287467.69845  24209738.778    24209750.6314
  22752704.461    -9447371.297 8  -7347732.08246  22752708.778    22752719.1964
  20468819.988   -23899790.343 9 -18605667.63048  20468822.523    20468830.5994
  20806815.262   -20907123.617 9 -16271541.86448  20806817.886    20806825.8374
  21388284.517   -15134447.760 9 -11769901.42047  21388287.942    21388296.8284
  21087577.693   -20104074.440 9 -15655771.17747  21087582.594    21087590.6334
  23691610.540    -1427476.565 8   -878911.26545  23691615.837    23691624.9794
 00  6  7  0 46  0.0000000  0  8 09 25 05 21 29 15 23 30
  22653564.465    -8775018.635 8  -6814826.25346  22653567.225    22653576.3284
  24190575.906    -4364452.088 7  -3365934.58545  24190576.431    24190588.1094
  22743999.169    -9493127.490 8  -7383386.21246  22744001.420    22744011.1044
  20461056.009   -23940585.948 9 -18637456.39448  20461059.494    20461067.0984
  20802003.238   -20932405.416 9 -16291241.94648  20802006.933    20802014.4464
  21386972.847   -15141344.748 9 -11775275.69247  21386976.002    21386984.6124
  21095601.380   -20061919.790 9 -15622923.41147  21095604.554    21095612.3334
  23674148.727    -1519249.833 8   -950422.80545  23674151.265    23674161.2634
 00  6  7  0 46 30.0000000  0  8 09 25 05 21 29 15 23 30
  22671575.538    -8680363.484 8  -6741069.07546  22671579.647    22671588.8734
  24171434.487    -4465006.847 7  -3444288.82545  24171441.905    24171452.5404
  22735379.070    -9538439.065 8  -7418693.86346  22735379.904    22735388.8954
  20453368.813   -23980991.016 9 -18668940.85048  20453370.662    20453378.5284
  20797231.540   -20957479.154 9 -16310779.90048  20797235.618    20797243.1424
  21385783.039   -15147598.706 9 -11780148.90647  21385785.562    21385794.6264
  21103699.169   -20019368.856 9 -15589766.85447  21103701.332    21103709.5134
  23656706.349    -1610896.278 8  -1021835.51545  23656711.030    23656720.9694
 00  6  7  0 47  0.0000000  0  8 09 25 05 21 29 15 23 30
  22689638.713    -8585440.691 8  -6667103.32446  22689643.432    22689652.0924
  24152329.873    -4565415.453 8  -3522529.09845  24152333.843    24152346.4974
  22726840.980    -9583303.815 8  -7453653.33346  22726841.575    22726851.3594
  20445753.771   -24021003.947 9 -18700119.72948  20445756.268    20445764.1494
  20792501.282   -20982344.769 9 -16330155.68748  20792503.669    20792511.4304
  21384714.561   -15153209.718 9 -11784521.11547  21384717.654    21384726.3344
  21111870.971   -19976421.435 9 -15556301.36347  21111874.135    21111882.1484
  23639297.179    -1702413.008 8  -1093147.12145  23639296.488    23639307.0384
 00  6  7  0 47 30.0000000  0  8 09 25 05 21 29 15 23 30
  22707755.944    -8490253.013 8  -6592931.17246  22707757.149    22707767.3064
  24133249.050    -4665676.137 7  -3600654.10645  24133255.345    24133266.4154
  22718389.163    -9627719.582 8  -7488262.96346  22718390.051    22718399.7634
  20438214.172   -24060622.381 9 -18730991.21748  20438216.836    20438224.8954
  20787808.485   -21007002.462 9 -16349369.45948  20787811.434    20787819.2594
  21383772.520   -15158177.961 9 -11788392.47047  21383772.526    21383780.6364
  21120120.651   -19933077.378 9 -15522526.79447  21120122.500    21120130.3504
  23621901.422    -1793796.897 8  -1164355.26545  23621906.386    23621916.2534
 00  6  7  0 48  0.0000000  0  8 09 25 05 21 29 15 23 30
  22725916.752    -8394803.221 8  -6518554.78846  22725921.313    22725929.7374
  24114203.838    -4765787.142 7  -3678662.49945  24114204.845    24114215.3764
  22710021.723    -9671683.832 8  -7522520.74446  22710023.488    22710032.7714
  20430750.865   -24099844.185 9 -18761553.64948  20430753.043    20430761.4294
  20783156.141   -21031452.391 9 -16368421.33848  20783158.905    20783166.6544
  21382946.838   -15162503.111 9 -11791762.72047  21382949.013    21382957.1744
  21128442.989   -19889336.589 9 -15488443.08947  21128446.000    21128454.0884
  23604541.840    -1885044.681 8  -1235457.34245  23604541.647    23604552.0184
 00  6  7  0 48 30.0000000  0  8 09 25 05 21 29 15 23 30
  22744128.550    -8299093.754 8  -6443976.03046  22744133.703    22744142.7404
  24095178.567    -4865746.664 8  -3756552.85445  24095184.867    24095194.0414
  22701738.619    -9715194.493 8  -7556425.09246  22701743.448    22701752.4784
  20423362.601   -24138667.145 9 -18791805.28648  20423365.346    20423374.3014
  20778542.050   -21055694.723 9 -16387311.45148  20778545.654    20778553.2804
  21382242.772   -15166185.344 8 -11794631.98547  21382247.894    21382257.2124
  21136842.656   -19845198.955 9 -15454050.16047  21136844.827    21136853.0644
  23587206.965    -1976153.436 8  -1306451.05945  23587205.140    23587214.8314
 00  6  7  0 49  0.0000000  0  8 09 25 05 21 29 15 23 30
  22762395.367    -8203127.502 8  -6369197.21646  22762395.917    22762404.7914
  24076192.853    -4965553.354 8  -3834324.09545  24076191.913    24076202.3764
  22693548.676    -9758249.161 8  -7589974.12046  22693550.892    22693559.7514
  20416051.144   -24177089.146 9 -18821744.49048  20416054.074    20416062.4764
  20773968.149   -21079729.692 9 -16406039.98148  20773972.253    20773979.2404
  21381668.065   -15169224.613 8 -11797000.24447  21381669.691    21381679.4294
  21145317.440   -19800664.367 9 -15419347.89647  21145319.539    21145327.8534
  23569888.589    -2067119.927 8  -1377333.94845  23569894.246    23569904.0724
 00  6  7  0 49 30.0000000  0  8 09 25 05 21 29 15 23 30
  22780702.346    -8106907.348 8  -6294220.54746  22780706.043    22780715.2594
  24057227.808    -5065205.647 8  -3911975.04445  24057228.871    24057237.8834
  22685444.881    -9800845.784 8  -7623166.23646  22685445.464    22685454.1784
  20408816.594   -24215108.236 9 -18851369.73848  20408819.343    20408827.4734
  20769434.735   -21103557.442 9 -16424607.03748  20769437.886    20769445.6114
  21381211.381   -15171620.948 8 -11798867.53247  21381213.929    21381223.1954
  21153866.448   -19755732.685 9 -15384336.21147  21153869.772    21153878.1304
  23552612.514    -2157940.973 8  -1448103.50545  23552612.089    23552621.4854
 00  6  7  0 50  0.0000000  0  8 09 25 05 21 29 15 23 30
  22799063.020    -8010436.005 8  -6219048.16346  22799063.733    22799073.5244
  24038295.601    -5164701.466 8  -3989504.06245  24038295.272    24038304.8494
  22677424.462    -9842982.136 8  -7655999.71946  22677426.463    22677435.7774
  20401658.703   -24252722.297 9 -18880679.37548  20401661.565    20401669.3604
  20764940.435   -21127178.113 9 -16443012.73248  20764943.324    20764950.8784
  21380879.881   -15173374.600 9 -11800234.01447  21380880.940    21380889.2464
  21162492.023   -19710403.943 9 -15349015.13147  21162495.481    21162504.0264
  23535353.211    -2248613.473 8  -1518757.29345  23535358.020    23535367.2894
 00  6  7  0 50 30.0000000  0  8 09 25 05 21 29 15 23 30
  22817466.096    -7913716.137 8  -6143682.10746  22817468.577    22817477.8544
  24019385.404    -5264039.425 8  -4066910.06845  24019391.822    24019400.7914
  22669492.782    -9884656.158 8  -7688472.96846  22669495.966    22669504.9014
  20394578.893   -24289929.448 9 -18909671.93648  20394581.372    20394589.0934
  20760486.926   -21150591.453 9 -16461256.87548  20760487.918    20760495.2594
  21380666.346   -15174485.730 9 -11801099.82747  21380668.615    21380678.6114
  21171195.454   -19664678.250 9 -15313384.73047  21171196.944    21171205.0734
  23518128.178    -2339134.343 8  -1589292.96445  23518131.828    23518141.9554
 00  6  7  0 51  0.0000000  0  8 09 25 05 21 29 15 23 30
  22835913.856    -7816750.581 8  -6068124.60846  22835921.014    22835930.0994
  24000514.517    -5363217.668 8  -4144191.63545  24000517.828    24000527.3924
  22661651.281    -9925865.637 8  -7720584.21546  22661654.222    22661663.3014
  20387575.561   -24326727.521 9 -18938345.73748  20387578.814    20387586.6534
  20756067.735   -21173798.016 9 -16479339.89048  20756071.532    20756079.1004
  21380574.745   -15174954.435 8 -11801465.04247  21380579.705    21380588.9504
  21179971.229   -19618555.623 9 -15277445.03547  21179974.010    21179981.6694
  23500923.228    -2429500.294 8  -1659707.89945  23500934.717    23500946.4204
 00  6  7  0 51 30.0000000  0  8 09 25 05 21 29 15 23 30
  22854415.264    -7719541.888 8  -5992377.65046  22854419.229    22854428.6394
  23981668.176    -5462234.883 8  -4221347.70045  23981675.452    23981683.8754
  22653898.246    -9966608.366 8  -7752331.75846  22653900.605    22653910.2414
  20380652.196   -24363114.413 9 -18966699.13348  20380654.607    20380662.5684
  20751689.680   -21196797.815 9 -16497261.79948  20751694.444    20751702.3654
  21380612.302   -15174781.034 9 -11801329.90947  21380612.731    21380622.2934
  21188823.810   -19572035.992 9 -15241195.99147  21188826.085    21188834.1704
  23483770.438    -2519708.201 8  -1729999.66746  23483769.181    23483780.1184
 00  6  7  0 52  0.0000000  0  8 09 25 05 21 29 15 23 30
  22872960.015    -7622092.668 8  -5916443.28646  22872963.204    22872972.3664
  23962864.059    -5561089.312 8  -4298376.91845  23962863.964    23962873.1244
  22646233.823   -10006882.233 8  -7783713.95346  22646236.690    22646246.1854
  20373805.792   -24399087.971 9 -18994730.45348  20373809.106    20373816.8864
  20747354.625   -21219590.999 9 -16515022.70848  20747357.178    20747365.0084
  21380763.099   -15173965.833 9 -11800694.68247  21380767.771    21380777.4304
  21197750.745   -19525119.282 9 -15204637.54047  21197753.944    21197762.3724
  23466630.872    -2609755.021 8  -1800165.93346  23466634.211    23466643.6534
 00  6  7  0 52 30.0000000  0  8 09 25 05 21 29 15 23 30
  22891550.226    -7524405.570 8  -5840323.54846  22891553.095    22891562.0854
  23944078.935    -5659779.212 8  -4375277.97145  23944083.358    23944091.9844
  22638662.890   -10046685.022 8  -7814729.07146  22638662.440    22638671.3614
  20367041.654   -24434645.850 9 -19022437.86148  20367042.668    20367050.6154
  20743056.646   -21242177.650 9 -16532622.66748  20743058.879    20743066.9634
  21381041.781   -15172508.998 8 -11799559.47047  21381044.532    21381054.6174
  21206756.817   -19477805.699 9 -15167769.84647  21206757.426    21206765.3554
  23449521.214    -2699637.423 8  -1870204.10246  23449530.228    23449539.7034
 00  6  7  0 53  0.0000000  0  8 09 25 05 21 29 15 23 30
  22910188.891    -7426483.553 8  -5764020.76346  22910186.735    22910195.6474
  23925329.671    -5758303.105 8  -4452049.65845  23925335.423    23925344.9564
  22631179.152   -10086014.872 8  -7845375.68546  22631178.042    22631187.4514
  20360351.501   -24469786.598 9 -19049820.23448  20360355.648    20360363.5484
  20738798.093   -21264557.887 9 -16550061.79648  20738800.387    20738807.6884
  21381440.673   -15170410.576 9 -11797924.33347  21381444.394    21381453.6314
  21215834.516   -19430095.020 9 -15130592.70947  21215836.423    21215844.7694
  23432460.003    -2789352.138 8  -1940111.56346  23432456.770    23432467.3064
 00  6  7  0 53 30.0000000  0  8 09 25 05 21 29 15 23 30
  22928865.310    -7328329.144 8  -5687536.88846  22928864.711    22928873.8744
  23906619.144    -5856659.133 8  -4528690.55645  23906616.422    23906628.1324
  22623780.078   -10124869.864 8  -7875652.27646  22623784.639    22623794.2744
  20353744.725   -24504508.018 9 -19076875.86348  20353748.410    20353756.1494
  20734578.186   -21286731.832 9 -16567340.17148  20734580.883    20734588.0604
  21381963.911   -15167671.003 9 -11795789.57347  21381965.933    21381974.2944
  21224987.548   -19381987.516 9 -15093106.36547  21224990.684    21224999.4254
  23415418.122    -2878896.245 8  -2009886.08146  23415418.723    23415427.7364
 00  6  7  0 54  0.0000000  0  8 09 25 05 21 29 15 23 30
  22947580.767    -7229945.239 8  -5610874.20046  22947586.137    22947594.1264
  23887916.187    -5954845.647 8  -4605199.35945  23887931.589    23887944.6284
  22616479.705   -10163247.605 8  -7905556.95346  22616481.482    22616490.9024
  20347220.422   -24538807.780 9 -19103602.91648  20347221.509    20347229.1514
  20730397.696   -21308699.613 9 -16584457.90648  20730400.628    20730407.7884
  21382605.684   -15164290.659 9 -11793155.52547  21382609.000    21382618.0684
  21234218.419   -19333483.244 9 -15055310.86047  21234221.119    21234229.9244
  23398414.324    -2968266.771 8  -2079525.40446  23398411.831    23398419.7934
 00  6  7  0 54 30.0000000  0  8 09 25 05 21 29 15 23 30
  22966348.280    -7131334.502 8  -5534034.71146  22966352.110    22966360.7754
  23869284.877    -6052861.564 7  -4681575.28645  23869279.054    23869291.5184
  22609266.148   -10201146.102 8  -7935088.21946  22609269.599    22609278.7604
  20340771.747   -24572683.957 9 -19129999.91248  20340774.926    20340782.7454
  20726257.013   -21330461.247 9 -16601415.00548  20726259.609    20726266.8204
  21383371.500   -15160270.021 9 -11790022.55047  21383373.802    21383383.7664
  21243523.045   -19284582.337 9 -15017206.27747  21243526.808    21243535.5304
  23381431.415    -3057460.234 8  -2149026.72946  23381438.104    23381448.4144
 00  6  7  0 55  0.0000000  0  8 09 25 05 21 29 15 23 30
  22985157.380    -7032499.444 8  -5457020.52046  22985158.440    22985168.4274
  23850644.744    -6150704.786 7  -4757816.54945  23850661.194    23850674.3964
  22602147.087   -10238563.331 8  -7964244.45546  22602149.408    22602158.4394
  20334406.328   -24606135.058 9 -19156065.66848  20334409.192    20334417.0614
  20722153.352   -21352016.905 9 -16618211.59548  20722157.068    20722164.5584
  21384258.618   -15155609.526 9 -11786390.98847  21384261.157    21384270.1204
  21252907.084   -19235284.924 9 -14978792.72847  21252908.206    21252916.5214
  23364499.570    -3146473.624 8  -2218387.72546  23364499.485    23364509.2384
 00  6  7  0 55 30.0000000  0  8 09 25 05 21 29 15 23 30
  23004007.488    -6933443.032 8  -5379833.79446  23004009.777    23004018.4054
  23832085.563    -6248373.974 8  -4833922.26345  23832076.032    23832088.0974
  22595120.929   -10275497.302 8  -7993024.12146  22595121.223    22595130.8514
  20328121.869   -24639158.347 9 -19181798.07148  20328125.189    20328133.1824
  20718091.744   -21373366.740 9 -16634847.80348  20718094.282    20718101.6994
  21385267.153   -15150309.388 9 -11782260.99247  21385269.732    21385278.8904
  21262361.975   -19185591.139 9 -14940070.32347  21262364.614    21262372.9144
  23347587.158    -3235303.914 8  -2287606.02746  23347595.115    23347604.8764
 00  6  7  0 56  0.0000000  0  8 09 25 05 21 29 15 23 30
  23022903.455    -6834167.499 8  -5302476.31146  23022900.102    23022909.1214
  23813513.781    -6345867.755 8  -4909891.30645  23813524.141    23813534.9844
  22588182.487   -10311946.033 8  -8021425.68646  22588184.942    22588193.8424
  20321920.351   -24671751.767 9 -19207195.51248  20321922.569    20321930.9814
  20714067.177   -21394510.725 9 -16651323.60948  20714070.467    20714078.6294
  21386397.926   -15144370.248 8 -11777633.07947  21386399.441    21386408.7574
  21271893.817   -19135500.911 9 -14901039.00747  21271896.328    21271904.4694
  23330722.237    -3323947.936 8  -2356679.18046  23330726.653    23330736.4414
 00  6  7  0 56 30.0000000  0  8 09 25 05 21 29 15 23 30
  23041830.520    -6734675.725 8  -5224950.33346  23041833.268    23041842.1654
  23795006.732    -6443184.076 8  -4985722.04645  23795004.347    23795015.9134
  22581337.613   -10347907.545 8  -8049447.59346  22581341.883    22581350.9704
  20315800.335   -24703913.320 9 -19232256.43548  20315802.397    20315810.7544
  20710082.109   -21415449.104 9 -16667639.20548  20710086.014    20710094.2244
  21387646.745   -15137792.646 9 -11772507.66247  21387650.979    21387660.9594
  21281500.809   -19085014.544 9 -14861699.00847  21281503.440    21281511.9894
  23313896.851    -3412402.137 8  -2425604.43846  23313894.100    23313903.2484
 00  6  7  0 57  0.0000000  0  8 09 25 05 21 29 15 23 30
  23060807.040    -6634970.338 8  -5147257.90845  23060806.258    23060815.2784
  23776511.670    -6540321.592 8  -5061413.48745  23776520.264    23776530.3584
  22574591.964   -10383379.834 8  -8077088.28646  22574591.711    22574600.7184
  20309762.315   -24735641.412 9 -19256979.59748  20309764.799    20309773.3074
  20706136.667   -21436181.761 9 -16683794.50548  20706140.841    20706148.8874
  21389021.381   -15130577.023 9 -11766885.09847  21389024.539    21389033.2614
  21291182.681   -19034132.111 9 -14822050.38247  21291185.894    21291194.6984
  23297099.298    -3500663.691 8  -2494379.59046  23297099.673    23297108.1134
 00  6  7  0 57 30.0000000  0  8 09 25 05 21 29 15 23 30
  23079812.400    -6535054.097 8  -5069401.19646  23079819.649    23079828.7604
  23758062.421    -6637278.970 8  -5136964.55745  23758070.526    23758081.6264
  22567933.155   -10418361.102 8  -8104346.38546  22567935.471    22567944.4924
  20303806.324   -24766934.198 9 -19281363.55448  20303810.024    20303818.1814
  20702231.445   -21456708.961 9 -16699789.70448  20702234.930    20702242.5494
  21390517.030   -15122723.912 9 -11760765.77747  21390518.894    21390527.9494
  21300941.767   -18982853.751 9 -14782093.24247  21300943.932    21300952.5654
  23280331.979    -3588729.328 8  -2563002.07846  23280340.316    23280349.8234
 00  6  7  0 58  0.0000000  0  8 09 25 05 21 29 15 23 30
  23098875.157    -6434929.427 8  -4991382.07146  23098872.140    23098882.2854
  23739657.265    -6734054.331 8  -5212373.77945  23739654.350    23739665.1034
  22561368.208   -10452849.328 8  -8131220.29346  22561372.289    22561380.9644
  20297935.879   -24797789.177 9 -19305406.36748  20297938.519    20297946.5394
  20698364.533   -21477030.828 9 -16715624.89748  20698367.940    20698375.1484
  21392132.261   -15114234.072 9 -11754150.30047  21392134.984    21392143.2744
  21310772.609   -18931179.789 9 -14741827.85247  21310776.994    21310785.7474
  23263620.951    -3676595.737 8  -2631469.30546  23263620.092    23263629.7354
 00  6  7  0 58 30.0000000  0  8 09 25 05 21 29 15 23 30
  23117958.352    -6334599.134 8  -4913202.70745  23117964.618    23117974.4464
  23721267.297    -6830646.139 8  -5287639.98545  23721273.366    23721281.6714
  22554902.671   -10486842.722 8  -8157708.58746  22554903.556    22554912.6864
  20292148.581   -24828204.636 9 -19329106.69148  20292150.607    20292158.5974
  20694537.392   -21497147.295 9 -16731300.04548  20694539.927    20694547.2804
  21393866.427   -15105108.118 9 -11747039.15047  21393870.615    21393880.4774
  21320682.686   -18879110.269 9 -14701254.22747  21320685.272    21320694.3564
  23246935.293    -3764260.120 8  -2699779.13546  23246938.900    23246947.4804
 00  6  7  0 59  0.0000000  0  8 09 25 05 21 29 15 23 30
  23137093.937    -6234065.793 8  -4834865.12246  23137095.265    23137105.4394
  23702926.281    -6927052.992 8  -5362762.09345  23702927.114    23702935.9394
  22548527.911   -10520339.284 8  -8183809.75446  22548529.062    22548537.9874
  20286444.297   -24858178.749 9 -19352463.11148  20286446.606    20286454.4734
  20690748.538   -21517058.534 9 -16746815.26248  20690750.864    20690758.1294
  21395724.499   -15095346.602 9 -11739432.76147  21395728.242    21395737.9624
  21330668.708   -18826645.389 9 -14660372.53447  21330669.531    21330678.4524
  23230292.334    -3851719.115 8  -2767928.92546  23230295.147    23230304.5104
 00  6  7  0 59 30.0000000  0  8 09 25 05 21 29 15 23 30
  23156258.228    -6133331.988 8  -4756371.34645  23156263.306    23156274.0274
  23684613.687    -7023273.393 8  -5437738.85545  23684616.188    23684627.0394
  22542250.017   -10553337.249 8  -8209522.38946  22542249.887    22542258.7044
  20280824.348   -24887709.273 9 -19375473.88048  20280826.973    20280834.9334
  20686998.629   -21536764.589 9 -16762170.60548  20687000.897    20687008.4104
  21397703.556   -15084950.258 9 -11731331.69247  21397706.385    21397716.1574
  21340726.029   -18773785.389 9 -14619182.95947  21340728.750    21340736.7594
  23213688.875    -3938969.496 8  -2835916.15346  23213690.689    23213701.5114
 00  6  7  1  0  0.0000000  0  8 09 25 05 21 29 15 23 30
  23175463.186    -6032400.393 8  -4677723.45145  23175471.609    23175481.5474
  23666341.897    -7119305.657 8  -5512569.01445  23666341.911    23666353.0054
  22536061.473   -10585834.611 8  -8234844.96646  22536065.091    22536074.8514
  20275289.022   -24916794.576 9 -19398137.72048  20275291.953    20275300.3294
  20683286.868   -21556265.536 9 -16777366.11848  20683289.973    20683297.6414
  21399802.926   -15073919.842 9 -11722736.54947  21399805.810    21399814.8074
  21350860.531   -18720530.465 9 -14577685.64047  21350862.714    21350870.9234
  23197125.041    -4026008.258 8  -2903738.48246  23197129.099    23197137.9824
 00  6  7  1  0 30.0000000  0  8 09 25 05 21 29 15 23 30
  23194712.716    -5931273.581 7  -4598923.43145  23194714.542    23194726.3394
  23648104.105    -7215148.149 8  -5587251.32746  23648104.991    23648114.5774
  22529974.568   -10617829.462 8  -8259775.94746  22529976.513    22529986.0804
  20269839.412   -24945432.685 9 -19420453.09948  20269842.506    20269850.5954
  20679615.508   -21575561.395 9 -16792401.82348  20679617.720    20679625.5154
  21402022.248   -15062255.821 9 -11713647.69347  21402025.459    21402034.5684
  21361067.724   -18666881.019 9 -14535880.89747  21361071.820    21361079.7024
  23180603.882    -4112831.950 8  -2971393.24346  23180607.043    23180615.9214
 00  6  7  1  1  0.0000000  0  8 09 25 05 21 29 15 23 30
  23213989.870    -5829954.390 8  -4519973.52145  23213996.804    23214006.3584
  23629894.503    -7310799.526 8  -5661784.72345  23629902.097    23629912.3694
  22523979.908   -10649320.316 8  -8284314.20746  22523984.001    22523993.4144
  20264475.356   -24973621.237 9 -19442418.18048  20264478.448    20264486.5354
  20675982.562   -21594652.282 9 -16807277.80648  20675985.112    20675992.7564
  21404364.142   -15049959.083 9 -11704065.80047  21404365.434    21404374.3194
  21371353.863   -18612837.361 9 -14493769.00347  21371356.383    21371364.2014
  23164123.205    -4199437.569 8  -3038878.06146  23164125.870    23164135.4984
 00  6  7  1  1 30.0000000  0  8 09 25 05 21 29 15 23 30
  23233308.174    -5728445.458 8  -4440875.71145  23233313.069    23233322.7014
  23611736.676    -7406258.185 8  -5736167.95245  23611736.695    23611746.8454
  22518088.264   -10680305.370 8  -8308458.35146  22518087.966    22518097.0874
  20259196.031   -25001359.001 9 -19464032.00148  20259200.184    20259208.1904
  20672389.082   -21613538.266 9 -16821994.12848  20672391.368    20672397.9954
  21406825.114   -15037030.355 9 -11693991.44147  21406826.066    21406835.2424
  21381713.002   -18558399.736 9 -14451350.10847  21381715.167    21381723.3504
  23147684.971    -4285822.159 8  -3106190.62446  23147688.009    23147696.9084
 00  6  7  1  2  0.0000000  0  8 09 25 05 21 29 15 23 30
  23252661.466    -5626749.103 8  -4361631.90145  23252664.596    23252675.5784
  23593605.741    -7501522.663 8  -5810399.88646  23593608.772    23593618.6074
  22512287.350   -10710782.744 8  -8332206.90146  22512288.565    22512297.8324
  20254005.519   -25028643.179 9 -19485292.38148  20254008.142    20254016.0784
  20668832.695   -21632219.406 9 -16836550.83348  20668836.514    20668843.5084
  21409404.054   -15023470.631 9 -11683425.40847  21409406.313    21409415.3954
  21392144.626   -18503568.413 9 -14408624.45447  21392149.105    21392157.6584
  23131290.551    -4371982.328 8  -3173328.33246  23131292.741    23131300.7154
 00  6  7  1  2 30.0000000  0  8 09 25 05 21 29 15 23 30
  23272043.494    -5524867.997 8  -4282244.12945  23272052.783    23272062.0584
  23575512.448    -7596591.237 8  -5884479.12646  23575518.537    23575528.2004
  22506583.561   -10740750.838 8  -8355558.60946  22506586.098    22506594.7624
  20248899.885   -25055472.723 9 -19506198.49548  20248902.932    20248910.6594
  20665316.727   -21650695.811 9 -16850948.00448  20665320.293    20665327.7724
  21412103.626   -15009280.543 9 -11672368.18947  21412106.568    21412115.6284
  21402655.327   -18448343.731 9 -14365592.28147  21402658.292    21402666.3574
  23114940.786    -4457915.000 8  -3240288.79646  23114939.241    23114947.9724
 00  6  7  1  3  0.0000000  0  8 09 25 05 21 29 15 23 30
  23291476.196    -5422804.626 8  -4202714.31145  23291474.715    23291484.7014
  23557462.995    -7691462.615 8  -5958404.71946  23557464.142    23557474.7984
  22500981.446   -10770207.897 8  -8378512.12246  22500979.998    22500989.1234
  20243881.332   -25081845.457 9 -19526748.65948  20243884.392    20243892.3844
  20661839.934   -21668967.490 9 -16865185.64448  20661843.272    20661851.1724
  21414922.811   -14994461.066 8 -11660820.53947  21414926.331    21414935.3434
  21413237.180   -18392725.922 9 -14322253.77847  21413242.171    21413250.1994
  23098628.472    -4543617.155 8  -3307069.56946  23098631.137    23098640.0074
 00  6  7  1  3 30.0000000  0  8 09 25 05 21 29 15 23 30
  23310924.117    -5320561.622 8  -4123044.49545  23310930.837    23310941.4654
  23539438.889    -7786135.600 8  -6032175.71946  23539447.637    23539458.5294
  22495471.613   -10799152.248 8  -8401066.11446  22495472.434    22495481.3004
  20238948.978   -25107759.658 9 -19546941.52548  20238952.875    20238960.9764
  20658402.411   -21687034.328 9 -16879263.67748  20658405.171    20658412.8624
  21417862.668   -14979013.280 9 -11648783.30647  21417865.745    21417875.4514
  21423897.657   -18336715.266 8 -14278609.13347  21423900.353    21423908.8974
  23082360.530    -4629085.383 8  -3373668.09646  23082367.108    23082376.2744
 00  6  7  1  4  0.0000000  0  8 09 25 05 21 29 15 23 30
  23330426.232    -5218141.643 8  -4043236.80845  23330420.479    23330431.7654
  23521466.729    -7880608.320 8  -6105790.65146  23521470.327    23521480.5824
  22490061.924   -10827582.216 8  -8423219.28546  22490063.124    22490070.9034
  20234107.035   -25133213.231 9 -19566775.46148  20234109.209    20234117.1384
  20655003.567   -21704896.549 9 -16893182.26548  20655006.142    20655013.6754
  21420922.006   -14962938.019 9 -11636257.12547  21420924.923    21420934.4834
  21434629.691   -18280312.106 8 -14234658.65847  21434633.536    21434642.0584
  23066149.065    -4714316.631 8  -3440081.97546  23066147.596    23066157.3614
 00  6  7  1  4 30.0000000  0  8 09 25 05 21 29 15 23 30
  23349939.370    -5115547.224 8  -3963293.16945  23349943.974    23349954.1894
  23503527.475    -7974879.075 8  -6179248.29745  23503530.221    23503540.8794
  22484749.781   -10855496.445 8  -8444970.59046  22484750.738    22484759.2204
  20229350.285   -25158204.092 9 -19586248.83748  20229353.680    20229361.5344
  20651642.600   -21722554.137 9 -16906941.39648  20651646.075    20651653.4574
  21424100.230   -14946236.128 9 -11623242.67647  21424103.249    21424113.2244
  21445439.160   -18223516.955 8 -14190402.71047  21445441.134    21445450.2034
  23049972.562    -4799307.608 8  -3506308.63546  23049974.004    23049983.7464
 00  6  7  1  5  0.0000000  0  8 09 25 05 21 29 15 23 30
  23369493.141    -5012780.710 8  -3883215.45445  23369499.312    23369510.1664
  23485616.867    -8068946.687 8  -6252547.60245  23485629.471    23485640.6454
  22479533.432   -10882893.055 8  -8466318.53146  22479537.438    22479546.0914
  20224683.635   -25182730.858 9 -19605360.58248  20224686.293    20224693.9744
  20648323.743   -21740007.256 9 -16920541.20348  20648325.163    20648332.2774
  21427399.391   -14928908.452 9 -11609740.59647  21427400.581    21427410.2134
  21456321.293   -18166330.115 8 -14145841.58047  21456323.685    21456332.4054
  23033849.222    -4884055.467 8  -3572345.88846  23033847.905    23033856.7864
 00  6  7  1  5 30.0000000  0  8 09 25 05 21 29 15 23 30
  23389089.376    -4909844.828 8  -3803005.78945  23389087.582    23389098.4034
  23467766.326    -8162809.802 8  -6325687.56045  23467767.010    23467779.1904
  22474423.754   -10909770.356 8  -8487261.84946  22474422.983    22474431.4204
  20220103.968   -25206791.816 9 -19624109.36148  20220107.436    20220115.4654
  20645038.559   -21757255.750 9 -16933981.55848  20645042.644    20645049.7854
  21430813.988   -14910956.259 9 -11595751.88647  21430816.659    21430825.2704
  21467278.402   -18108752.120 9 -14100975.65947  21467280.694    21467289.3494
  23017767.090    -4968556.916 8  -3638191.12046  23017767.421    23017776.6344
 00  6  7  1  6  0.0000000  0  8 09 25 05 21 29 15 23 30
  23408708.387    -4806742.244 8  -3722666.19945  23408707.841    23408718.7154
  23449942.530    -8256466.296 8  -6398666.54945  23449944.604    23449957.4714
  22469406.454   -10936126.629 8  -8507799.17346  22469406.994    22469416.2064
  20215615.997   -25230384.852 9 -19642493.52448  20215618.040    20215625.8524
  20641795.686   -21774299.804 9 -16947262.60548  20641799.312    20641806.3304
  21434346.373   -14892380.482 8 -11581277.26347  21434350.605    21434360.0044
  21478310.544   -18050783.157 9 -14055805.08347  21478311.853    21478320.3364
  23001726.098    -5052808.562 8  -3703841.60946  23001733.502    23001744.4704
 00  6  7  1  6 30.0000000  0  8 09 25 05 21 29 15 23 30
  23428351.096    -4703475.411 7  -3642198.58945  23428358.577    23428369.6954
  23432160.183    -8349915.322 8  -6471483.83446  23432162.467    23432174.2834
  22464486.211   -10961960.345 8  -8527929.26546  22464490.602    22464499.5634
  20211216.244   -25253507.999 9 -19660511.54748  20211217.986    20211225.8744
  20638593.485   -21791139.308 9 -16960384.27148  20638595.022    20638601.9064
  21438001.712   -14873182.342 9 -11566317.67947  21438004.513    21438013.2334
  21489416.612   -17992423.566 9 -14010330.12947  21489417.789    21489425.7434
  22985736.407    -5136807.643 8  -3769295.31146  22985749.290    22985758.3404
 00  6  7  1  7  0.0000000  0  8 09 25 05 21 29 15 23 30
  23448032.288    -4600046.724 7  -3561604.87645  23448039.648    23448051.3664
  23414420.252    -8443155.158 8  -6544138.13746  23414421.056    23414430.4454
  22459672.183   -10987270.312 8  -8547651.26346  22459674.393    22459683.8304
  20206905.101   -25276159.810 9 -19678162.28848  20206907.608    20206915.1454
  20635426.528   -21807774.146 9 -16973346.45348  20635429.399    20635436.1854
  21441773.596   -14853362.866 9 -11550873.93847  21441776.336    21441784.9464
  21500593.819   -17933673.802 9 -13964551.13947  21500597.299    21500605.4704
  22969815.722    -5220550.888 8  -3834549.72946  22969815.081    22969822.2234
 00  6  7  1  7 30.0000000  0  8 09 25 05 21 29 15 23 30
  23467749.794    -4496458.646 7  -3480886.99045  23467753.348    23467763.5794
  23396713.332    -8536184.770 8  -6616628.63246  23396718.332    23396727.2804
  22454955.173   -11012054.944 8  -8566963.92046  22454958.144    22454967.3544
  20202683.488   -25298338.148 9 -19695444.09548  20202687.121    20202694.7624
  20632300.069   -21824204.691 9 -16986149.44648  20632302.849    20632309.9864
  21445661.958   -14832923.100 8 -11534946.85047  21445665.745    21445674.7224
  21511848.098   -17874534.374 9 -13918468.51847  21511850.982    21511859.3984
  22953922.506    -5304035.230 8  -3899602.38346  22953926.875    22953936.8374
 00  6  7  1  8  0.0000000  0  8 09 25 05 21 29 15 23 30
  23487479.382    -4392713.764 7  -3400046.91245  23487492.935    23487506.3104
  23379052.964    -8629002.312 8  -6688953.81546  23379055.263    23379064.3624
  22450338.321   -11036312.452 8  -8585865.83346  22450342.226    22450351.2984
  20198555.311   -25320041.242 9 -19712355.58048  20198557.266    20198564.7004
  20629212.424   -21840430.563 9 -16998792.96048  20629214.899    20629222.1254
  21449673.039   -14811864.375 9 -11518537.45347  21449673.380    21449681.7384
  21523176.403   -17815005.775 9 -13872082.64647  21523178.908    21523187.3734
  22938085.499    -5387257.385 8  -3964450.72646  22938089.649    22938099.6464
 00  6  7  1  8 30.0000000  0  8 09 25 05 21 29 15 23 30
  23507251.748    -4288814.560 7  -3319086.59345  23507265.558    23507276.3794
  23361427.847    -8721606.379 8  -6761112.66446  23361433.119    23361442.3324
  22445823.445   -11060041.491 8  -8604355.93246  22445826.391    22445835.6174
  20194514.591   -25341267.585 9 -19728895.57248  20194517.895    20194525.4854
  20626163.180   -21856452.208 9 -17011277.33948  20626166.222    20626173.0044
  21453793.516   -14790187.739 8 -11501646.56647  21453797.781    21453806.9214
  21534580.270   -17755088.482 8 -13825393.87847  21534581.082    21534589.2934
  22922298.539    -5470214.305 8  -4029092.42446  22922304.289    22922312.9124
 00  6  7  1  9  0.0000000  0  8 09 25 05 21 29 15 23 30
  23527062.105    -4184763.313 8  -3238007.74845  23527067.424    23527076.8084
  23343852.218    -8813995.477 8  -6833104.04245  23343852.023    23343860.4104
  22441413.715   -11083240.652 8  -8622433.12146  22441411.925    22441421.0594
  20190567.624   -25362015.692 9 -19745062.91548  20190569.538    20190576.9494
  20623152.922   -21872269.396 9 -17023602.39448  20623155.960    20623163.3024
  21458038.554   -14767894.423 9 -11484275.15847  21458040.775    21458049.5264
  21546053.224   -17694782.988 8 -13778402.64347  21546056.649    21546065.4854
  22906567.975    -5552902.780 8  -4093524.92746  22906569.271    22906578.4254
 00  6  7  1  9 30.0000000  0  8 09 25 05 21 29 15 23 30
  23546877.929    -4080562.880 7  -3156812.68445  23546894.961    23546904.4334
  23326302.051    -8906168.539 8  -6904927.06446  23326311.266    23326321.6924
  22437096.622   -11105908.590 8  -8640096.41346  22437098.015    22437106.3354
  20186708.711   -25382283.674 9 -19760856.12848  20186712.562    20186720.2294
  20620181.497   -21887882.149 9 -17035768.14548  20620185.176    20620192.3784
  21462395.209   -14744985.488 8 -11466424.04247  21462399.601    21462409.3964
  21557604.553   -17634089.954 8 -13731109.42247  21557605.668    21557614.5664
  22890883.049    -5635319.964 8  -4157746.01046  22890885.247    22890894.6324
 00  6  7  1 10  0.0000000  0  8 09 25 05 21 29 15 23 30
  23566747.771    -3976215.641 7  -3075503.24345  23566752.137    23566760.9384
  23308808.185    -8998124.174 8  -6976580.70246  23308813.032    23308822.3834
  22432881.708   -11128043.811 8  -8657344.59846  22432885.265    22432894.0654
  20182945.874   -25402069.556 9 -19776273.69248  20182947.376    20182955.0794
  20617251.439   -21903290.411 9 -17047774.54748  20617253.180    20617260.2974
  21466873.475   -14721462.325 8 -11448094.31847  21466875.656    21466885.8314
  21569225.324   -17573009.764 8 -13683514.51747  21569228.778    21569238.0214
  22875248.952    -5717462.450 8  -4221753.07946  22875254.328    22875264.1244
 00  6  7  1 10 30.0000000  0  9 11 09 25 05 21 29 15 23 30
  24576677.668    -1596999.19817  -1228211.22055  24576680.432    24576691.1024
  23586637.147    -3871723.975 7  -2994081.28345  23586636.048    23586646.5144
  23291354.891    -9089860.517 8  -7048063.44646  23291356.502    23291365.7474
  22428773.471   -11149644.863 8  -8674176.54346  22428775.234    22428784.1364
  20179272.834   -25421371.652 9 -19791314.27748  20179274.776    20179281.9294
  20614355.933   -21918494.117 9 -17059621.56948  20614359.921    20614367.0194
  21471466.707   -14697326.402 8 -11429287.11747  21471469.365    21471478.3904
  21580924.881   -17511542.902 8 -13635618.31747  21580925.823    21580934.3844
  22859676.455    -5799327.107 8  -4285543.65746  22859677.267    22859685.6984
 00  6  7  1 11  0.0000000  0  9 11 09 25 05 21 29 15 23 30
  24564743.822    -1659730.935 7  -1277093.04445  24564743.633    24564754.0634
  23606537.426    -3767090.476 7  -2912548.73845  23606549.020    23606556.3794
  23273931.916    -9181376.445 8  -7119374.43846  23273941.084    23273951.3334
  22424763.781   -11170710.514 8  -8690591.29546  22424766.674    22424775.2754
  20175691.582   -25440188.144 9 -19805976.46448  20175693.810    20175701.2064
  20611503.218   -21933493.525 9 -17071309.38948  20611505.331    20611512.6274
  21476177.831   -14672579.047 9 -11410003.46447  21476179.257    21476187.3394
  21592696.488   -17449689.873 9 -13587421.19447  21592696.382    21592705.3604
  22844149.482    -5880910.790 8  -4349115.30046  22844151.924    22844160.9134
 00  6  7  1 11 30.0000000  0  9 11 09 25 05 21 29 15 23 30
  24552882.169    -1722035.758 7  -1325642.19145  24552886.486    24552899.9954
  23626481.119    -3662317.620 7  -2830907.64145  23626485.395    23626494.8314
  23256567.930    -9272670.469 8  -7190512.50746  23256567.204    23256578.7184
  22420852.962   -11191239.459 8  -8706587.83046  22420859.518    22420868.2614
  20172204.219   -25458517.666 9 -19820259.20048  20172205.900    20172213.4754
  20608687.445   -21948288.412 9 -17082837.84748  20608689.697    20608697.3904
  21480999.784   -14647221.375 9 -11390244.22947  21481004.084    21481012.8764
  21604536.942   -17387451.391 8 -13538923.71147  21604540.151    21604548.3844
  22828680.585    -5962210.355 8  -4412465.52946  22828680.132    22828690.3964
 00  6  7  1 12  0.0000000  0  9 11 09 25 05 21 29 15 23 30
  24541114.754    -1783911.570 7  -1373857.10045  24541113.399    24541122.3184
  23646450.761    -3557407.873 7  -2749159.86345  23646448.992    23646459.2574
  23239235.335    -9363741.102 8  -7261476.49546  23239236.920    23239248.6504
  22417052.521   -11211230.249 8  -8722165.02146  22417055.404    22417064.0484
  20168807.903   -25476358.601 9 -19834161.22048  20168810.855    20168818.5094
  20605909.583   -21962878.742 9 -17094206.91848  20605913.315    20605921.0054
  21485940.461   -14621254.866 8 -11370010.58347  21485944.873    21485954.2674
  21616456.018   -17324827.885 8 -13490126.18147  21616456.637    21616465.9974
  22813257.774    -6043222.877 8  -4475592.10746  22813263.936    22813273.0494
 00  6  7  1 12 30.0000000  0  9 11 09 25 05 21 29 15 23 30
  24529417.001    -1845356.931 7  -1421736.54345  24529421.733    24529432.7404
  23666436.825    -3452363.570 7  -2667307.23245  23666439.162    23666448.0424
  23221948.632    -9454587.547 8  -7332265.79946  23221949.324    23221960.2914
  22413354.396   -11230681.466 8  -8737321.75946  22413354.435    22413362.9044
  20165507.178   -25493708.764 9 -19847680.81548  20165508.924    20165516.9764
  20603172.244   -21977264.646 9 -17105416.69048  20603175.546    20603183.5194
  21491000.003   -14594680.966 9 -11349303.65147  21491002.114    21491011.5624
  21628443.264   -17261820.045 8 -13441029.22847  21628446.561    21628455.8474
  22797902.622    -6123945.310 8  -4538492.64746  22797903.255    22797912.8574
 00  6  7  1 13  0.0000000  0  9 11 09 25 05 21 29 15 23 30
  24517800.227    -1906369.789 7  -1469278.95145  24517810.119    24517820.8594
  23686455.953    -3347187.246 8  -2585351.70045  23686454.310    23686462.6514
  23204700.121    -9545208.139 8  -7402879.14946  23204705.166    23204715.2934
  22409755.344   -11249591.964 8  -8752057.17846  22409755.817    22409764.5464
  20162297.070   -25510567.214 9 -19860817.26648  20162300.937    20162308.5434
  20600474.414   -21991446.095 9 -17116467.14748  20600476.771    20600484.4474
  21496172.198   -14567500.973 9 -11328124.42547  21496174.412    21496182.9284
  21640502.791   -17198428.472 8 -13391633.24647  21640509.494    21640519.0024
  22782591.970    -6204374.488 8  -4601164.70546  22782597.750    22782607.6924
 00  6  7  1 13 30.0000000  0  9 11 09 25 05 21 29 15 23 30
  24506278.002    -1966948.254 7  -1516482.89245  24506283.161    24506294.8004
  23706491.631    -3241881.057 7  -2503294.98345  23706493.062    23706501.3084
  23187498.907    -9635601.329 8  -7473315.27946  23187504.643    23187514.3714
  22406255.039   -11267960.534 8  -8766370.34446  22406260.292    22406269.0534
  20159183.736   -25526932.161 9 -19873569.16148  20159186.657    20159194.5424
  20597814.985   -22005422.793 9 -17127358.04348  20597817.087    20597824.7064
  21501460.672   -14539716.539 9 -11306474.20647  21501461.773    21501470.7594
  21652640.810   -17134653.757 8 -13341938.72047  21652645.425    21652654.6964
  22767348.231    -6284507.291 8  -4663605.77946  22767348.640    22767358.1224
 00  6  7  1 14  0.0000000  0  9 11 09 25 05 21 29 15 23 30
  24494834.040    -2027090.792 7  -1563347.14445  24494837.808    24494848.4494
  23726561.108    -3136447.530 7  -2421139.08645  23726555.512    23726565.9584
  23170345.565    -9725765.670 8  -7543573.12046  23170347.204    23170355.6984
  22402865.460   -11285785.731 8  -8780260.09646  22402867.916    22402877.3104
  20156165.554   -25542801.674 9 -19885935.00848  20156166.780    20156174.6954
  20595193.312   -22019194.946 9 -17138089.57148  20595196.464    20595203.9364
  21506860.664   -14511328.978 9 -11284354.02647  21506863.315    21506872.4244
  21664851.789   -17070496.589 8 -13291946.17047  21664854.183    21664863.3614
  22752149.534    -6364340.444 8  -4725813.37846  22752157.114    22752166.5554
 00  6  7  1 14 30.0000000  0  9 11 09 25 05 21 29 15 23 30
  24483469.851    -2086795.664 7  -1609870.33745  24483476.508    24483487.3634
  23746649.271    -3030889.110 8  -2338885.85345  23746645.813    23746653.4504
  23153229.386    -9815700.455 8  -7613652.07446  23153233.797    23153241.9904
  22399580.050   -11303066.485 8  -8793725.57046  22399579.565    22399588.6064
  20153238.191   -25558174.222 9 -19897913.60948  20153241.635    20153249.3234
  20592611.263   -22032762.337 9 -17148661.53048  20592614.896    20592622.1264
  21512377.437   -14482339.657 8 -11261764.92747  21512379.668    21512389.4874
  21677133.077   -17005957.442 8 -13241655.97247  21677135.775    21677144.8394
  22737023.185    -6443870.924 8  -4787785.11146  22737023.666    22737032.0974
 00  6  7  1 15  0.0000000  0  9 11 09 25 05 21 29 15 23 30
  24472197.566    -2146060.946 7  -1656050.99445  24472199.585    24472211.0494
  23766748.791    -2925208.309 8  -2256537.23545  23766754.671    23766763.0534
  23136162.287    -9905403.843 8  -7683550.68846  23136163.046    23136171.6164
  22396394.444   -11319801.637 8  -8806765.90846  22396395.571    22396404.3014
  20150407.383   -25573048.063 9 -19909503.60848  20150411.209    20150418.9834
  20590069.922   -22046124.962 9 -17159073.93348  20590072.354    20590079.3824
  21518007.832   -14452750.020 8 -11238708.04747  21518010.035    21518019.9154
  21689490.635   -16941036.991 8 -13191068.64647  21689490.276    21689498.7774
  22721946.980    -6523095.736 8  -4849518.67946  22721947.718    22721956.0384
 00  6  7  1 15 30.0000000  0  9 11 09 25 05 21 29 15 23 30
  24461003.686    -2204885.337 7  -1701888.09445  24461003.350    24461014.4364
  23786880.824    -2819407.228 8  -2174094.86845  23786888.652    23786895.5754
  23119137.215    -9994874.339 8  -7753267.85346  23119137.425    23119145.8654
  22393310.505   -11335989.981 8  -8819380.16746  22393314.273    22393323.3714
  20147674.743   -25587422.083 9 -19920704.13148  20147675.881    20147683.8914
  20587564.017   -22059282.922 9 -17169326.87048  20587568.262    20587575.1504
  21523751.943   -14422562.034 8 -11215184.92947  21523754.845    21523763.8384
  21701911.438   -16875735.898 8 -13140184.72047  21701916.273    21701925.0614
  22706929.765    -6602011.885 8  -4911011.70846  22706929.854    22706938.1724
 00  6  7  1 16  0.0000000  0  9 11 09 25 05 21 29 15 23 30
  24449887.823    -2263266.566 7  -1747379.89045  24449895.418    24449905.8374
  23807049.423    -2713488.316 8  -2091560.70845  23807043.573    23807052.1954
  23102153.486   -10084110.548 8  -7822802.45946  23102155.939    23102164.9914
  22390338.947   -11351630.377 8  -8831567.44346  22390338.401    22390347.5694
  20145033.387   -25601294.630 9 -19931513.89748  20145036.037    20145043.7824
  20585101.228   -22072236.157 9 -17179420.27348  20585103.623    20585110.3164
  21529610.294   -14391777.189 8 -11191196.74347  21529612.828    21529622.0004
  21714411.304   -16810054.859 8 -13089004.71747  21714415.138    21714423.7824
  22691968.940    -6680616.167 8  -4972261.70746  22691972.595    22691980.3024
 00  6  7  1 16 30.0000000  0  9 11 09 25 05 21 29 15 23 30
  24438864.862    -2321203.227 7  -1792525.24345  24438869.660    24438879.6164
  23827212.338    -2607453.988 7  -2008936.58445  23827222.866    23827229.6664
  23085214.115   -10173111.525 8  -7892153.74746  23085218.655    23085229.0794
  22387467.138   -11366721.841 8  -8843326.98646  22387466.711    22387475.3444
  20142490.143   -25614664.040 9 -19941931.60848  20142492.153    20142499.6644
  20582674.360   -22084984.544 9 -17189354.06548  20582677.457    20582684.0544
  21535581.995   -14360397.013 8 -11166744.65947  21535584.875    21535593.5494
  21726981.386   -16743994.473 8 -13037529.11747  21726985.566    21726994.8234
  22677073.437    -6758905.449 8  -5033266.27846  22677074.798    22677081.9344
 00  6  7  1 17  0.0000000  0  9 11 09 25 05 21 29 15 23 30
  24427927.688    -2378693.533 8  -1837322.79245  24427930.790    24427940.2264
  23847423.680    -2501306.874 7  -1926224.62345  23847420.992    23847429.6264
  23068326.240   -10261875.927 8  -7961320.68346  23068327.904    23068338.1324
  22384699.259   -11381263.198 8  -8854657.89146  22384699.614    22384708.4694
  20140041.628   -25627528.687 9 -19951955.98848  20140043.808    20140051.4494
  20580287.257   -22097528.021 9 -17199128.18148  20580290.447    20580297.5504
  21541666.223   -14328423.226 8 -11141830.00347  21541669.559    21541678.5184
  21739628.350   -16677555.509 8 -12985758.51847  21739628.445    21739637.7714
  22662229.350    -6836876.924 8  -5094023.18646  22662236.337    22662244.8164
 00  6  7  1 17 30.0000000  0  9 11 09 25 05 21 29 15 23 30
  24417073.822    -2435735.791 8  -1881771.19045  24417075.160    24417085.5724
  23867624.474    -2395049.155 7  -1843426.48045  23867640.697    23867649.8474
  23051480.488   -10350402.575 8  -8030302.39046  23051481.377    23051491.0294
  22382034.498   -11395253.427 8  -8865559.33746  22382036.554    22382046.0084
  20137689.994   -25639887.198 9 -19961585.98148  20137691.812    20137699.6734
  20577939.536   -22109866.421 9 -17208742.49548  20577942.702    20577950.0014
  21547865.431   -14295857.328 9 -11116453.97347  21547867.182    21547876.0694
  21752338.047   -16610738.788 8 -12933693.57447  21752343.460    21752352.7454
  22647456.147    -6914527.585 8  -5154530.10546  22647459.235    22647468.8914
 00  6  7  1 18  0.0000000  0  9 11 09 25 05 21 29 15 23 30
  24406300.322    -2492328.450 7  -1925869.28245  24406305.561    24406313.5704
  23887882.165    -2288683.282 7  -1760544.02545  23887880.600    23887890.6154
  23034682.276   -10438689.959 8  -8099097.66146  23034681.673    23034691.0764
  22379475.175   -11408691.457 8  -8876030.50046  22379479.782    22379489.0974
  20135434.345   -25651737.876 9 -19970820.25948  20135436.833    20135444.5654
  20575631.599   -22121999.885 9 -17218197.12448  20575633.647    20575640.9954
  21554173.852   -14262700.999 9 -11090617.87947  21554176.624    21554185.4144
  21765125.261   -16543545.050 8 -12881334.83147  21765129.997    21765138.7824
  22632745.556    -6991854.125 8  -5214784.45546  22632745.193    22632753.8614
 00  6  7  1 18 30.0000000  0  9 11 09 25 05 21 29 15 23 30
  24395620.308    -2548469.896 7  -1969615.82145  24395622.154    24395631.4804
  23908134.470    -2182211.344 7  -1677578.92945  23908142.161    23908152.4324
  23017923.006   -10526736.889 8  -8167705.54446  23017927.066    23017935.5134
  22377024.107   -11421576.317 8  -8886070.63546  22377028.070    22377036.9414
  20133276.686   -25663079.527 9 -19979657.89348  20133278.674    20133286.5284
  20573359.303   -22133928.146 9 -17227491.85448  20573363.676    20573371.1524
  21560594.041   -14228956.144 8 -11064323.18347  21560596.926    21560606.2314
  21777986.728   -16475975.030 8 -12828682.90647  21777988.082    21777997.1464
  22618091.404    -7068853.421 8  -5274783.80946  22618092.470    22618101.1574
 00  6  7  1 19  0.0000000  0  9 11 09 25 05 21 29 15 23 30
  24385017.475    -2604158.543 7  -2013009.50245  24385024.471    24385033.9174
  23928423.610    -2075635.600 7  -1594532.94545  23928424.007    23928431.9124
  23001215.060   -10614541.761 8  -8236124.85146  23001218.732    23001226.0244
  22374681.595   -11433907.078 8  -8895679.01146  22374681.598    22374690.5164
  20131214.245   -25673910.584 9 -19988097.65948  20131217.527    20131225.3654
  20571131.272   -22145651.344 9 -17236626.80448  20571132.999    20571140.4404
  21567127.430   -14194624.473 8 -11037571.22747  21567129.613    21567138.8164
  21790914.739   -16408029.428 8 -12775738.32747  21790918.058    21790926.8354
  22603496.439    -7145522.716 8  -5334526.02646  22603502.980    22603511.7774
 00  6  7  1 19 30.0000000  0  9 11 09 25 05 21 29 15 23 30
  24374511.933    -2659392.394 7  -2056048.83345  24374516.054    24374522.6324
  23948715.391    -1968958.498 7  -1511407.99245  23948720.696    23948733.6714
  22984552.219   -10702103.333 8  -8304354.56346  22984555.091    22984563.1044
  22372440.191   -11445682.348 8  -8904854.49646  22372440.710    22372449.0564
  20129251.127   -25684229.865 9 -19996138.64348  20129253.955    20129261.6554
  20568938.759   -22157169.233 9 -17245601.76748  20568941.034    20568948.6944
  21573770.718   -14159707.691 8 -11010363.34447  21573773.736    21573783.5114
  21803915.581   -16339709.187 8 -12722501.81347  21803919.437    21803928.1324
  22588974.946    -7221858.791 8  -5394008.57946  22588977.085    22588985.3584
 00  6  7  1 20  0.0000000  0  9 11 09 25 05 21 29 15 23 30
  24364092.665    -2714170.075 8  -2098732.73445  24364092.293    24364100.4494
  23969035.937    -1862182.333 7  -1428205.83045  23969040.996    23969052.1414
  22967933.579   -10789420.601 8  -8372393.89946  22967939.310    22967947.7854
  22370302.198   -11456901.430 8  -8913596.62146  22370305.691    22370314.0904
  20127384.412   -25694035.671 9 -20003779.51748  20127388.000    20127395.5814
  20566784.613   -22168481.859 9 -17254416.79348  20566788.058    20566795.6804
  21580525.164   -14124207.611 8 -10982700.95547  21580529.290    21580539.4454
  21816988.769   -16271014.856 8 -12668973.78947  21816991.422    21817000.2864
  22574511.936    -7297858.610 8  -5453229.14046  22574514.784    22574523.3094
 00  6  7  1 20 30.0000000  0  9 11 09 25 05 21 29 15 23 30
  24353747.447    -2768490.243 7  -2141060.03845  24353753.832    24353763.4204
  23989378.749    -1755309.447 7  -1344928.32345  23989377.778    23989390.5094
  22951369.674   -10876492.481 8  -8440242.00446  22951369.161    22951377.7074
  22368276.010   -11467563.484 8  -8921904.71846  22368276.732    22368286.0054
  20125617.385   -25703326.973 9 -20011019.47248  20125620.008    20125627.3594
  20564671.154   -22179588.878 9 -17263071.60248  20564674.291    20564682.2654
  21587392.885   -14088125.827 8 -10954585.28147  21587395.641    21587404.5684
  21830133.132   -16201947.161 8 -12615154.82647  21830134.459    21830143.5394
  22560115.446    -7373519.147 8  -5512185.31146  22560116.585    22560125.2204
 00  6  7  1 21  0.0000000  0  9 11 09 25 05 21 29 15 23 30
  24343491.074    -2822351.022 7  -2183029.42345  24343502.589    24343514.3864
  24009727.750    -1648342.131 7  -1261577.22045  24009733.587    24009745.1194
  22934845.634   -10963317.509 8  -8507897.73746  22934847.334    22934855.5904
  22366345.715   -11477667.563 8  -8929778.01646  22366353.547    22366363.2294
  20123947.668   -25712102.359 9 -20017857.41048  20123949.843    20123957.5414
  20562597.923   -22190490.435 9 -17271566.31048  20562599.942    20562607.8454
  21594369.241   -14051464.283 8 -10926017.85647  21594372.059    21594381.4724
  21843345.810   -16132507.160 8 -12561045.76547  21843348.856    21843357.4194
  22545782.118    -7448837.584 8  -5570874.91146  22545783.082    22545792.2124
 00  6  7  1 21 30.0000000  0  9 11 09 25 05 21 29 15 23 30
  24333340.686    -2875751.108 7  -2224639.83145  24333341.926    24333353.7064
  24030100.562    -1541282.410 7  -1178154.12945  24030107.111    24030117.3024
  22918369.821   -11049894.486 8  -8575360.21846  22918372.231    22918380.4044
  22364536.158   -11487212.763 8  -8937215.83646  22364537.123    22364546.4414
  20122376.208   -25720359.665 9 -20024291.65248  20122378.363    20122386.3154
  20560561.784   -22201186.267 9 -17279900.72048  20560564.671    20560571.9534
  21601455.964   -14014224.848 8 -10897000.11247  21601458.553    21601468.1284
  21856631.915   -16062695.677 8 -12506647.24047  21856633.944    21856641.8554
  22531516.007    -7523810.839 8  -5629295.56246  22531516.407    22531524.8324
 00  6  7  1 22  0.0000000  0  9 11 09 25 05 21 29 15 23 30
  24323249.135    -2928689.004 7  -2265890.05645  24323265.262    24323280.1964
  24050496.703    -1434132.775 8  -1094660.98145  24050496.470    24050507.0444
  22901940.915   -11136222.273 8  -8642628.51146  22901944.364    22901953.3694
  22362821.809   -11496198.503 8  -8944217.72346  22362827.442    22362835.9274
  20120902.737   -25728097.488 9 -20030321.10248  20120906.035    20120913.7554
  20558565.370   -22211676.416 9 -17288074.84748  20558568.700    20558575.7734
  21608652.172   -13976409.539 8 -10867533.65147  21608655.044    21608665.0514
  21869986.232   -15992513.627 8 -12451959.96547  21869988.796    21869997.0084
  22517316.308    -7598436.115 8  -5687445.04146  22517315.544    22517324.5364
 00  6  7  1 22 30.0000000  0  9 11 09 25 05 21 29 15 23 30
  24313281.196    -2981163.033 7  -2306778.87545  24313281.026    24313293.2834
  24070893.462    -1326895.591 8  -1011099.57845  24070903.197    24070914.6904
  22885558.664   -11222299.372 8  -8709701.49446  22885563.744    22885573.2894
  22361221.004   -11504623.807 8  -8950782.90946  22361224.608    22361233.7554
  20119529.070   -25735314.796 9 -20035944.95748  20119532.406    20119540.3434
  20556608.226   -22221960.751 9 -17296088.60448  20556611.747    20556618.4654
  21615957.071   -13938020.233 8 -10837619.90947  21615959.826    21615970.0554
  21883410.399   -15921961.774 8 -12396984.53047  21883413.837    21883422.4444
  22503177.471    -7672710.277 8  -5745320.93046  22503181.699    22503190.4604
 00  6  7  1 23  0.0000000  0  9 11 09 25 05 21 29 15 23 30
  24303373.162    -3033171.717 7  -2347305.09445  24303384.538    24303399.2954
  24091320.927    -1219573.086 8   -927471.71845  24091325.459    24091336.5354
  22869229.789   -11308124.808 8  -8776578.37646  22869231.461    22869241.5124
  22359724.458   -11512487.793 8  -8956910.68446  22359727.321    22359737.0994
  20118256.369   -25742010.567 9 -20041162.42048  20118258.672    20118266.3524
  20554690.433   -22232039.177 9 -17303941.91448  20554693.624    20554700.8214
  21623372.300   -13899058.741 8 -10807260.31747  21623374.369    21623383.5574
  21896908.423   -15851040.983 8 -12341721.60847  21896909.624    21896918.4534
  22489111.870    -7746630.073 8  -5802920.70646  22489115.104    22489123.4614
 00  6  7  1 23 30.0000000  0  9 11 09 25 05 21 29 15 23 30
  24293579.469    -3084713.596 7  -2387467.55845  24293577.490    24293588.6764
  24111758.783    -1112167.404 8   -843779.04945  24111762.972    24111775.8584
  22852943.505   -11393696.997 8  -8843257.92746  22852947.888    22852957.1904
  22358336.730   -11519789.895 8  -8962600.61046  22358337.921    22358347.6604
  20117081.537   -25748183.357 9 -20045972.37148  20117083.992    20117091.5704
  20552812.683   -22241911.367 9 -17311634.53248  20552815.188    20552821.9794
  21630894.732   -13859526.945 8 -10776456.33247  21630897.243    21630905.6434
  21910473.446   -15779752.073 8 -12286171.82447  21910475.616    21910484.4924
  22475114.153    -7820192.799 8  -5860242.22946  22475117.325    22475125.1784
 00  6  7  1 24  0.0000000  0  9 11 09 25 05 21 29 15 23 30
  24283856.462    -3135787.198 7  -2427265.09645  24283859.496    24283870.7384
  24132212.920    -1004680.861 7   -760023.36545  24132217.668    24132229.6894
  22836708.002   -11479015.101 8  -8909739.45446  22836712.678    22836721.5434
  22357050.830   -11526529.238 8  -8967852.05946  22357056.247    22357064.5344
  20116007.984   -25753832.334 9 -20050374.15548  20116008.966    20116016.5114
  20550973.598   -22251577.598 9 -17319166.65748  20550975.575    20550982.6634
  21638524.743   -13819426.867 8 -10745209.52047  21638528.186    21638536.5024
  21924113.425   -15708096.096 8 -12230336.01247  21924111.059    21924120.5654
  22461186.332    -7893395.458 8  -5917283.19746  22461186.927    22461194.9784
 00  6  7  1 24 30.0000000  0  9 11 09 25 05 21 29 15 23 30
  24274225.771    -3186391.061 7  -2466696.60945  24274231.324    24274240.9014
  24152679.894     -897115.547 8   -676206.31945  24152686.344    24152698.0504
  22820525.720   -11564078.053 8  -8976022.16846  22820525.656    22820533.8284
  22355877.456   -11532704.969 8  -8972664.32046  22355880.651    22355889.4804
  20115030.642   -25758955.539 9 -20054366.25048  20115034.072    20115041.6184
  20549171.997   -22261037.571 9 -17326538.05848  20549175.225    20549182.6264
  21646261.698   -13778760.615 8 -10713521.52447  21646266.099    21646274.8274
  21937813.724   -15636073.869 8 -12174214.79647  21937816.539    21937825.6874
  22447321.596    -7966235.075 8  -5974041.27046  22447325.444    22447334.0884
 00  6  7  1 25  0.0000000  0  9 11 09 25 05 21 29 15 23 30
  24264683.145    -3236523.826 7  -2505761.07745  24264689.880    24264698.9364
  24173158.691     -789473.813 7   -592329.72645  24173169.065    24173182.5734
  22804385.011   -11648884.258 8  -9042104.82246  22804388.336    22804396.7064
  22354808.698   -11538316.488 8  -8977036.94746  22354811.987    22354821.3284
  20114155.981   -25763552.304 9 -20057948.12848  20114159.153    20114166.8764
  20547411.919   -22270290.998 9 -17333748.51548  20547414.340    20547421.8194
  21654109.542   -13737530.252 8 -10681393.96647  21654112.894    21654121.4704
  21951589.100   -15563686.296 8 -12117808.91047  21951591.381    21951600.7984
  22433527.102    -8038708.724 8  -6030514.19046  22433533.857    22433543.0954
 00  6  7  1 25 30.0000000  0  9 11 09 25 05 21 29 15 23 30
  24255241.723    -3286184.101 7  -2544457.29744  24255240.939    24255250.0154
  24193663.106     -681757.770 8   -508395.24045  24193667.259    24193679.5394
  22788293.594   -11733432.880 8  -9107986.75446  22788299.604    22788307.8394
  22353852.217   -11543363.120 8  -8980969.38846  22353852.259    22353861.4324
  20113383.918   -25767621.007 9 -20061118.53848  20113384.741    20113392.4414
  20545689.636   -22279337.913 9 -17340798.05948  20545692.871    20545700.4354
  21662062.967   -13695737.759 8 -10648828.39647  21662065.774    21662073.7774
  21965430.939   -15490934.239 8 -12061119.00647  21965435.971    21965444.6184
  22419807.141    -8110813.484 8  -6086699.63646  22419812.715    22419821.9864
 00  6  7  1 26  0.0000000  0  9 11 09 25 05 21 29 15 23 30
  24245878.494    -3335370.399 7  -2582784.25744  24245880.055    24245888.0364
  24214175.643     -573969.757 7   -424404.63245  24214178.401    24214191.1024
  22772259.141   -11817722.341 8  -9173666.74146  22772259.185    22772267.8764
  22352999.367   -11547844.080 8  -8984461.07546  22352999.938    22353008.2554
  20112707.934   -25771160.060 9 -20063876.23148  20112711.180    20112718.9924
  20544009.340   -22288178.174 9 -17347686.57448  20544010.409    20544017.7894
  21670122.556   -13653385.288 8 -10615826.48447  21670124.785    21670133.6414
  21979349.043   -15417818.818 8 -12004146.00647  21979349.532    21979358.6834
  22406161.475    -8182546.622 8  -6142595.54346  22406162.765    22406171.6974
 00  6  7  1 26 30.0000000  0  9 11 09 25 05 21 29 15 23 30
  24236600.972    -3384081.386 7  -2620740.80045  24236610.756    24236621.1754
  24234699.751     -466111.649 8   -340359.43245  24234702.914    24234716.0044
  22756267.880   -11901751.663 8  -9239144.00946  22756268.455    22756277.3604
  22352249.124   -11551758.772 8  -8987511.50146  22352254.688    22352263.6554
  20112134.948   -25774168.547 9 -20066220.49948  20112138.995    20112146.7214
  20542364.197   -22296811.405 9 -17354413.76448  20542367.442    20542375.1284
  21678288.927   -13610474.724 8 -10582389.69147  21678290.294    21678299.5054
  21993331.110   -15344340.891 8 -11946890.53147  21993332.249    21993340.3574
  22392583.239    -8253904.870 8  -6198199.30446  22392583.605    22392591.9084
 00  6  7  1 27  0.0000000  0  9 11 09 25 05 21 29 15 23 30
  24227434.517    -3432315.530 7  -2658325.82145  24227431.235    24227439.6934
  24255239.298     -358185.851 8   -256261.45745  24255241.032    24255252.3614
  22740327.497   -11985519.620 8  -9304417.64546  22740327.440    22740336.6034
  22351613.909   -11555106.622 8  -8990120.24946  22351617.772    22351625.6294
  20111665.457   -25776645.153 9 -20068150.31348  20111667.597    20111675.4244
  20540763.051   -22305237.810 9 -17360979.78848  20540764.459    20540771.5874
  21686558.526   -13567008.303 8 -10548519.75847  21686561.417    21686570.4684
  22007380.875   -15270501.473 8 -11889353.36247  22007383.158    22007391.7064
  22379071.612    -8324885.206 8  -6253508.58946  22379076.110    22379084.5604
 00  6  7  1 27 30.0000000  0  9 11 09 25 05 21 29 15 23 30
  24218341.583    -3480071.780 7  -2695538.41145  24218343.755    24218352.5964
  24275784.759     -250194.651 8   -172112.57645  24275791.800    24275802.5484
  22724439.129   -12069025.432 8  -9369487.00146  22724436.558    22724445.5974
  22351084.565   -11557887.100 8  -8992286.87446  22351088.833    22351097.2784
  20111295.334   -25778589.148 9 -20069665.10648  20111297.748    20111305.2594
  20539196.123   -22313456.981 9 -17367384.33548  20539200.270    20539207.4554
  21694937.245   -13522988.007 8 -10514218.24447  21694938.426    21694947.1514
  22021500.437   -15196301.650 8 -11831535.39047  22021502.761    22021511.6954
  22365639.544    -8395485.136 8  -6308521.44746  22365642.354    22365650.2004
 00  6  7  1 28  0.0000000  0  9 11 09 25 05 21 29 15 23 30
  24209338.750    -3527348.467 7  -2732377.34945  24209347.275    24209356.8564
  24296348.509     -142139.867 8    -87914.11945  24296353.095    24296364.7194
  22708591.623   -12152267.779 8  -9434351.06746  22708596.234    22708604.9034
  22350671.435   -11560099.650 8  -8994010.95646  22350668.144    22350676.8614
  20111026.306   -25779999.275 9 -20070763.90048  20111029.286    20111036.8934
  20537672.851   -22321469.000 9 -17373627.46448  20537675.910    20537682.9194
  21703416.072   -13478416.101 8 -10479486.90947  21703419.839    21703429.3924
  22035689.066   -15121742.401 8 -11773437.33046  22035691.143    22035699.4574
  22352279.084    -8465701.585 8  -6363235.50246  22352280.756    22352288.1754
 00  6  7  1 28 30.0000000  0  9 11 09 25 05 21 29 15 23 30
  24200441.432    -3574144.338 8  -2768841.60345  24200443.803    24200450.0244
  24316926.759      -34023.824 8     -3667.93245  24316927.759    24316939.4174
  22692801.663   -12235245.409 8  -9499008.86246  22692806.740    22692814.3864
  22350354.991   -11561743.811 8  -8995292.14346  22350354.723    22350363.9344
  20110860.407   -25780874.229 9 -20071445.67748  20110863.022    20110870.4614
  20536188.064   -22329273.468 9 -17379708.85648  20536190.664    20536197.7884
  21712004.363   -13433294.734 8 -10444327.41447  21712006.349    21712015.7204
  22049940.457   -15046824.569 8 -11715059.84546  22049946.971    22049956.1334
  22338990.800    -8535531.781 8  -6417648.57346  22338992.202    22339000.1404
 00  6  7  1 29  0.0000000  0  9 11 09 25 05 21 29 15 23 30
  24191630.264    -3620458.388 8  -2804930.44145  24191630.477    24191639.5224
  24337508.071       74151.080 8     80623.94145  24337512.501    24337523.2844
  22677065.846   -12317957.519 8  -9563459.75646  22677066.604    22677075.4434
  22350143.163   -11562818.955 8  -8996129.94346  22350150.529    22350159.7374
  20110796.908   -25781212.786 9 -20071709.47948  20110798.722    20110806.0884
  20534739.971   -22336870.479 9 -17385628.59548  20534744.651    20534752.1824
  21720692.259   -13387625.922 8 -10408741.33947  21720696.902    21720705.8874
  22064266.628   -14971549.175 8 -11656403.76146  22064271.076    22064280.6724
  22325779.487    -8604972.706 8  -6471758.32747  22325777.764    22325785.8574
 00  6  7  1 29 30.0000000  0  9 11 09 25 05 21 29 15 23 30
  24182905.156    -3666289.340 8  -2840642.80845  24182908.418    24182917.4454
  24358105.016      182383.334 8    164960.76345  24358109.027    24358119.3004
  22661376.324   -12400402.918 8  -9627702.83246  22661377.493    22661386.9774
  22350050.714   -11563324.583 8  -8996523.98146  22350054.864    22350063.1644
  20110832.716   -25781014.407 9 -20071554.88948  20110836.281    20110843.9324
  20533336.528   -22344259.698 9 -17391386.42648  20533338.492    20533346.1154
  21729487.124   -13341411.802 8 -10372730.34447  21729491.124    21729500.1694
  22078662.923   -14895917.368 8 -11597469.93846  22078663.818    22078673.0394
  22312634.814    -8674021.552 8  -6525562.54946  22312637.339    22312646.6614
 00  6  7  1 30  0.0000000  0  9 11 09 25 05 21 29 15 23 30
  24174272.110    -3711635.836 7  -2875977.72345  24174277.374    24174288.5084
  24378713.347      290670.311 8    249340.26945  24378714.789    24378725.9864
  22645734.433   -12482580.217 8  -9691736.98446  22645739.395    22645749.9614
  22350062.242   -11563260.498 8  -8996474.07946  22350066.583    22350075.5744
  20110972.990   -25780277.735 9 -20070980.85948  20110976.481    20110984.1464
  20531967.991   -22351440.926 9 -17396982.17748  20531971.934    20531979.3734
  21738386.848   -13294654.889 8 -10336296.40847  21738388.946    21738397.3764
  22093120.362   -14819930.228 8 -11538259.23646  22093124.026    22093133.4054
  22299571.014    -8742675.204 8  -6579058.84346  22299573.342    22299582.3624
 00  6  7  1 30 30.0000000  0  9 11 09 25 05 21 29 15 23 30
  24165738.991    -3756496.668 7  -2910934.14045  24165742.638    24165751.2134
  24399331.749      399009.977 8    333760.69545  24399332.169    24399341.9954
  22630152.232   -12564488.488 8  -9755561.49946  22630153.564    22630163.4024
  22350186.095   -11562626.163 8  -8995979.81646  22350186.811    22350195.6414
  20111217.384   -25779001.458 9 -20069986.35248  20111219.448    20111226.8364
  20530641.955   -22358414.155 9 -17402415.85248  20530645.212    20530652.3924
  21747386.690   -13247357.738 8 -10299441.48947  21747389.283    21747398.5144
  22107652.970   -14743588.868 8 -11478772.53146  22107651.037    22107660.0854
  22286586.359    -8810931.257 8  -6632245.31147  22286585.174    22286593.8694
 00  6  7  1 31  0.0000000  0  9 11 09 25 05 21 29 15 23 30
  24157291.232    -3800870.414 7  -2945511.01645  24157297.003    24157306.3334
  24419959.636      507400.519 8    418220.78045  24419958.403    24419967.9764
  22614616.702   -12646126.590 8  -9819175.49346  22614618.479    22614627.8184
  22350415.494   -11561421.144 8  -8995040.87346  22350416.099    22350426.0284
  20111562.001   -25777184.229 9 -20068570.32448  20111565.162    20111572.7694
  20529355.104   -22365179.042 9 -17407687.17448  20529357.903    20529365.1424
  21756490.795   -13199522.448 8 -10262167.25347  21756492.357    21756500.9104
  22122242.597   -14666894.218 8 -11419010.54846  22122245.508    22122255.2284
  22273667.263    -8878786.611 8  -6685119.55446  22273672.496    22273680.4434
 00  6  7  1 31 30.0000000  0  9 11 09 25 05 21 29 15 23 30
  24148942.672    -3844756.215 7  -2979707.66645  24148944.695    24148955.0674
  24440592.290      615839.672 8    502718.73345  24440593.829    24440604.5664
  22599127.643   -12727493.535 8  -9882578.17946  22599134.481    22599143.6554
  22350750.946   -11559644.825 8  -8993656.75946  22350754.212    22350763.7304
  20112011.283   -25774825.615 9 -20066732.44248  20112013.906    20112021.7614
  20528107.739   -22371735.460 9 -17412796.05248  20528110.522    20528117.4044
  21765696.467   -13151151.169 8 -10224475.37747  21765696.575    21765705.3184
  22136909.513   -14589847.486 8 -11358974.20246  22136907.043    22136915.8814
  22260833.636    -8946238.668 8  -6737679.54247  22260836.334    22260844.7984
 00  6  7  1 32  0.0000000  0  9 11 09 25 05 21 29 15 23 30
  24140680.157    -3888152.737 7  -3013523.09245  24140687.457    24140697.7144
  24461236.797      724325.452 8    587252.97845  24461237.846    24461248.4234
  22583702.446   -12808588.211 8  -9945768.72446  22583702.353    22583711.9044
  22351200.637   -11557296.922 8  -8991827.23746  22351201.430    22351210.5314
  20112564.517   -25771924.442 9 -20064471.79348  20112566.212    20112573.9474
  20526900.513   -22378083.124 9 -17417742.23748  20526902.355    20526909.3624
  21774996.942   -13102246.230 8 -10186367.64747  21775002.797    21775012.0624
  22151633.410   -14512449.692 8 -11298664.29946  22151635.504    22151644.3384
  22248074.274    -9013284.497 8  -6789922.97747  22248077.837    22248086.7224
 00  6  7  1 32 30.0000000  0  9 11 09 25 05 21 29 15 23 30
  24132525.796    -3931058.766 7  -3046956.30545  24132522.981    24132532.6944
  24481884.201      832855.596 7    671821.80145  24481889.359    24481900.9814
  22568320.351   -12889409.060 8 -10008745.91846  22568322.641    22568331.3334
  22351751.390   -11554377.275 8  -8989552.22146  22351756.955    22351765.8264
  20113220.344   -25768479.677 9 -20061787.56248  20113221.696    20113229.2154
  20525731.488   -22384222.155 9 -17422525.87648  20525734.215    20525741.2594
  21784408.430   -13052809.994 8 -10147845.93147  21784410.247    21784420.1324
  22166430.505   -14434701.841 8 -11238081.62246  22166431.082    22166439.5334
  22235394.758    -9079921.433 8  -6841847.81447  22235397.279    22235406.3124
 00  6  7  1 33  0.0000000  0  9 11 09 25 05 21 29 15 23 30
  24124448.340    -3973473.022 7  -3080006.31845  24124452.742    24124459.8694
  24502550.125      941428.110 7    756423.60845  24502550.083    24502561.9344
  22552989.895   -12969955.577 8 -10071509.34046  22552995.038    22553003.2464
  22352415.294   -11550885.404 8  -8986831.30746  22352421.507    22352430.7634
  20113978.233   -25764490.803 9 -20058679.32648  20113980.549    20113988.1724
  20524603.949   -22390152.070 9 -17427146.59248  20524605.798    20524612.4524
  21793913.879   -13002844.903 8 -10108912.12547  21793918.474    21793927.9564
  22181292.547   -14356605.159 8 -11177227.13546  22181292.925    22181301.1804
  22222790.228    -9146146.500 8  -6893451.74147  22222795.208    22222803.5384
 00  6  7  1 33 30.0000000  0  9 11 09 25 05 21 29 15 23 30
  24116471.545    -4015394.744 7  -3112672.50745  24116475.830    24116482.8334
  24523208.254     1050041.046 7    841056.97645  24523218.693    24523230.6904
  22537718.634   -13050226.923 8 -10134058.33146  22537719.718    22537726.9354
  22353195.559   -11546821.132 8  -8983664.36646  22353195.126    22353204.4674
  20114841.378   -25759956.483 9 -20055146.08048  20114843.468    20114851.2814
  20523514.287   -22395872.752 9 -17431604.22048  20523517.153    20523523.9524
  21803523.167   -12952353.393 8 -10069568.12047  21803527.504    21803536.4694
  22196219.267   -14278161.026 8 -11116101.89446  22196220.724    22196228.1834
  22210270.355    -9211956.879 8  -6944732.48247  22210272.242    22210280.1554
 00  6  7  1 34  0.0000000  0  9 11 09 25 05 21 29 15 23 30
  24108580.848    -4056822.552 7  -3144953.94145  24108592.219    24108600.9564
  24543888.948     1158692.298 7    925720.19545  24543894.584    24543906.4464
  22522493.660   -13130222.106 8 -10196392.14846  22522497.496    22522504.3214
  22354079.046   -11542184.221 8  -8980051.19746  22354077.202    22354086.3424
  20115806.987   -25754875.861 9 -20051187.15048  20115810.246    20115818.1104
  20522465.470   -22401384.152 9 -17435898.78748  20522468.403    20522475.1364
  21813233.111   -12901337.833 8 -10029815.73947  21813235.013    21813244.1114
  22211206.368   -14199370.427 8 -11054706.66346  22211213.311    22211221.9234
  22197819.165    -9277349.862 8  -6995687.96546  22197827.180    22197835.4354
 00  6  7  1 34 30.0000000  0  9 11 09 25 05 21 29 15 23 30
  24100800.813    -4097755.453 7  -3176849.67445  24100801.843    24100810.8024
  24564583.081     1267379.698 7   1010411.56645  24564577.408    24564589.2234
  22507323.408   -13209939.750 8 -10258509.67746  22507327.900    22507335.4864
  22355066.530   -11536974.404 8  -8975991.61846  22355068.810    22355077.0254
  20116879.079   -25749248.001 9 -20046801.79748  20116881.359    20116889.0074
  20521457.093   -22406685.875 9 -17440029.98148  20521459.557    20521466.0474
  21823037.376   -12849800.433 8  -9989656.75747  21823042.335    21823050.6654
  22226271.051   -14120234.473 8 -10993042.38746  22226271.857    22226281.2584
  22185462.519    -9342322.912 8  -7046316.23747  22185463.634    22185472.4464
 00  6  7  1 35  0.0000000  0  9 11 09 25 05 21 29 15 23 30
  24093111.652    -4138192.267 7  -3208358.83945  24093106.856    24093115.9894
  24585264.412     1376101.525 7   1095129.82745  24585265.582    24585278.1634
  22492206.754   -13289378.703 8 -10320410.03446  22492210.322    22492219.5204
  22356167.536   -11531191.535 8  -8971485.49546  22356169.544    22356177.5544
  20118053.688   -25743071.605 9 -20041989.00848  20118056.867    20118064.2794
  20520489.614   -22411777.792 9 -17443997.69848  20520490.586    20520497.1394
  21832946.792   -12797743.569 8  -9949092.99847  21832948.061    21832957.6074
  22241394.949   -14040754.304 8 -10931109.83846  22241396.726    22241405.6984
  22173177.978    -9406873.080 8  -7096615.00747  22173180.386    22173188.4984
 00  6  7  1 35 30.0000000  0  9 11 09 25 05 21 29 15 23 30
  24085501.481    -4178132.139 7  -3239480.80045  24085506.922    24085515.0724
  24605956.846     1484855.616 7   1179873.17445  24605962.090    24605973.4174
  22477146.616   -13368538.000 8 -10382092.47346  22477146.773    22477155.4094
  22357375.898   -11524835.556 8  -8966532.78346  22357378.422    22357387.6024
  20119333.800   -25736346.311 9 -20036748.50248  20119336.201    20119343.9664
  20519558.241   -22416659.699 9 -17447801.74748  20519561.331    20519568.3684
  21842950.399   -12745170.013 8  -9908126.61847  21842952.705    21842961.5214
  22256587.166   -13960931.174 8 -10868910.04846  22256586.761    22256596.2314
  22160974.509    -9470997.684 8  -7146582.19247  22160977.704    22160985.7304
 00  6  7  1 36  0.0000000  0  9 11 09 25 05 21 29 15 23 30
  24078000.051    -4217573.969 7  -3270214.66545  24078001.482    24078012.4584
  24626662.110     1593639.691 7   1264639.84645  24626664.223    24626674.4584
  22462133.101   -13447416.758 8 -10443556.37446  22462136.200    22462145.3974
  22358693.952   -11517906.160 8  -8961133.24546  22358697.187    22358706.3914
  20120719.312   -25729071.807 9 -20031080.06748  20120720.542    20120728.2714
  20518669.241   -22421331.220 9 -17451441.86448  20518672.442    20518679.6584
  21853052.722   -12692082.303 8  -9866759.58747  21853055.305    21853063.8504
  22271839.651   -13880766.387 8 -10806444.04446  22271841.195    22271851.3274
  22148853.954    -9534694.065 8  -7196215.66847  22148857.113    22148864.9264
 00  6  7  1 36 30.0000000  0  9 11 09 25 05 21 29 15 23 30
  24070588.077    -4256516.819 7  -3300559.70545  24070590.750    24070598.8474
  24647360.332     1702451.951 7   1349428.48545  24647370.815    24647380.1424
  22447178.062   -13526014.159 8 -10504801.04446  22447179.424    22447188.4024
  22360123.108   -11510403.090 8  -8955286.69346  22360125.488    22360133.9724
  20122207.468   -25721246.874 9 -20024982.72648  20122209.591    20122217.2044
  20517818.962   -22425792.308 9 -17454918.03848  20517823.423    20517830.7904
  21863252.640   -12638482.695 8  -9824993.67846  21863253.814    21863263.2974
  22287160.098   -13800261.118 8 -10743712.72146  22287161.015    22287170.7924
  22136818.188    -9597959.369 9  -7245513.28247  22136818.719    22136825.6914
 00  6  7  1 37  0.0000000  0  9 11 09 25 05 21 29 15 23 30
  24063278.383    -4294959.570 7  -3330515.06745  24063275.947    24063284.4424
  24668085.524     1811290.741 7   1434237.85945  24668081.789    24668092.7284
  22432275.559   -13604329.409 8 -10565825.86146  22432276.146    22432284.7844
  22361658.737   -11502326.328 8  -8948993.09946  22361662.108    22361670.9814
  20123801.186   -25712870.063 9 -20018455.33648  20123803.555    20123811.0164
  20517011.259   -22430042.872 9 -17458230.16548  20517014.369    20517021.6884
  21873548.715   -12584373.836 8  -9782830.97846  21873551.086    21873559.8304
  22302542.757   -13719416.576 8 -10680716.99246  22302544.806    22302555.1734
  22124859.161    -9660790.838 8  -7294472.82347  22124861.688    22124869.1884
 00  6  7  1 37 30.0000000  0  8 11 25 05 21 29 15 23 30
  24056049.789    -4332901.444 8  -3360080.16245  24056055.615    24056064.6154
  22417424.995   -13682361.253 8 -10626629.81446  22417427.242    22417436.6444
  22363302.008   -11493675.901 8  -8942252.49746  22363307.262    22363317.0354
  20125500.308   -25703941.734 9 -20011498.19648  20125502.844    20125510.1044
  20516243.397   -22434082.367 9 -17461377.82348  20516245.837    20516252.7764
  21883938.287   -12529758.089 8  -9740273.28046  21883943.046    21883953.3584
  22317987.943   -13638234.118 8 -10617458.02146  22317992.809    22318003.3094
  22112985.661    -9723186.183 8  -7343092.49847  22112987.724    22112995.2534
 00  6  7  1 38  0.0000000  0  8 11 25 05 21 29 15 23 30
  24048931.112    -4370341.311 8  -3389254.03645  24048930.781    24048939.1704
  22402628.829   -13760108.608 8 -10687212.07446  22402633.242    22402641.2514
  22365061.357   -11484451.625 8  -8935064.73846  22365062.712    22365071.8904
  20127303.516   -25694460.672 9 -20004110.35848  20127306.823    20127314.5384
  20515514.661   -22437910.578 9 -17464360.83548  20515517.416    20515524.0534
  21894431.170   -12474638.130 8  -9697322.70346  21894432.385    21894441.5854
  22333503.699   -13556714.914 8 -10553936.59946  22333505.768    22333515.6914
  22101193.741    -9785142.532 8  -7391370.13247  22101197.883    22101205.0904
 00  6  7  1 38 30.0000000  0  8 11 25 05 21 29 15 23 30
  24041898.504    -4407278.218 7  -3418036.02145  24041902.608    24041912.0644
  22387889.091   -13837570.284 8 -10747571.73847  22387892.963    22387900.7174
  22366923.987   -11474653.557 8  -8927429.86246  22366927.911    22366936.6814
  20129214.050   -25684425.665 9 -19996290.86748  20129216.446    20129224.0994
  20514826.148   -22441527.453 9 -17467179.14648  20514828.903    20514836.0164
  21905015.089   -12419016.464 8  -9653981.15946  21905017.011    21905026.7074
  22349077.682   -13474860.097 8 -10490153.68646  22349082.063    22349092.3264
  22089488.346    -9846657.277 8  -7439303.64947  22089491.854    22089499.8264
 00  6  7  1 39  0.0000000  0  8 11 25 05 21 29 15 23 30
  24034968.379    -4443711.325 8  -3446425.44845  24034969.367    24034978.2844
  22373206.317   -13914745.811 8 -10807708.40047  22373207.485    22373214.8824
  22368899.146   -11464281.685 8  -8919347.86346  22368901.685    22368910.3244
  20131229.375   -25673836.196 9 -19988039.33748  20131231.709    20131239.1594
  20514177.599   -22444932.626 9 -17469832.53448  20514181.102    20514188.1244
  21915693.918   -12362895.678 8  -9610250.69247  21915696.610    21915706.6624
  22364721.923   -13392670.997 8 -10426110.26546  22364723.278    22364731.8374
  22077867.041    -9907727.635 8  -7486890.87447  22077870.102    22077878.2514
 00  6  7  1 39 30.0000000  0  8 11 25 05 21 29 15 23 30
  24028132.202    -4479639.900 8  -3474421.70045  24028132.717    24028141.6084
  22358572.417   -13991634.211 8 -10867621.33347  22358575.241    22358583.8564
  22370981.904   -11453335.883 8  -8910818.63646  22370984.568    22370993.3814
  20133347.549   -25662691.810 9 -19979355.39848  20133351.802    20133359.9324
  20513570.510   -22448125.834 9 -17472320.74548  20513573.604    20513580.4074
  21926469.318   -12306278.357 8  -9566133.31747  21926470.777    21926480.7924
  22380424.179   -13310149.014 8 -10361807.50546  22380426.741    22380436.4654
  22066328.487    -9968351.245 8  -7534129.99947  22066333.700    22066342.1034
 00  6  7  1 40  0.0000000  0  8 11 25 05 21 29 15 23 30
  24021385.922    -4515062.966 8  -3502024.04745  24021391.441    24021401.6144
  22343996.181   -14068234.632 8 -10927309.87547  22343998.250    22344006.8864
  22373171.586   -11441816.337 8  -8901842.33346  22373175.951    22373185.7844
  20135575.965   -25650991.753 9 -19970238.46848  20135578.376    20135586.4914
  20513000.990   -22451106.911 9 -17474643.64448  20513006.077    20513013.1524
  21937336.617   -12249167.048 8  -9521631.02647  21937338.767    21937348.8284
  22396189.838   -13227295.327 8 -10297246.25546  22396193.554    22396202.5534
  22054879.812   -10028525.356 8  -7581018.86747  22054883.103    22054891.5164
 00  6  7  1 40 30.0000000  0  8 11 25 05 21 29 15 23 30
  24014741.912    -4549979.643 8  -3529231.81445  24014745.531    24014756.7164
  22329475.244   -14144545.989 8 -10986773.17847  22329476.841    22329485.2324
  22375474.275   -11429723.084 8  -8892418.97746  22375477.729    22375486.8104
  20137907.530   -25638735.084 9 -19960687.81348  20137910.843    20137918.7444
  20512474.217   -22453875.659 9 -17476801.12248  20512479.095    20512486.1594
  21948300.971   -12191564.693 8  -9476746.08447  21948300.482    21948309.8434
  22412018.112   -13144111.321 8 -10232427.60546  22412022.615    22412031.3634
  22043515.070   -10088247.169 8  -7627555.32047  22043519.045    22043527.0024
 00  6  7  1 41  0.0000000  0  8 11 25 05 21 29 15 23 30
  24008190.348    -4584388.975 7  -3556044.28345  24008197.995    24008209.8244
  22315005.772   -14220567.430 8 -11046010.59447  22315009.874    22315018.5724
  22377888.935   -11417056.296 8  -8882548.71146  22377888.039    22377897.0094
  20140347.146   -25625921.886 9 -19950703.50248  20140349.067    20140357.0084
  20511988.198   -22456431.902 9 -17478793.02248  20511992.637    20511999.6854
  21959350.204   -12133473.715 8  -9431480.42046  21959355.001    21959363.8574
  22427913.634   -13060598.366 8 -10167352.67746  22427914.975    22427924.1424
  22032238.217   -10147514.568 8  -7673737.64447  22032240.789    22032249.0424
 00  6  7  1 41 30.0000000  0  8 11 25 05 21 29 15 23 30
  24001744.893    -4618290.264 7  -3582460.81245  24001746.194    24001757.7524
  22300593.456   -14296298.279 8 -11105021.55847  22300598.270    22300607.8074
  22380407.337   -11403816.088 8  -8872231.61046  22380407.083    22380416.5454
  20142891.179   -25612551.213 9 -19940284.79048  20142893.381    20142901.1424
  20511543.139   -22458775.001 9 -17480618.81348  20511546.877    20511553.7504
  21970499.251   -12074897.037 8  -9385836.26746  21970501.487    21970510.5634
  22443865.463   -12976757.576 8 -10102022.24846  22443869.194    22443878.3884
  22021046.204   -10206324.666 8  -7719563.66347  22021049.075    22021057.4304
 00  6  7  1 42  0.0000000  0  8 11 25 05 21 29 15 23 30
  23995383.896    -4651682.931 7  -3608481.00845  23995391.339    23995402.7844
  22286238.729   -14371737.405 8 -11163805.20747  22286242.836    22286252.1564
  22383034.611   -11390002.594 8  -8861467.80346  22383036.237    22383045.4104
  20145540.962   -25598622.312 9 -19929431.08748  20145544.228    20145551.6704
  20511137.523   -22460905.046 9 -17482278.60548  20511141.868    20511148.6134
  21981737.255   -12015837.148 8  -9339815.58846  21981740.482    21981748.8614
  22459882.786   -12892590.503 8 -10036437.58446  22459885.451    22459895.1394
  22009943.765   -10264675.038 8  -7765031.47347  22009945.760    22009953.6374
 00  6  7  1 42 30.0000000  0  8 11 25 05 21 29 15 23 30
  23989134.958    -4684565.977 8  -3634104.10945  23989134.577    23989144.8574
  22271941.466   -14446883.729 8 -11222360.70547  22271943.169    22271952.1364
  22385773.279   -11375616.016 8  -8850257.42646  22385773.779    22385782.8174
  20148297.590   -25584134.709 9 -19918142.04748  20148301.007    20148308.8104
  20510773.727   -22462821.644 9 -17483772.05148  20510776.874    20510784.2394
  21993068.132   -11956296.770 8  -9293420.49546  21993070.779    21993078.8794
  22475959.932   -12808098.576 8  -9970599.76646  22475963.695    22475973.3934
  21998924.662   -10322563.098 8  -7810139.01347  21998929.863    21998937.7144
 00  6  7  1 43  0.0000000  0  8 11 25 05 21 29 15 23 30
  23982968.678    -4716938.695 7  -3659329.58745  23982972.791    23982983.7434
  22257693.836   -14521736.603 8 -11280687.53147  22257699.581    22257708.1514
  22388616.071   -11360656.338 8  -8838600.48246  22388620.681    22388629.6414
  20151161.212   -25569087.359 9 -19906416.83448  20151164.212    20151172.3514
  20510448.730   -22464524.574 9 -17485099.01448  20510452.740    20510460.2434
  22004489.581   -11896278.657 8  -9246653.15446  22004491.436    22004500.4914
  22492098.138   -12723283.109 8  -9904509.87846  22492103.199    22492113.6174
  21988001.311   -10379985.990 8  -7854884.06247  21988002.807    21988011.0274
 00  6  7  1 43 30.0000000  0  8 11 25 05 21 29 15 23 30
  23976907.176    -4748800.296 7  -3684156.76245  23976909.867    23976919.4834
  22243510.380   -14596295.121 8 -11338784.98947  22243511.430    22243519.7974
  22391575.128   -11345123.898 8  -8826497.22846  22391576.212    22391584.8004
  20154132.395   -25553480.545 9 -19894255.68348  20154134.388    20154142.3494
  20510167.112   -22466013.454 9 -17486259.20848  20510169.407    20510176.7884
  22016000.622   -11835785.414 8  -9199515.57646  22016003.270    22016011.2304
  22508307.886   -12638145.361 8  -9838168.84146  22508305.202    22508315.1214
  21977165.097   -10436941.834 9  -7899265.18547  21977164.875    21977172.2274
 00  6  7  1 44  0.0000000  0  8 11 25 05 21 29 15 23 30
  23970940.985    -4780150.298 7  -3708585.32045  23970945.993    23970954.5954
  22229376.017   -14670558.386 8 -11396652.37847  22229379.540    22229386.8664
  22394643.006   -11329019.070 8  -8813947.97946  22394641.211    22394649.7244
  20157208.032   -25537313.214 9 -19881657.76248  20157211.174    20157218.8714
  20509924.967   -22467288.019 9 -17487252.37148  20509927.312    20509934.2644
  22027601.158   -11774819.801 8  -9152009.93846  22027604.257    22027613.0324
  22524563.228   -12552686.827 8  -9771577.81646  22524567.930    22524576.5704
  21966413.794   -10493427.926 9  -7943280.26947  21966415.413    21966423.7864
 00  6  7  1 44 30.0000000  0  8 11 25 05 21 29 15 23 30
  23965071.010    -4810987.955 7  -3732614.63045  23965075.594    23965083.6134
  22215300.156   -14744525.498 9 -11454289.01847  22215304.297    22215311.7194
  22397810.390   -11312342.248 8  -8800953.02546  22397814.638    22397822.8524
  20160390.225   -25520585.372 9 -19868623.07248  20160393.619    20160402.0244
  20509721.029   -22468348.025 9 -17488078.42048  20509725.552    20509731.9464
  22039292.941   -11713384.829 8  -9104138.54446  22039295.504    22039303.7444
  22540887.262   -12466908.781 8  -9704737.80746  22540890.062    22540900.1194
  21955755.046   -10549441.857 9  -7986927.44447  21955756.379    21955764.3204
 00  6  7  1 45  0.0000000  0  8 11 25 05 21 29 15 23 30
  23959309.404    -4841312.537 7  -3756244.18045  23959305.864    23959315.8094
  22201283.067   -14818195.790 8 -11511694.36847  22201285.143    22201292.0764
  22401093.212   -11295093.423 8  -8787512.33746  22401096.427    22401106.4884
  20163680.292   -25503296.728 9 -19855151.41848  20163683.811    20163692.1064
  20509561.699   -22469193.034 9 -17488736.82448  20509564.810    20509571.1814
  22051070.606   -11651483.133 8  -9055903.46946  22051074.626    22051083.8724
  22557274.774   -12380812.980 8  -9637650.22046  22557273.916    22557284.1974
  21945186.478   -10604981.159 9  -8030204.77447  21945187.906    21945195.8974
 00  6  7  1 45 30.0000000  0  8 11 25 05 21 29 15 23 30
  23953631.631    -4871123.473 8  -3779473.47145  23953633.797    23953645.0044
  22187319.198   -14891568.444 8 -11568867.79147  22187321.829    22187330.5054
  22404484.369   -11277272.900 8  -8773626.18446  22404488.190    22404496.7434
  20167078.154   -25485446.294 9 -19841241.98448  20167080.596    20167088.9454
  20509441.497   -22469823.026 9 -17489227.70948  20509444.952    20509451.6474
  22062939.160   -11589117.469 8  -9007306.86646  22062942.065    22062951.2434
  22573713.109   -12294400.420 8  -9570315.84546  22573718.467    22573727.7804
  21934704.337   -10660043.241 9  -8073110.24847  21934709.505    21934717.0024
 00  6  7  1 46  0.0000000  0  8 11 25 05 21 29 15 23 30
  23948055.636    -4900420.025 7  -3802301.93645  23948058.966    23948069.5004
  22173412.180   -14964642.822 8 -11625808.78847  22173416.848    22173425.1864
  22407985.953   -11258880.998 8  -8759294.79946  22407987.325    22407997.1184
  20170580.749   -25467033.881 9 -19826894.64648  20170584.324    20170592.3444
  20509363.805   -22470237.505 9 -17489550.70448  20509366.218    20509372.9004
  22074894.822   -11526290.624 8  -8958350.90746  22074898.543    22074906.7314
  22590223.304   -12207672.678 8  -9502735.84246  22590221.933    22590232.1144
  21924319.808   -10714625.682 9  -8115641.97047  21924323.056    21924330.2794
 00  6  7  1 46 30.0000000  0  8 11 25 05 21 29 15 23 30
  23942582.819    -4929201.773 8  -3824729.21745  23942581.855    23942594.4714
  22159566.236   -15037417.696 8 -11682516.42147  22159567.701    22159576.0964
  22411592.395   -11239918.260 8  -8744518.63246  22411595.997    22411604.9374
  20174193.491   -25448058.969 9 -19812108.99548  20174195.380    20174203.2554
  20509326.028   -22470436.276 9 -17489705.58548  20509328.118    20509335.1674
  22086938.980   -11463005.490 8  -8909037.83446  22086940.954    22086949.5304
  22606781.576   -12120631.341 8  -9434911.51046  22606784.920    22606795.3644
  21914018.914   -10768726.066 8  -8157798.06347  21914027.754    21914035.6334
 00  6  7  1 47  0.0000000  0  8 11 25 05 21 29 15 23 30
  23937192.711    -4957468.053 7  -3846754.82045  23937202.838    23937214.7224
  22145771.476   -15109892.406 8 -11738990.15447  22145776.267    22145785.0844
  22415308.508   -11220384.996 8  -8729297.90346  22415313.236    22415322.2414
  20177911.479   -25428521.083 9 -19796884.66348  20177913.295    20177921.1014
  20509327.691   -22470418.905 9 -17489692.04248  20509331.213    20509338.3234
  22099069.625   -11399264.955 8  -8859369.91046  22099070.200    22099079.4634
  22623405.028   -12033277.820 8  -9366843.89246  22623406.929    22623417.8094
  21903821.055   -10822342.002 8  -8199576.66647  21903824.489    21903832.7454
 00  6  7  1 47 30.0000000  0  8 11 25 05 21 29 15 23 30
  23931922.583    -4985218.169 7  -3868378.26745  23931921.972    23931934.1754
  22132039.136   -15182066.357 8 -11795229.52347  22132042.427    22132050.2944
  22419134.303   -11200281.512 8  -8713632.84546  22419138.399    22419147.6864
  20181736.729   -25408420.047 9 -19781221.51148  20181738.604    20181746.3214
  20509373.541   -22470185.264 9 -17489509.98848  20509375.909    20509382.7434
  22111283.413   -11335071.866 8  -8809349.34246  22111285.711    22111294.9794
  22640087.361   -11945613.575 8  -9298534.14846  22640089.145    22640099.7014
  21893710.669   -10875471.305 8  -8240976.05847  21893714.108    21893722.4274
 00  6  7  1 48  0.0000000  0  8 11 25 05 21 29 15 23 30
  23926737.078    -5012451.702 8  -3889599.19245  23926740.079    23926751.3394
  22118364.453   -15253938.591 8 -11851233.79347  22118365.417    22118373.3204
  22423067.148   -11179608.537 8  -8697524.00446  22423072.601    22423081.6314
  20185669.128   -25387755.542 9 -19765119.30448  20185670.913    20185678.7964
  20509459.372   -22469734.878 9 -17489159.02048  20509461.605    20509468.6074
  22123584.898   -11270429.000 8  -8758978.32546  22123586.904    22123595.9494
  22656830.752   -11857640.151 8  -9229983.48446  22656831.242    22656840.0304
  21883697.864   -10928111.310 9  -8281994.17247  21883697.560    21883705.2664
 00  6  7  1 48 30.0000000  0  8 11 25 05 21 29 15 23 30
  23921656.449    -5039168.177 7  -3910417.17145  23921656.645    23921665.6234
  22104743.971   -15325508.409 8 -11907002.43347  22104745.957    22104754.3504
  22427112.998   -11158366.495 8  -8680971.76146  22427115.679    22427123.8194
  20189707.675   -25366527.541 9 -19748578.01748  20189710.300    20189718.4314
  20509585.686   -22469067.655 9 -17488639.15848  20509588.780    20509595.5994
  22135970.340   -11205339.370 8  -8708259.15846  22135972.277    22135982.9224
  22673628.593   -11769359.086 8  -9161193.05346  22673630.219    22673639.0244
  21873772.407   -10980260.041 8  -8322629.46947  21873773.634    21873781.3444
 00  6  7  1 49  0.0000000  0  8 11 25 05 21 29 15 23 30
  23916665.454    -5065367.063 7  -3930831.85045  23916670.572    23916681.2384
  22091182.490   -15396775.058 8 -11962534.81147  22091183.915    22091193.1704
  22431262.529   -11136555.782 8  -8663976.40546  22431266.037    22431273.9684
  20193853.417   -25344735.960 9 -19731597.56548  20193856.992    20193865.1974
  20509753.854   -22468182.996 9 -17487949.82548  20509757.024    20509763.5844
  22148438.986   -11139805.923 8  -8657194.17546  22148443.168    22148453.7374
  22690477.094   -11680771.807 8  -9092164.10246  22690487.323    22690496.9784
  21863940.457   -11031915.204 9  -8362880.17047  21863944.376    21863951.6254
 00  6  7  1 49 30.0000000  0  8 11 25 05 21 29 15 23 30
  23911782.329    -5091047.896 7  -3950842.83745  23911783.311    23911794.1194
  22077677.654   -15467737.936 8 -12017830.49047  22077680.450    22077688.9934
  22435523.000   -11114176.898 8  -8646538.32646  22435524.397    22435532.9804
  20198106.944   -25322380.194 9 -19714177.48848  20198111.039    20198119.2534
  20509963.819   -22467080.641 9 -17487090.85248  20509966.751    20509973.4254
  22160996.032   -11073831.351 8  -8605785.46146  22160998.330    22161007.2044
  22707402.814   -11591879.825 8  -9022897.70146  22707403.638    22707412.9144
  21854204.544   -11083074.214 8  -8402744.24947  21854208.914    21854216.3954
 00  6  7  1 50  0.0000000  0  8 11 25 05 21 29 15 23 30
  23906992.027    -5116210.409 8  -3970450.00545  23906996.115    23907003.7124
  22064229.084   -15538395.715 8 -12072888.44947  22064234.287    22064242.2574
  22439885.517   -11091230.360 8  -8628657.90946  22439889.617    22439898.8714
  20202470.184   -25299459.940 9 -19696317.55948  20202472.777    20202480.8474
  20510215.914   -22465760.532 9 -17486062.22248  20510218.014    20510224.5744
  22173635.230   -11007418.699 8  -8554035.38346  22173635.893    22173645.1044
  22724371.626   -11502684.586 8  -8953394.99546  22724376.065    22724384.9124
  21844565.575   -11133734.761 9  -8442219.89447  21844568.928    21844576.4404
 00  6  7  1 50 30.0000000  0  8 11 25 05 21 29 15 23 30
  23902302.113    -5140854.171 8  -3989652.90445  23902305.730    23902315.1484
  22050844.475   -15608748.087 8 -12127708.42547  22050846.698    22050854.2134
  22444360.792   -11067716.659 8  -8610335.55946  22444364.501    22444373.8514
  20206939.602   -25275974.668 9 -19678017.32148  20206941.917    20206949.8874
  20510509.422   -22464221.964 9 -17484863.34848  20510510.896    20510517.3714
  22186356.432   -10940570.940 8  -8501946.27246  22186357.129    22186365.0714
  22741400.468   -11413187.511 8  -8883657.06846  22741406.616    22741416.2064
  21835020.079   -11183894.773 9  -8481305.53647  21835023.571    21835030.6864
 00  6  7  1 51  0.0000000  0  8 11 25 05 21 29 15 23 30
  23897712.337    -5164978.415 7  -4008450.94445  23897715.773    23897723.2734
  22037517.879   -15678794.425 8 -12182289.91847  22037517.405    22037525.4364
  22448945.723   -11043636.527 8  -8591571.84446  22448947.406    22448955.9254
  20211515.009   -25251924.878 9 -19659277.20948  20211518.365    20211526.0924
  20510841.829   -22462464.940 9 -17483494.27848  20510845.015    20510851.7514
  22199158.161   -10873291.147 8  -8449520.49646  22199160.337    22199168.8984
  22758486.989   -11323390.443 8  -8813685.42546  22758494.383    22758504.7374
  21825569.837   -11233551.743 9  -8519999.20847  21825573.979    21825581.2394
 00  6  7  1 51 30.0000000  0  8 11 25 05 21 29 15 23 30
  23893221.361    -5188582.970 8  -4026844.06745  23893223.843    23893232.8414
  22024244.790   -15748534.212 8 -12236632.53747  22024246.219    22024254.8584
  22453636.417   -11018990.474 8  -8572367.17446  22453637.722    22453645.7474
  20216199.441   -25227309.780 9 -19640096.57648  20216202.609    20216210.0024
  20511217.127   -22460488.705 9 -17481954.32048  20511221.118    20511227.9184
  22212042.550   -10805582.076 8  -8396760.22346  22212044.996    22212053.3554
  22775642.455   -11233294.833 8  -8743481.11046  22775640.641    22775648.6994
  21816217.914   -11282703.610 9  -8558299.24947  21816220.680    21816227.8854
 00  6  7  1 52  0.0000000  0  8 11 25 05 21 29 15 23 30
  23888828.855    -5211667.615 7  -4044832.07545  23888830.208    23888840.7164
  22011030.051   -15817966.557 8 -12290735.59447  22011033.355    22011042.4244
  22458434.957   -10993779.250 8  -8552722.08446  22458434.742    22458443.6464
  20220990.836   -25202130.207 9 -19620476.18348  20220994.078    20221001.8634
  20511635.885   -22458293.355 9 -17480243.68948  20511638.858    20511645.9114
  22225009.782   -10737446.466 8  -8343667.60046  22225009.723    22225019.6974
  22792843.463   -11142902.299 8  -8673045.38346  22792842.067    22792850.7474
  21806962.917   -11331348.630 9  -8596204.38047  21806963.692    21806971.3364
 00  6  7  1 52 30.0000000  0  8 11 25 05 21 29 15 23 30
  23884528.486    -5234231.885 7  -4062414.56845  23884534.553    23884544.8834
  21997875.524   -15887090.595 8 -12344598.42647  21997880.075    21997888.4574
  22463338.023   -10968003.428 8  -8532637.06046  22463339.239    22463348.7414
  20225892.007   -25176385.032 9 -19600415.00148  20225893.269    20225900.7134
  20512093.952   -22455878.194 9 -17478361.69448  20512098.230    20512105.4494
  22238054.889   -10668887.604 8  -8290245.15046  22238056.549    22238065.9914
  22810097.260   -11052214.416 8  -8602379.54346  22810098.929    22810107.6514
  21797804.482   -11379483.911 9  -8633712.32147  21797803.875    21797811.1624
 00  6  7  1 53  0.0000000  0  8 11 25 05 21 29 15 23 30
  23880339.521    -5256275.538 7  -4079591.37645  23880340.312    23880349.6854
  21984781.683   -15955905.959 8 -12398220.72147  21984785.060    21984793.0964
  22468349.584   -10941663.605 8  -8512112.56146  22468351.506    22468360.5404
  20230897.575   -25150074.699 9 -19579913.40748  20230900.018    20230907.2294
  20512597.280   -22453243.113 9 -17476308.36548  20512599.681    20512606.8854
  22251181.212   -10599908.501 8  -8236495.23846  22251183.766    22251192.3084
  22827407.074   -10961232.616 8  -8531484.70346  22827411.908    22827420.7204
  21788739.492   -11427107.627 9  -8670821.65647  21788741.099    21788748.5164
 00  6  7  1 53 30.0000000  0  8 11 25 05 21 29 15 23 30
  23876242.541    -5277798.147 8  -4096362.24845  23876244.566    23876255.3774
  21971746.872   -16024411.765 9 -12451601.81147  21971748.709    21971757.0904
  22473468.947   -10914760.291 8  -8491148.96346  22473471.539    22473480.1024
  20236010.861   -25123199.248 9 -19558971.54348  20236014.071    20236021.7664
  20513139.033   -22450387.732 9 -17474083.40248  20513142.912    20513150.1664
  22264386.146   -10530511.943 8  -8182420.04346  22264388.988    22264397.5124
  22844781.076   -10869958.540 8  -8460362.07346  22844781.844    22844790.1004
  21779773.128   -11474217.382 9  -8707530.50047  21779776.364    21779784.0974
 00  6  7  1 54  0.0000000  0  8 11 25 05 21 29 15 23 30
  23872245.608    -5298799.740 7  -4112727.07545  23872248.506    23872257.4274
  21958768.612   -16092607.049 8 -12504740.93747  21958770.896    21958779.7074
  22478693.727   -10887294.581 8  -8469747.15246  22478698.093    22478706.9024
  20241234.162   -25095757.970 9 -19537588.80248  20241236.137    20241243.3684
  20513724.370   -22447311.856 9 -17471686.63948  20513728.315    20513735.8074
  22277670.685   -10460701.040 8  -8128021.97446  22277673.557    22277682.0384
  22862205.282   -10778393.874 8  -8389013.04546  22862205.358    22862215.5214
  21770908.366   -11520811.093 8  -8743837.22847  21770909.792    21770916.9914
 00  6  7  1 54 30.0000000  0  8 11 25 05 21 29 15 23 30
  23868351.175    -5319279.790 7  -4128685.49345  23868351.435    23868361.3044
  21945848.155   -16160491.710 8 -12557638.01447  21945853.136    21945861.6304
  22484030.738   -10859267.207 8  -8447907.66846  22484031.718    22484040.4094
  20246563.005   -25067751.455 9 -19515765.52648  20246565.617    20246572.9514
  20514354.235   -22444014.722 9 -17469117.45548  20514355.834    20514362.9924
  22291031.731   -10390478.809 8  -8073303.37046  22291036.644    22291045.4064
  22879679.478   -10686540.191 8  -8317438.80246  22879684.235    22879694.1794
  21762137.454   -11566886.922 9  -8779740.46547  21762141.825    21762149.2264
 00  6  7  1 55  0.0000000  0  8 11 25 05 21 29 15 23 30
  23864550.388    -5339238.009 8  -4144237.36845  23864554.472    23864563.2494
  21932992.664   -16228064.941 8 -12610292.43747  21932994.932    21933002.2674
  22489468.599   -10830678.902 8  -8425631.11146  22489471.998    22489480.8644
  20251998.807   -25039179.725 9 -19493501.78648  20252002.453    20252010.2184
  20515022.294   -22440496.270 9 -17466375.78248  20515025.514    20515032.3684
  22304470.198   -10319848.681 8  -8018266.95946  22304476.704    22304486.6004
  22897210.966   -10594399.186 8  -8245640.65946  22897218.035    22897227.6984
  21753470.638   -11612442.607 9  -8815238.32147  21753472.808    21753480.1424
 00  6  7  1 55 30.0000000  0  8 11 25 05 21 29 15 23 30
  23860854.876    -5358674.292 8  -4159382.42745  23860855.758    23860864.3264
  21920189.464   -16295325.752 8 -12662703.40847  21920194.908    21920202.5004
  22495017.013   -10801530.416 8  -8402918.04347  22495019.424    22495027.8794
  20257544.407   -25010042.852 9 -19470797.74248  20257547.058    20257554.9414
  20515734.957   -22436756.001 9 -17463461.26748  20515737.520    20515744.1264
  22317989.890   -10248813.479 8  -7962914.91746  22317994.355    22318004.2864
  22914801.156   -10501972.511 8  -8173619.93846  22914806.320    22914815.9774
  21744899.437   -11657476.002 8  -8850329.23747  21744903.022    21744910.9394
 00  6  7  1 56  0.0000000  0  8 11 25 05 21 29 15 23 30
  23857252.747    -5377588.538 8  -4174120.79645  23857256.661    23857265.9854
  21907453.444   -16362273.833 9 -12714870.68247  21907455.845    21907462.7574
  22500670.569   -10771822.536 8  -8379769.11047  22500672.666    22500681.8524
  20263197.093   -24980340.747 9 -19447653.24948  20263199.328    20263207.0424
  20516486.991   -22432793.740 9 -17460373.79348  20516491.153    20516497.9864
  22331587.947   -10177376.093 8  -7907249.50246  22331589.097    22331597.2764
  22932445.944   -10409261.653 8  -8101377.80146  22932448.618    22932458.0164
  21736429.109   -11701985.139 8  -8885011.69147  21736433.276    21736440.6844
 00  6  7  1 56 30.0000000  0  8 11 25 05 21 29 15 23 30
  23853750.814    -5395980.652 8  -4188452.31445  23853756.709    23853766.1064
  21894774.238   -16428908.529 9 -12766793.75747  21894775.481    21894782.1674
  22506428.100   -10741556.021 8  -8356184.86247  22506431.419    22506440.9644
  20268956.207   -24950073.293 9 -19424068.24248  20268958.949    20268966.8394
  20517284.570   -22428608.775 9 -17457112.76848  20517287.493    20517294.2274
  22345253.539   -10105539.794 8  -7851273.20446  22345258.372    22345267.0394
  22950138.495   -10316268.329 8  -8028915.52246  22950144.153    22950154.6544
  21728060.840   -11745967.861 9  -8919283.87247  21728063.404    21728071.3304
 00  6  7  1 57  0.0000000  0  8 11 25 05 21 29 15 23 30
  23850355.354    -5413850.575 8  -4202376.91245  23850355.828    23850366.8544
  21882152.773   -16495229.377 8 -12818472.28047  21882155.118    21882161.1864
  22512294.254   -10710731.781 8  -8332166.01447  22512297.385    22512306.7164
  20274825.348   -24919240.967 9 -19400043.09048  20274826.291    20274834.2554
  20518122.582   -22424201.129 9 -17453678.21448  20518126.140    20518133.1154
  22359000.180   -10033307.700 8  -7794988.47846  22359003.418    22359012.7414
  22967889.907   -10222994.314 8  -7956234.55046  22967894.683    22967904.4694
  21719789.878   -11789422.592 8  -8953144.71647  21719794.183    21719802.0344
 00  6  7  1 57 30.0000000  0  8 11 25 05 21 29 15 23 30
  23847050.261    -5431197.867 8  -4215894.29845  23847054.977    23847065.1944
  21869592.654   -16561235.693 8 -12869905.71747  21869594.117    21869601.3324
  22518267.148   -10679350.785 8  -8307713.35047  22518269.312    22518278.2644
  20280799.017   -24887843.420 9 -19375577.48048  20280800.970    20280808.9214
  20519006.445   -22419570.131 9 -17450069.63348  20519007.343    20519014.4674
  22372817.998    -9960682.744 8  -7738397.64946  22372823.324    22372833.4354
  22985695.783   -10129441.287 8  -7883336.15546  22985696.987    22985706.7674
  21711624.932   -11832346.831 9  -8986592.16847  21711626.370    21711634.6454
 00  6  7  1 58  0.0000000  0  8 11 25 05 21 29 15 23 30
  23843852.932    -5448022.690 8  -4229004.56145  23843853.553    23843863.4954
  21857092.783   -16626926.771 9 -12921093.49647  21857093.658    21857101.0464
  22524343.014   -10647413.786 8  -8282827.42747  22524346.623    22524355.6564
  20286879.611   -24855880.739 9 -19350671.47548  20286883.272    20286891.1264
  20519927.759   -22414715.565 9 -17446286.86648  20519931.143    20519938.3844
  22386716.458    -9887667.826 8  -7681502.95546  22386718.481    22386728.1414
  23003554.962   -10035610.883 8  -7810221.61246  23003552.803    23003562.1764
  21703553.941   -11874738.836 9  -9019624.88547  21703559.234    21703567.8034
 00  6  7  1 58 30.0000000  0  8 11 25 05 21 29 15 23 30
  23840747.688    -5464324.879 8  -4241707.56545  23840750.781    23840759.7214
  21844649.187   -16692301.975 8 -12972035.15047  21844653.051    21844660.7194
  22530525.077   -10614921.817 8  -8257509.08747  22530529.423    22530539.0424
  20293070.430   -24823353.234 9 -19325325.37548  20293073.416    20293080.7644
  20520894.537   -22409636.951 9 -17442329.51148  20520897.635    20520904.8784
  22400684.531    -9814266.437 8  -7624307.15046  22400686.533    22400696.7064
  23021455.010    -9941504.656 8  -7736892.09946  23021460.145    23021469.7494
  21695590.312   -11916596.377 9  -9052241.14247  21695594.324    21695602.2064
 00  6  7  1 59  0.0000000  0  8 11 25 05 21 29 15 23 30
  23837743.341    -5480104.315 7  -4254003.21245  23837747.248    23837757.9214
  21832270.851   -16757360.938 9 -13022730.39947  21832272.449    21832280.6614
  22536814.925   -10581875.678 8  -8231758.91947  22536818.457    22536827.0974
  20299367.098   -24790261.269 9 -19299539.37848  20299370.382    20299377.8174
  20521903.477   -22404333.847 9 -17438197.22748  20521906.912    20521913.9364
  22414725.644    -9740481.345 8  -7566812.33246  22414727.108    22414736.7384
  23039419.392    -9847124.488 8  -7663349.23646  23039420.816    23039430.2274
  21687726.627   -11957917.618 9  -9084439.52247  21687730.868    21687738.7754
 00  6  7  1 59 30.0000000  0  8 11 25 05 21 29 15 23 30
  23834840.342    -5495361.044 7  -4265891.55545  23834843.004    23834854.6384
  21819951.559   -16822103.091 8 -13073178.77947  21819952.301    21819960.4344
  22543207.747   -10548276.586 8  -8205577.86446  22543211.524    22543220.5164
  20305772.009   -24756605.418 9 -19273314.08248  20305774.952    20305782.3064
  20522956.064   -22398806.010 9 -17433889.77448  20522958.666    20522965.8334
  22428838.861    -9666316.011 8  -7509021.19846  22428840.698    22428849.0724
  23057432.812    -9752472.014 8  -7589594.15046  23057433.210    23057441.8204
  21679968.140   -11998700.682 9  -9116218.57147  21679970.561    21679977.7004
 00  6  7  2  0  0.0000000  0  8 11 25 05 21 29 15 23 30
  23832033.995    -5510095.261 8  -4277372.74745  23832039.404    23832051.1444
  21807690.669   -16886527.720 9 -13123379.74947  21807692.886    21807701.0964
  22549705.290   -10514125.564 8  -8178966.74846  22549710.770    22549719.5934
  20312283.583   -24722385.155 9 -19246648.97548  20312286.704    20312294.0994
  20524051.289   -22393052.979 9 -17429406.86048  20524053.574    20524060.4414
  22443024.141    -9591773.475 8  -7450936.15646  22443025.853    22443033.4274
  23075494.052    -9657549.037 8  -7515628.28146  23075495.573    23075505.6424
  21672310.934   -12038943.920 9  -9147576.96647  21672312.476    21672319.5734
 00  6  7  2  0 30.0000000  0  8 11 25 05 21 29 15 23 30
  23829333.808    -5524306.690 7  -4288446.57645  23829336.554    23829346.5754
  21795488.756   -16950634.527 8 -13173333.04147  21795493.027    21795501.9164
  22556310.369   -10479423.502 8  -8151926.25146  22556313.685    22556322.9394
  20318901.866   -24687601.534 9 -19219544.85048  20318905.627    20318913.3354
  20525188.201   -22387074.554 9 -17424748.38148  20525191.125    20525198.2344
  22457278.914    -9516856.907 8  -7392559.65046  22457281.958    22457290.7434
  23093605.392    -9562357.286 8  -7441452.96546  23093610.353    23093619.8044
  21664754.840   -12078645.282 9  -9178513.10447  21664757.095    21664764.6994
 00  6  7  2  1  0.0000000  0  8 11 25 05 21 29 15 23 30
  23826729.937    -5537995.486 8  -4299113.17145  23826731.569    23826741.2464
  21783353.202   -17014422.864 9 -13223038.19347  21783355.233    21783363.1284
  22563021.962   -10444171.410 8  -8124457.13446  22563022.219    22563031.5414
  20325630.279   -24652254.323 9 -19192001.58448  20325632.113    20325639.6834
  20526367.232   -22380870.243 9 -17419913.87848  20526371.861    20526378.9374
  22471605.039    -9441569.356 8  -7333894.04946  22471608.310    22471617.1194
  23111775.159    -9466898.407 8  -7367069.51746  23111775.484    23111785.1564
  21657303.017   -12117802.751 9  -9209025.43747  21657305.996    21657313.0814
 00  6  7  2  1 30.0000000  0  8 11 25 05 21 29 15 23 30
  23824225.281    -5551161.773 8  -4309372.59945  23824226.326    23824237.0274
  21771276.286   -17077892.332 9 -13272494.87047  21771277.456    21771284.7354
  22569833.423   -10408370.287 8  -8096560.20746  22569835.013    22569844.5364
  20332464.749   -24616343.905 9 -19164019.49548  20332465.945    20332473.4074
  20527593.040   -22374439.403 9 -17414902.79748  20527595.391    20527602.6824
  22486001.046    -9365914.122 8  -7274941.96446  22486005.709    22486014.0704
  23129986.135    -9371174.247 8  -7292479.37245  23129990.710    23130000.6294
  21649955.908   -12156414.713 9  -9239112.68947  21649958.562    21649965.6254
 00  6  7  2  2  0.0000000  0  8 11 25 05 21 29 15 23 30
  23821820.902    -5563805.569 8  -4319224.90745  23821820.849    23821831.1504
  21759257.943   -17141042.369 9 -13321702.64347  21759260.096    21759267.3864
  22576751.783   -10372021.299 8  -8068236.37046  22576752.827    22576761.6914
  20339402.930   -24579870.986 9 -19135599.12848  20339406.522    20339414.2404
  20528858.006   -22367781.862 9 -17409715.12648  20528862.268    20528869.5984
  22500468.321    -9289894.350 8  -7215705.82646  22500470.451    22500480.8424
  23148254.069    -9275186.641 8  -7217683.88146  23148256.872    23148266.4424
  21642714.652   -12194479.303 9  -9268773.41947  21642715.049    21642722.3444
 00  6  7  2  2 30.0000000  0  8 11 25 05 21 29 15 23 30
  23819510.520    -5575927.056 8  -4328670.22345  23819513.932    23819523.3804
  21747300.169   -17203872.411 8 -13370661.05847  21747303.472    21747311.6544
  22583770.359   -10335125.561 8  -8039486.48046  22583773.208    22583782.6514
  20346451.293   -24542835.652 9 -19106740.43648  20346454.047    20346461.8124
  20530169.559   -22360897.207 9 -17404350.43548  20530172.758    20530179.4394
  22514997.737    -9213513.219 8  -7156188.12846  22515004.636    22515015.0374
  23166572.583    -9178937.145 8  -7142684.32946  23166572.696    23166582.3594
  21635573.102   -12231994.727 9  -9298006.23547  21635576.207    21635582.9284
 00  6  7  2  3  0.0000000  0  8 11 25 05 21 29 15 23 30
  23817305.987    -5587526.282 8  -4337708.53945  23817306.423    23817317.1334
  21735406.654   -17266381.795 9 -13419369.60747  21735408.449    21735416.4314
  22590894.842   -10297684.243 8  -8010311.45846  22590898.731    22590907.6534
  20353605.156   -24505238.271 9 -19077443.82048  20353608.262    20353616.2024
  20531523.796   -22353784.613 9 -17398808.09048  20531525.942    20531532.7864
  22529601.895    -9136773.626 8  -7096391.10546  22529608.165    22529617.7644
  23184939.484    -9082427.637 8  -7067482.20045  23184938.175    23184947.3434
  21628541.428   -12268958.973 9  -9326809.53447  21628541.845    21628548.8204
 00  6  7  2  3 30.0000000  0  8 11 25 05 21 29 15 23 30
  23815191.924    -5598603.260 8  -4346339.95645  23815198.183    23815208.7974
  21723571.712   -17328570.336 9 -13467828.16047  21723574.755    21723582.3244
  22598121.898   -10259698.370 8  -7980712.10346  22598127.027    22598135.6874
  20360866.397   -24467078.894 9 -19047709.25548  20360870.102    20360877.6724
  20532919.992   -22346444.135 9 -17393088.18848  20532922.623    20532929.7624
  22544279.092    -9059678.980 8  -7036317.40646  22544279.600    22544288.2254
  23203345.484    -8985660.045 8  -6992079.00145  23203352.270    23203362.0024
  21621610.988   -12305370.798 9  -9355182.35247  21621612.897    21621620.2814
 00  6  7  2  4  0.0000000  0  8 11 25 05 21 29 15 23 30
  23813187.129    -5609158.549 8  -4354564.83645  23813189.459    23813199.6234
  21711797.805   -17390437.672 9 -13516036.42247  21711802.180    21711809.0624
  22605458.210   -10221169.415 8  -7950689.60046  22605458.820    22605467.7214
  20368235.863   -24428358.613 9 -19017537.59348  20368238.329    20368246.1564
  20534360.424   -22338875.302 9 -17387190.32348  20534362.892    20534370.1024
  22559016.665    -8982232.658 8  -6975969.63946  22559017.608    22559026.0994
  23221815.889    -8888635.944 8  -6916475.89345  23221815.057    23221825.9634
  21614787.925   -12341228.189 9  -9383123.14147  21614790.029    21614796.7054
 00  6  7  2  4 30.0000000  0  8 11 25 05 21 29 15 23 30
  23811276.716    -5619192.225 8  -4362383.26845  23811281.587    23811291.6624
  21700085.809   -17451983.090 9 -13563993.83847  21700090.290    21700097.9734
  22612893.321   -10182098.486 8  -7920244.77446  22612893.296    22612902.4364
  20375712.350   -24389077.411 9 -18986928.84148  20375713.330    20375720.9644
  20535844.153   -22331077.639 9 -17381114.16348  20535846.740    20535853.8154
  22573820.276    -8904437.811 8  -6915350.32146  22573822.072    22573830.9074
  23240318.355    -8791357.159 8  -6840674.35745  23240327.521    23240336.9714
  21608068.864   -12376529.563 9  -9410630.66447  21608071.846    21608079.2674
 00  6  7  2  5  0.0000000  0  8 11 25 05 21 29 15 23 30
  23809469.848    -5628704.502 8  -4369795.37945  23809471.933    23809480.9744
  21688435.357   -17513205.950 9 -13611699.91347  21688439.784    21688447.2314
  22620423.636   -10142486.670 8  -7889378.48946  22620431.103    22620440.5314
  20383292.256   -24349236.108 9 -18955883.67048  20383294.812    20383302.5784
  20537370.598   -22323050.709 9 -17374859.34848  20537373.995    20537381.3824
  22588690.926    -8826297.649 8  -6854461.92746  22588690.584    22588701.6124
  23258879.695    -8693825.373 8  -6764675.66345  23258886.884    23258897.0634
  21601457.682   -12411272.954 9  -9437703.37247  21601460.205    21601468.0474
 00  6  7  2  5 30.0000000  0  8 11 25 05 21 29 15 23 30
  23807757.134    -5637695.474 8  -4376801.34845  23807760.182    23807769.3364
  21676848.163   -17574106.093 9 -13659154.51547  21676850.494    21676858.6184
  22628073.430   -10102335.171 8  -7858091.64946  22628072.386    22628081.2234
  20390979.662   -24308834.986 9 -18924402.31047  20390982.755    20390990.5174
  20538942.334   -22314794.003 9 -17368425.47948  20538945.328    20538952.4344
  22603622.101    -8747815.403 8  -6793306.98046  22603625.172    22603635.7064
  23277496.033    -8596042.664 8  -6688481.41545  23277494.097    23277505.6474
  21594954.852   -12445456.943 9  -9464340.19347  21594955.612    21594963.5024
 00  6  7  2  6  0.0000000  0  8 11 25 05 21 29 15 23 30
  23806144.242    -5646165.448 8  -4383401.32045  23806148.854    23806158.8164
  21665320.692   -17634683.047 9 -13706357.29247  21665323.220    21665330.6854
  22635814.818   -10061645.173 8  -7826385.18846  22635814.960    22635823.6694
  20398775.515   -24267874.707 9 -18892485.27147  20398777.181    20398785.2024
  20540557.736   -22306307.535 9 -17361812.60848  20540560.028    20540567.2274
  22618622.152    -8668994.359 8  -6731888.05446  22618625.346    22618634.0314
  23296145.874    -8498010.913 7  -6612093.08445  23296147.459    23296159.2314
  21588554.591   -12479079.932 9  -9490539.88447  21588556.859    21588564.7274
 00  6  7  2  6 30.0000000  0  8 11 25 05 21 29 15 23 30
  23804629.304    -5654114.842 8  -4389595.64445  23804636.262    23804646.5444
  21653852.460   -17694936.317 9 -13753307.84947  21653857.403    21653865.4424
  22643657.737   -10020418.119 8  -7794260.26846  22643661.099    22643669.7574
  20406674.050   -24226355.758 9 -18860132.88547  20406677.941    20406685.8474
  20542216.053   -22297590.375 9 -17355019.96648  20542218.979    20542226.2734
  22633684.473    -8589837.625 8  -6670207.54846  22633688.062    22633697.0904
  23314849.052    -8399731.826 7  -6535512.06345  23314850.378    23314863.3474
  21582263.829   -12512140.377 9  -9516301.20147  21582265.928    21582273.0874
 00  6  7  2  7  0.0000000  0  8 11 25 05 21 29 15 23 30
  23803219.986    -5661544.008 8  -4395384.57145  23803222.336    23803231.8124
  21642451.334   -17754865.639 9 -13800005.96847  21642453.650    21642461.1504
  22651607.302    -9978655.193 8  -7761717.77846  22651607.974    22651617.5074
  20414682.301   -24184278.616 9 -18827345.54547  20414685.304    20414692.9654
  20543917.738   -22288642.334 9 -17348047.44448  20543921.533    20543928.8494
  22648810.925    -8510348.288 8  -6608267.83146  22648814.315    22648823.1794
  23333595.277    -8301207.163 7  -6458739.68345  23333599.446    23333610.7504
  21576079.601   -12544636.705 9  -9541622.95147  21576082.034    21576089.4594
 00  6  7  2  7 30.0000000  0  8 11 25 05 21 29 15 23 30
  23801909.638    -5668453.124 8  -4400768.29645  23801907.516    23801917.3474
  21631109.299   -17814470.451 9 -13846451.23647  21631111.506    21631118.8834
  22659655.120    -9936357.648 8  -7728758.68346  22659656.562    22659666.5444
  20422794.928   -24141644.102 9 -18794123.85247  20422798.483    20422805.7564
  20545664.820   -22279463.004 9 -17340894.71748  20545668.726    20545675.6194
  22664000.083    -8430529.817 8  -6546071.62646  22664003.172    22664013.7734
  23352392.147    -8202438.868 8  -6381777.46045  23352395.677    23352405.5104
  21570001.050   -12576567.292 9  -9566503.88347  21570005.412    21570013.2064
 00  6  7  2  8  0.0000000  0  8 11 25 05 21 29 15 23 30
  23800689.880    -5674842.671 8  -4405747.12845  23800691.098    23800699.8524
  21619828.319   -17873750.600 9 -13892643.50947  21619830.282    21619837.7234
  22667802.864    -9893526.821 8  -7695384.07146  22667806.473    22667815.9814
  20431014.575   -24098452.262 9 -18760467.83247  20431017.709    20431025.2074
  20547456.997   -22270051.980 9 -17333561.44148  20547459.384    20547466.5894
  22679255.515    -8350385.224 8  -6483621.35446  22679253.809    22679264.5164
  23371233.367    -8103428.643 8  -6304626.71345  23371235.533    23371247.7794
  21564035.886   -12607930.205 9  -9590942.46247  21564037.911    21564045.2124
 00  6  7  2  8 30.0000000  0  8 11 25 05 21 29 15 23 30
  23799567.616    -5680712.935 8  -4410321.35645  23799572.617    23799583.6484
  21608607.931   -17932705.459 9 -13938582.31147  21608611.268    21608618.7524
  22676052.858    -9850164.123 8  -7661594.99646  22676059.358    22676066.9884
  20439337.807   -24054703.881 9 -18726378.13347  20439342.319    20439350.0524
  20549289.403   -22260408.477 9 -17326046.99448  20549294.040    20549301.8614
  22694558.053    -8269917.927 8  -6420919.58446  22694565.776    22694576.5934
  23390109.411    -8004178.571 7  -6227289.10245  23390123.669    23390133.7694
  21558176.181   -12638724.190 9  -9614937.71347  21558178.200    21558185.2574
 00  6  7  2  9  0.0000000  0  8 11 25 05 21 29 15 23 30
  23798554.738    -5686064.865 8  -4414491.73145  23798555.903    23798563.7244
  21597452.324   -17991334.967 9 -13984267.60847  21597454.567    21597461.9564
  22684408.251    -9806270.899 8  -7627392.53846  22684411.154    22684419.6294
  20447770.721   -24010399.826 9 -18691855.41547  20447772.941    20447780.5104
  20551170.980   -22250532.580 9 -17318351.50848  20551173.408    20551181.2284
  22709941.549    -8189131.505 8  -6357969.16946  22709939.536    22709948.8154
  23409059.313    -7904690.416 7  -6149765.94545  23409054.892    23409064.8334
  21552423.890   -12668948.139 9  -9638488.79847  21552426.827    21552433.8464
 00  6  7  2  9 30.0000000  0  8 11 25 05 21 29 15 23 30
  23797639.542    -5690897.979 8  -4418257.78745  23797637.345    23797644.7484
  21586357.104   -18049638.521 9 -14029698.90647  21586359.640    21586366.7914
  22692861.595    -9761848.618 8  -7592777.82446  22692865.190    22692873.9924
  20456307.191   -23965541.091 9 -18656900.51647  20456309.392    20456317.2294
  20553094.354   -22240423.570 9 -17310474.33048  20553097.417    20553104.6814
  22725372.817    -8108029.089 8  -6294772.52146  22725372.834    22725382.5314
  23428030.047    -7804966.038 7  -6072058.71945  23428033.002    23428040.9724
  21546779.830   -12698600.337 9  -9661594.35747  21546783.738    21546791.4614
 00  6  7  2 10  0.0000000  0  8 11 25 05 21 29 15 23 30
  23796811.641    -5695212.947 8  -4421620.06345  23796815.621    23796824.3704
  21575323.152   -18107615.670 9 -14074875.88647  21575327.197    21575334.2844
  22701419.193    -9716898.582 8  -7557751.88046  22701418.510    22701427.5824
  20464947.966   -23920128.131 9 -18621513.78047  20464951.301    20464958.9684
  20555062.878   -22230080.975 9 -17302415.15748  20555065.828    20555072.9444
  22740867.764    -8026613.849 8  -6231332.10746  22740866.177    22740875.3124
  23447057.047    -7705007.556 7  -5994169.11044  23447053.674    23447062.3804
  21541244.383   -12727679.163 9  -9684253.14347  21541249.907    21541257.7924
 00  6  7  2 10 30.0000000  0  8 11 25 05 21 29 15 23 30
  23796094.589    -5699010.583 8  -4424579.26445  23796092.726    23796100.9774
  21564352.571   -18165266.330 9 -14119798.44847  21564355.841    21564363.5704
  22710061.701    -9671422.318 8  -7522315.86546  22710072.284    22710081.2324
  20473695.045   -23874161.789 9 -18585695.88447  20473698.129    20473706.3334
  20557076.535   -22219504.378 9 -17294173.66048  20557078.411    20557085.7144
  22756414.550    -7944888.974 8  -6167650.41146  22756417.235    22756427.2104
  23466127.365    -7604816.638 7  -5916098.34444  23466120.122    23466127.5084
  21535824.079   -12756183.663 9  -9706464.40047  21535825.765    21535833.1234
 00  6  7  2 11  0.0000000  0  8 11 25 05 21 29 15 23 30
  23795464.881    -5702291.219 8  -4427135.61545  23795467.565    23795477.8534
  21553446.010   -18222590.209 9 -14164466.37447  21553448.218    21553455.9324
  22718823.418    -9625421.330 8  -7486470.97846  22718825.741    22718835.7064
  20482547.589   -23827642.944 9 -18549447.47247  20482550.437    20482558.3084
  20559133.169   -22208693.329 9 -17285749.39648  20559135.241    20559142.5534
  22772017.398    -7862857.799 8  -6103730.02946  22772026.169    22772037.5674
  23485226.826    -7504395.217 7  -5837848.01944  23485228.226    23485237.5254
  21530505.671   -12784111.985 9  -9728226.68047  21530510.621    21530518.0784
 00  6  7  2 11 30.0000000  0  8 11 25 05 21 29 15 23 30
  23794940.346    -5705055.495 8  -4429289.61145  23794941.163    23794950.8194
  21542600.390   -18279586.957 9 -14208879.40147  21542602.066    21542609.4184
  22727681.665    -9578896.970 8  -7450218.29446  22727680.169    22727688.3844
  20491506.599   -23780572.146 9 -18512768.90347  20491507.873    20491515.1944
  20561233.632   -22197647.447 9 -17277142.20948  20561237.640    20561244.3924
  22787697.648    -7780523.624 8  -6039573.58646  22787695.178    22787703.7164
  23504384.729    -7403745.242 7  -5759419.56944  23504383.245    23504390.2984
  21525300.850   -12811463.047 9  -9749539.14847  21525305.863    21525313.4574
 00  6  7  2 12  0.0000000  0  8 11 25 05 21 29 15 23 30
  23794506.364    -5707303.817 8  -4431041.54445  23794513.158    23794523.5384
  21531816.078   -18336255.769 9 -14253036.89847  21531818.368    21531825.6314
  22736628.827    -9531850.858 8  -7413559.01646  22736631.064    22736640.4154
  20500568.301   -23732950.277 9 -18475660.98447  20500569.941    20500577.6274
  20563380.736   -22186366.266 9 -17268351.67648  20563383.852    20563390.7584
  22803419.029    -7697889.777 8  -5975183.61146  22803419.863    22803428.7254
  23523576.566    -7302868.637 7  -5680814.49144  23523579.150    23523586.3694
  21520209.662   -12838235.250 9  -9770400.56147  21520211.987    21520219.1814
 00  6  7  2 12 30.0000000  0  8 11 25 05 21 29 15 23 30
  23794178.122    -5709036.790 8  -4432391.87445  23794182.615    23794193.7204
  21521094.263   -18392596.558 9 -14296938.76947  21521096.916    21521104.1654
  22745685.563    -9484284.468 8  -7376494.31046  22745683.886    22745692.9434
  20509732.145   -23684778.172 9 -18438124.27347  20509736.816    20509744.2354
  20565571.529   -22174849.126 9 -17259377.22548  20565575.363    20565582.6894
  22819197.735    -7614959.620 8  -5910562.70446  22819201.141    22819210.3614
  23542815.459    -7201767.277 7  -5602034.31244  23542817.111    23542823.8804
  21515222.761   -12864427.198 9  -9790809.81247  21515227.201    21515235.0234
 00  6  7  2 13  0.0000000  0  8 11 25 05 21 29 15 23 30
  23793950.956    -5710255.137 8  -4433341.23245  23793952.008    23793960.9454
  21510435.273   -18448609.444 9 -14340585.13847  21510437.850    21510444.9024
  22754830.986    -9436199.393 8  -7339025.43946  22754833.749    22754843.2744
  20519005.947   -23636056.525 9 -18400159.35647  20519008.563    20519015.9654
  20567809.330   -22163095.834 9 -17250218.78448  20567812.117    20567819.4334
  22835033.222    -7531736.461 8  -5845713.52646  22835038.031    22835048.1484
  23562086.096    -7100443.010 7  -5523080.39544  23562095.476    23562106.3114
  21510352.651   -12890037.858 9  -9810766.13847  21510353.552    21510361.4944
 00  6  7  2 13 30.0000000  0  8 11 25 05 21 29 15 23 30
  23793813.384    -5710959.340 8  -4433889.93945  23793817.798    23793827.4814
  21499839.582   -18504293.814 9 -14383975.51947  21499841.426    21499848.7784
  22764078.932    -9387596.985 8  -7301153.45946  22764082.925    22764092.1544
  20528381.412   -23586786.187 9 -18361766.88747  20528384.113    20528391.9384
  20570092.013   -22151105.999 9 -17240876.03448  20570093.999    20570100.8224
  22850922.318    -7448223.492 8  -5780638.53446  22850929.709    22850940.1814
  23581425.917    -6998897.901 7  -5443954.46944  23581420.740    23581433.3654
  21505588.598   -12915065.944 9  -9830268.50247  21505591.119    21505598.6034
 00  6  7  2 14  0.0000000  0  7 11 25 05 21 29 15 30
  23793778.866    -5711149.972 8  -4434038.47345  23793780.819    23793790.5314
  21489303.970   -18559649.688 9 -14427109.92347  21489307.255    21489314.7474
  22773429.600    -9338478.751 8  -7262879.52446  22773430.234    22773438.4144
  20537861.249   -23536967.994 9 -18322947.53447  20537864.359    20537872.0064
  20572417.551   -22138878.968 9 -17231348.45348  20572420.635    20572427.7484
  22866873.308    -7364424.040 8  -5715340.32246  22866876.955    22866886.4394
  21500935.366   -12939510.128 9  -9849315.88047  21500939.497    21500947.1914
 00  6  7  2 14 30.0000000  0  7 11 25 05 21 29 15 30
  23793838.550    -5710827.823 8  -4433787.46545  23793843.648    23793852.6294
  21478833.467   -18614676.519 9 -14469987.93647  21478836.048    21478843.3264
  22782872.981    -9288846.557 8  -7224205.10346  22782874.828    22782884.1364
  20547445.699   -23486603.069 9 -18283702.16547  20547448.496    20547456.2484
  20574788.262   -22126414.306 9 -17221635.71948  20574792.487    20574799.7144
  22882878.350    -7280341.389 8  -5649821.37746  22882878.166    22882888.0074
  21496395.134   -12963369.278 9  -9867907.38647  21496399.064    21496406.3594
 00  6  7  2 15  0.0000000  0  7 11 25 05 21 29 15 30
  23793999.809    -5709993.456 8  -4433137.31845  23794001.914    23794010.2004
  21468423.680   -18669374.012 9 -14512609.32847  21468427.772    21468434.9084
  22792419.023    -9238701.670 8  -7185131.19646  22792416.798    22792425.7854
  20557133.633   -23435692.363 9 -18244031.49947  20557136.201    20557144.0694
  20577207.848   -22113711.696 9 -17211737.54948  20577210.004    20577216.7774
  22898932.108    -7195979.089 8  -5584084.58646  22898931.652    22898941.5894
  21491966.126   -12986642.296 9  -9886042.17847  21491970.414    21491977.6664
 00  6  7  2 15 30.0000000  0  7 11 25 05 21 29 15 30
  23794252.970    -5708647.515 8  -4432088.54145  23794257.790    23794267.6324
  21458078.627   -18723741.920 9 -14554973.89647  21458081.675    21458088.9264
  22802051.291    -9188045.890 8  -7145659.18146  22802055.785    22802065.4344
  20566924.674   -23384237.106 9 -18203936.51347  20566927.736    20566935.9304
  20579669.721   -22100770.400 9 -17201653.40148  20579672.392    20579679.3584
  22915034.642    -7111340.243 8  -5518132.29046  22915038.067    22915046.9884
  21487652.605   -13009327.555 9  -9903718.98747  21487653.471    21487660.6434
 00  6  7  2 16  0.0000000  0  7 11 25 05 21 29 15 30
  23794608.972    -5706790.762 8  -4430641.73445  23794611.435    23794619.8394
  21447796.026   -18777780.117 9 -14597081.53747  21447798.426    21447805.6104
  22811787.953    -9136880.896 8  -7105790.36846  22811793.496    22811802.2234
  20576821.869   -23332237.794 9 -18163417.56047  20576823.393    20576831.1404
  20582178.079   -22087590.216 9 -17191383.14548  20582180.456    20582187.4034
  22931192.677    -7026428.378 8  -5451967.21546  22931195.281    22931205.6694
  21483446.203   -13031424.609 9  -9920937.44447  21483448.509    21483455.9374
 00  6  7  2 16 30.0000000  0  7 11 25 05 21 29 15 30
  23795053.949    -5704424.102 8  -4428797.55645  23795060.661    23795070.3834
  21437575.438   -18831488.115 9 -14638931.88647  21437578.606    21437585.7944
  22821622.826    -9085208.255 8  -7065525.97246  22821625.178    22821634.1564
  20586818.213   -23279695.676 9 -18122475.65547  20586821.888    20586829.3464
  20584731.899   -22074170.554 9 -17180926.28048  20584734.521    20584741.5734
  22947406.486    -6941246.611 8  -5385591.86746  22947405.081    22947413.8934
  21479352.544   -13052931.689 9  -9937696.20547  21479355.772    21479362.9974
 00  6  7  2 17  0.0000000  0  7 11 25 05 21 29 15 30
  23795607.620    -5701548.092 8  -4426556.49045  23795607.086    23795617.6474
  21427418.647   -18884865.886 9 -14680524.90747  21427420.911    21427428.0744
  22831552.088    -9033029.532 8  -7024867.26046  22831554.941    22831564.5604
  20596917.288   -23226611.521 9 -18081111.38047  20596923.122    20596930.6894
  20587329.771   -22060511.122 9 -17170282.58048  20587333.680    20587340.8704
  22963659.885    -6855798.225 8  -5319008.74346  22963664.676    22963674.1234
  21475373.668   -13073848.111 9  -9953994.69447  21475375.704    21475382.5874
 00  6  7  2 17 30.0000000  0  7 11 25 05 21 29 15 30
  23796244.959    -5698163.626 8  -4423919.22845  23796250.817    23796260.0444
  21417322.794   -18937913.365 9 -14721860.54747  21417326.346    21417333.6214
  22841577.569    -8980346.450 8  -6983815.52846  22841580.978    22841589.0204
  20607125.808   -23172986.157 9 -18039325.38047  20607127.599    20607135.5674
  20589977.884   -22046611.229 9 -17159451.53048  20589978.970    20589985.7344
  22979970.526    -6770086.683 8  -5252220.58646  22979975.408    22979984.7134
  21471505.390   -13094172.659 9  -9969831.98647  21471508.131    21471515.3994
 00  6  7  2 18  0.0000000  0  7 11 25 05 21 29 15 30
  23796987.268    -5694271.374 8  -4420886.27245  23796992.762    23797001.2324
  21407291.575   -18990630.092 9 -14762938.47847  21407294.855    21407301.7554
  22851694.597    -8927160.757 8  -6942372.14146  22851701.512    22851709.9504
  20617431.044   -23118821.159 9 -17997118.90047  20617434.968    20617442.8404
  20592666.589   -22032470.537 9 -17148432.82548  20592669.990    20592676.5634
  22996333.678    -6684115.537 8  -5185230.08946  22996335.086    22996344.5144
  21467749.146   -13113904.389 9  -9985207.33047  21467753.292    21467760.6684
 00  6  7  2 18 30.0000000  0  7 11 25 05 21 29 15 30
  23797821.836    -5689872.494 8  -4417458.59045  23797829.070    23797839.8404
  21397321.057   -19043015.881 9 -14803758.53247  21397325.716    21397332.9324
  22861918.720    -8873474.352 8  -6900538.58146  22861917.633    22861925.6674
  20627842.976   -23064117.490 9 -17954492.68847  20627844.709    20627852.5644
  20595405.134   -22018088.350 9 -17137225.92848  20595406.653    20595413.2484
  23012737.484    -6597887.970 8  -5118039.86246  23012742.635    23012753.7734
  21464108.933   -13133042.237 9 -10000119.92847  21464111.436    21464118.7374
 00  6  7  2 19  0.0000000  0  7 11 25 05 21 29 15 30
  23798757.170    -5684967.735 8  -4413636.71445  23798763.200    23798772.8504
  21387416.778   -19095070.780 9 -14844320.74847  21387419.791    21387426.4244
  22872227.310    -8819288.949 8  -6858316.19046  22872228.625    22872237.5304
  20638354.832   -23008876.451 9 -17911447.73447  20638356.914    20638365.1644
  20598184.564   -22003464.545 9 -17125830.77848  20598189.151    20598195.8484
  23029196.141    -6511407.459 8  -5050652.54245  23029198.585    23029209.9474
  21460579.561   -13151585.129 9 -10014568.91847  21460582.557    21460589.9674
 00  6  7  2 19 30.0000000  0  7 11 25 05 21 29 15 30
  23799788.386    -5679557.902 8  -4409421.29845  23799793.905    23799802.9384
  21377574.742   -19146794.345 9 -14884624.77747  21377577.173    21377584.4844
  22882628.837    -8764606.107 8  -6815706.18346  22882634.902    22882643.6894
  20648968.525   -22953099.354 9 -17867985.07447  20648971.103    20648978.7594
  20601015.061   -21988598.174 9 -17114246.58248  20601018.259    20601024.8254
  23045699.380    -6424677.154 8  -4983070.53746  23045705.635    23045714.6014
  21457165.860   -13169531.968 9 -10028553.46747  21457167.884    21457174.8174
 00  6  7  2 20  0.0000000  0  7 11 25 05 21 29 15 30
  23800913.957    -5673643.643 8  -4404812.76645  23800918.959    23800928.5494
  21367795.558   -19198186.665 9 -14924670.70647  21367797.992    21367804.4824
  22893131.220    -8709427.795 8  -6772710.11546  22893134.406    22893143.7014
  20659682.933   -22896786.709 9 -17824105.12247  20659686.837    20659694.5804
  20603890.303   -21973489.128 9 -17102473.27248  20603893.538    20603900.0424
  23062257.224    -6337700.325 8  -4915296.47546  23062256.931    23062266.1014
  21453864.823   -13186882.126 9 -10042073.05647  21453866.205    21453873.1354
 00  6  7  2 20 30.0000000  0  7 11 25 05 21 29 15 30
  23802137.591    -5667226.131 8  -4399812.09345  23802139.697    23802148.6814
  21358077.769   -19249247.714 9 -14964458.50047  21358081.170    21358088.0114
  22903724.109    -8653755.700 8  -6729329.25946  22903728.356    22903737.7074
  20670501.989   -22839939.990 9 -17779809.01547  20670504.400    20670512.1134
  20606813.362   -21958136.889 9 -17090510.46648  20606814.856    20606822.0244
  23078849.814    -6250480.394 8  -4847332.92546  23078853.918    23078862.0484
  21450677.517   -13203634.360 9 -10055126.72647  21450677.935    21450685.3864
 00  6  7  2 21  0.0000000  0  7 11 25 05 21 29 15 30
  23803454.074    -5660306.241 8  -4394419.97045  23803456.095    23803465.0894
  21348424.180   -19299976.987 9 -15003987.76047  21348427.226    21348434.3874
  22914417.436    -8597591.600 8  -6685565.03846  22914416.071    22914425.2574
  20681420.834   -22782560.124 9 -17735097.46647  20681423.444    20681431.3464
  20609779.045   -21942541.076 9 -17078357.88648  20609782.702    20609789.4514
  23095495.171    -6163020.703 8  -4779182.56046  23095497.895    23095505.6014
  21447602.421   -13219787.989 9 -10067713.96147  21447604.190    21447611.4034
 00  6  7  2 21 30.0000000  0  7 11 25 05 21 29 15 30
  23804868.507    -5652885.043 8  -4388637.23545  23804868.886    23804877.9914
  21338834.135   -19350374.570 9 -15043258.56347  21338837.003    21338844.3804
  22925198.347    -8540937.388 8  -6641418.90746  22925197.267    22925206.3314
  20692439.605   -22724648.740 9 -17689971.77147  20692443.673    20692451.7954
  20612794.182   -21926701.069 9 -17066015.02548  20612796.806    20612803.5244
  23112180.845    -6075324.591 8  -4710847.99346  23112186.138    23112193.9474
  21444642.629   -13235342.289 9 -10079834.18347  21444644.574    21444651.5684
 00  6  7  2 22  0.0000000  0  7 11 25 05 21 29 15 30
  23806369.015    -5644963.459 8  -4382464.57945  23806376.005    23806385.1344
  21329304.452   -19400440.076 9 -15082270.60347  21329309.645    21329317.0824
  22936072.056    -8483794.909 8  -6596892.30946  22936071.490    22936079.6384
  20703561.790   -22666207.110 9 -17644432.88447  20703564.551    20703572.3754
  20615855.098   -21910616.286 9 -17053481.42548  20615857.793    20615864.2914
  23128910.903    -5987395.463 8  -4642331.84446  23128917.859    23128927.0464
  21441794.879   -13250296.313 9 -10091486.67447  21441798.936    21441806.0024
 00  6  7  2 22 30.0000000  0  7 11 25 05 21 29 15 30
  23807979.732    -5636542.362 8  -4375902.71745  23807979.188    23807987.4454
  21319842.989   -19450173.558 9 -15121023.92447  21319846.024    21319853.1134
  22947032.239    -8426166.078 8  -6551986.74846  22947037.705    22947046.5294
  20714783.997   -22607236.657 9 -17598481.94747  20714786.183    20714794.2854
  20618963.017   -21894286.467 9 -17040756.88448  20618965.337    20618971.9414
  23145696.269    -5899236.516 8  -4573636.62745  23145692.996    23145703.0494
  21439064.488   -13264649.201 9 -10102670.75147  21439067.734    21439074.4794
 00  6  7  2 23  0.0000000  0  7 11 25 05 21 29 15 30
  23809674.779    -5627622.963 8  -4368952.51345  23809677.478    23809685.8654
  21310441.750   -19499575.204 9 -15159518.67647  21310445.047    21310452.0894
  22958096.550    -8368052.748 8  -6506703.63246  22958096.111    22958105.9434
  20726105.979   -22547738.560 9 -17552119.84847  20726108.692    20726116.7984
  20622116.666   -21877710.925 9 -17027840.87848  20622119.286    20622126.1974
  23162509.358    -5810851.160 8  -4504764.99545  23162512.159    23162522.8374
  21436450.897   -13278400.228 9 -10113385.82247  21436450.926    21436457.6574
 00  6  7  2 23 30.0000000  0  7 11 25 05 21 29 15 30
  23811467.667    -5618206.126 8  -4361614.74945  23811467.713    23811478.0024
  21301104.094   -19548644.802 9 -15197754.68447  21301107.003    21301114.6504
  22969241.509    -8309456.707 8  -6461044.38746  22969245.490    22969255.9454
  20737527.135   -22487713.873 9 -17505347.42947  20737530.882    20737538.8784
  20625316.667   -21860889.362 9 -17014733.14148  20625320.271    20625327.1474
  23179368.338    -5722242.652 8  -4435719.43945  23179374.464    23179383.4394
  21433941.552   -13291548.558 9 -10123631.26447  21433948.807    21433955.4774
 00  6  7  2 24  0.0000000  0  7 11 25 05 21 29 15 30
  23813346.731    -5608293.027 7  -4353890.28145  23813353.064    23813364.0544
  21291828.506   -19597381.923 9 -15235731.61847  21291832.495    21291840.5374
  22980487.050    -8250379.867 8  -6415010.49546  22980488.106    22980497.9414
  20749051.992   -22427163.494 9 -17458165.36647  20749053.228    20749061.4624
  20628565.353   -21843821.187 9 -17001433.24048  20628568.028    20628575.2164
  23196280.123    -5633414.438 8  -4366502.69746  23196277.647    23196287.9524
  21431558.935   -13304093.455 9 -10133406.50947  21431561.783    21431568.5454
 00  6  7  2 24 30.0000000  0  7 11 25 05 21 29 15 30
  23815329.144    -5597884.681 8  -4345779.92945  23815333.824    23815343.5284
  21282620.367   -19645786.621 9 -15273449.52147  21282621.971    21282629.7914
  22991816.952    -8190824.052 8  -6368603.36246  22991821.119    22991830.8674
  20760673.306   -22366089.251 9 -17410575.08347  20760675.432    20760683.0864
  20631859.797   -21826505.933 9 -16987940.80348  20631862.999    20631870.2374
  23213220.783    -5544370.014 8  -4297117.46146  23213222.820    23213232.5374
  21429288.186   -13316034.194 9 -10142710.97747  21429289.461    21429296.6914
 00  6  7  2 25  0.0000000  0  7 11 25 05 21 29 15 30
  23817401.906    -5586982.265 8  -4337284.58645  23817409.309    23817418.5474
  21273471.578   -19693858.696 9 -15310908.24647  21273474.322    21273481.7294
  23003242.838    -8130791.429 8  -6321824.70746  23003244.889    23003253.6864
  20772397.218   -22304492.852 9 -17362577.93747  20772397.174    20772404.4384
  20635200.399   -21808943.054 9 -16974255.43548  20635205.061    20635212.2414
  23230201.854    -5455112.765 8  -4227566.42945  23230206.600    23230217.3044
  21427128.105   -13327370.132 9 -10151544.16147  21427132.093    21427139.0214
 00  6  7  2 25 30.0000000  0  7 11 25 05 21 29 15 30
  23819579.392    -5575586.974 8  -4328405.14745  23819578.803    23819587.7814
  21264386.170   -19741598.181 9 -15348107.80847  21264389.754    21264396.9994
  23014755.453    -8070283.850 8  -6274675.93146  23014760.395    23014768.1354
  20784213.942   -22242375.311 9 -17314174.67747  20784217.029    20784224.8524
  20638592.449   -21791132.420 9 -16960377.00148  20638594.589    20638601.6714
  23247227.801    -5365645.935 8  -4157852.07245  23247232.220    23247242.7174
  21425087.393   -13338100.662 9 -10159905.59747  21425090.131    21425097.1344
 00  6  7  2 26  0.0000000  0  7 11 25 05 21 29 15 30
  23821839.915    -5563699.810 8  -4319142.44845  23821840.582    23821849.8924
  21255364.559   -19789005.181 9 -15385048.28947  21255368.359    21255375.2234
  23026366.909    -8009303.158 8  -6227158.47946  23026363.962    23026372.9704
  20796134.669   -22179737.859 9 -17265366.30747  20796136.997    20796144.7124
  20642029.293   -21773073.216 9 -16946304.88448  20642031.514    20642038.0594
  23264295.916    -5275973.021 8  -4087977.14846  23264296.971    23264307.9464
  21423161.164   -13348225.012 9 -10167794.70047  21423163.494    21423170.6794
 00  6  7  2 26 30.0000000  0  7 11 25 05 21 29 15 30
  23824191.120    -5551322.144 8  -4309497.55045  23824196.414    23824206.5424
  21246409.223   -19836079.108 9 -15421729.22847  21246410.259    21246417.3264
  23038057.513    -7947851.207 8  -6179273.89746  23038057.381    23038066.5554
  20808152.136   -22116582.262 9 -17216154.18147  20808155.007    20808162.6844
  20645512.029   -21754764.931 9 -16932038.68348  20645515.333    20645522.0364
  23281401.944    -5186097.263 8  -4017944.11846  23281399.958    23281410.6124
  21421350.579   -13357742.932 9 -10175211.24147  21421352.401    21421359.2334
 00  6  7  2 27  0.0000000  0  7 11 25 05 21 29 15 30
  23826640.495    -5538454.867 8  -4299471.13345  23826642.476    23826653.7314
  21237513.193   -19882820.196 9 -15458150.82047  21237515.768    21237522.7254
  23049837.364    -7885930.065 8  -6131023.65846  23049841.519    23049849.0774
  20820268.962   -22052910.067 9 -17166539.51247  20820271.357    20820279.5264
  20649045.144   -21736207.240 9 -16917578.13348  20649046.534    20649053.3784
  23298531.888    -5096021.785 8  -3947755.52446  23298539.767    23298551.7984
  21419655.160   -13366653.504 9 -10182154.53147  21419656.416    21419663.3874
 00  6  7  2 27 30.0000000  0  7 11 25 05 21 29 15 30
  23829184.025    -5525099.391 8  -4289064.33945  23829184.948    23829195.8604
  21228681.364   -19929228.559 9 -15494313.14547  21228684.662    21228691.8414
  23061704.824    -7823541.751 8  -6082409.39846  23061712.531    23061721.7404
  20832482.972   -21988722.427 9 -17116523.19647  20832486.014    20832494.1184
  20652622.195   -21717399.630 9 -16902922.88048  20652625.301    20652632.5214
  23315712.503    -5005750.098 8  -3877413.98545  23315718.061    23315728.6354
  21418072.129   -13374956.370 9 -10188624.28047  21418076.253    21418083.6504
 00  6  7  2 28  0.0000000  0  7 11 25 05 21 29 15 30
  23831817.261    -5511256.950 8  -4278278.02145  23831820.379    23831829.4394
  21219913.827   -19975304.512 9 -15530216.44347  21219916.381    21219923.5654
  23073672.045    -7760688.262 8  -6033432.67146  23073673.112    23073682.5534
  20844796.472   -21924021.078 9 -17066106.60547  20844798.648    20844806.3174
  20656248.874   -21698341.558 9 -16888072.45048  20656251.811    20656259.1344
  23332934.997    -4915285.756 8  -3806922.33745  23332932.929    23332942.8364
  21416609.142   -13382650.885 9 -10194619.99447  21416611.820    21416619.6734
 00  6  7  2 28 30.0000000  0  7 11 25 05 21 29 15 30
  23834549.132    -5496928.769 8  -4267113.23745  23834548.647    23834555.7224
  21211208.458   -20021047.953 9 -15565860.64747  21211211.502    21211219.0574
  23085720.560    -7697371.720 8  -5984095.09146  23085722.053    23085732.0414
  20857204.620   -21858807.234 9 -17015290.66647  20857208.445    20857215.7724
  20659924.242   -21679032.557 9 -16873026.48648  20659926.578    20659933.2874
  23350178.244    -4824631.994 8  -3736283.11045  23350183.765    23350193.9824
  21415258.967   -13389736.705 9 -10200141.38647  21415263.641    21415271.4204
 00  6  7  2 29  0.0000000  0  7 11 25 05 21 29 15 30
  23837360.830    -5482115.983 8  -4255570.82145  23837366.520    23837374.2244
  21202567.849   -20066458.150 9 -15601245.17147  21202570.009    21202577.4494
  23097852.366    -7633594.168 8  -5934398.33946  23097858.486    23097867.5004
  20869712.191   -21793082.938 9 -16964076.98147  20869715.113    20869723.2594
  20663645.189   -21659472.060 9 -16857784.54648  20663648.613    20663655.5914
  23367463.885    -4733791.819 8  -3665498.60645  23367470.632    23367479.5784
  21414030.423   -13396213.486 9 -10205188.19747  21414031.465    21414038.6484
 00  6  7  2 29 30.0000000  0  7 11 25 05 21 29 15 30
  23840278.666    -5466820.099 8  -4243651.94045  23840277.381    23840285.7094
  21193989.631   -20111535.571 9 -15636370.40047  21193992.400    21193999.1724
  23110078.163    -7569357.867 8  -5884344.12046  23110082.993    23110091.3204
  20882316.522   -21726849.184 9 -16912466.29947  20882319.172    20882326.8204
  20667416.996   -21639659.765 9 -16842346.40348  20667418.961    20667425.7474
  23384785.314    -4642768.649 8  -3594571.53445  23384791.268    23384802.3684
  21412910.251   -13402080.638 9 -10209759.99347  21412914.318    21412922.3544
 00  6  7  2 30  0.0000000  0  7 11 25 05 21 29 15 30
  23843272.994    -5451042.429 8  -4231357.66245  23843278.561    23843288.2094
  21185475.976   -20156280.472 9 -15671236.52347  21185478.375    21185484.4074
  23122393.993    -7504664.611 8  -5833933.79846  23122393.412    23122401.5594
  20895018.430   -21660108.084 9 -16860460.28047  20895019.517    20895027.3594
  20671235.283   -21619595.055 9 -16826711.55848  20671237.121    20671244.0284
  23402148.240    -4551566.082 8  -3523504.64945  23402147.550    23402156.6304
  21411913.651   -13407337.500 9 -10213856.23147  21411914.316    21411921.6934
 00  6  7  2 30 30.0000000  0  7 11 25 05 21 29 15 30
  23846374.095    -5434783.977 8  -4218688.74845  23846372.221    23846383.7364
  21177025.862   -20200692.524 9 -15705843.28947  21177027.232    21177033.4244
  23134787.702    -7439516.578 8  -5783169.10446  23134790.976    23134799.8894
  20907813.330   -21592861.043 9 -16808060.04647  20907816.174    20907824.4284
  20675099.784   -21599277.538 9 -16810879.75348  20675103.579    20675110.2614
  23419537.515    -4460187.496 8  -3452300.60745  23419535.526    23419545.3474
  21411026.343   -13411983.960 9 -10217476.82847  21411030.320    21411037.5444
 00  6  7  2 31  0.0000000  0  7 11 25 05 21 29 15 30
  23849555.766    -5418046.430 8  -4205646.53645  23849558.082    23849567.8394
  21168635.978   -20244771.800 9 -15740190.74447  21168638.928    21168645.5274
  23147275.149    -7373915.854 8  -5732051.69046  23147273.672    23147283.4364
  20920706.971   -21525110.070 9 -16755267.11247  20920708.845    20920716.9624
  20679016.381   -21578706.666 9 -16794850.56048  20679018.239    20679024.8894
  23436951.118    -4368636.109 8  -3380961.96845  23436956.469    23436968.7674
  21410258.437   -13416019.617 9 -10220621.49247  21410262.347    21410269.6724
 00  6  7  2 31 30.0000000  0  7 11 25 05 21 29 15 30
  23852829.670    -5400830.997 8  -4192231.90845  23852833.665    23852843.3824
  21160311.786   -20288518.644 9 -15774279.15848  21160313.463    21160320.8764
  23159837.879    -7307864.263 8  -5680582.98146  23159842.768    23159852.8114
  20933692.164   -21456856.028 9 -16702082.19147  20933696.911    20933705.4544
  20682978.467   -21557881.937 9 -16778623.48448  20682981.250    20682988.0034
  23454406.623    -4276915.090 8  -3309491.10345  23454410.905    23454421.2604
  21409608.438   -13419444.138 9 -10223289.94847  21409610.538    21409617.7704
 00  6  7  2 32  0.0000000  0  7 11 25 05 21 29 15 30
  23856196.708    -5383139.191 8  -4178446.07245  23856200.231    23856208.6014
  21152050.376   -20331932.907 9 -15808108.41948  21152052.655    21152059.1324
  23172489.131    -7241364.050 8  -5628764.66746  23172497.247    23172506.8514
  20946779.823   -21388100.657 9 -16648506.58947  20946781.002    20946788.7174
  20686988.503   -21536802.889 9 -16762198.23048  20686991.568    20686998.8744
  23471888.291    -4185028.238 8  -3237891.01845  23471895.692    23471906.5404
  21409071.262   -13422257.035 9 -10225481.79147  21409075.112    21409082.7294
 00  6  7  2 32 30.0000000  0  7 11 25 05 21 29 15 30
  23859656.031    -5364972.404 8  -4164290.11845  23859657.123    23859665.1514
  21143850.428   -20375014.541 9 -15841678.49248  21143854.238    21143860.8944
  23185238.822    -7174417.635 8  -5576598.64346  23185236.797    23185245.2954
  20959957.282   -21318845.808 9 -16594541.77747  20959959.825    20959967.6384
  20691050.536   -21515469.111 9 -16745574.58948  20691051.713    20691058.6374
  23489411.243    -4092978.831 8  -3166164.24545  23489414.471    23489423.6344
  21408653.864   -13424458.461 9 -10227197.16647  21408656.189    21408663.5234
 00  6  7  2 33  0.0000000  0  7 11 25 05 21 29 15 30
  23863199.808    -5346332.088 8  -4149765.21245  23863202.925    23863212.5464
  21135715.296   -20417763.844 9 -15874989.60448  21135719.069    21135726.0384
  23198055.301    -7107026.938 8  -5524086.42645  23198059.830    23198069.6604
  20973228.123   -21249093.067 9 -16540189.03047  20973232.975    20973241.4994
  20695157.212   -21493879.929 9 -16728751.86848  20695160.129    20695166.7934
  23506962.379    -4000770.062 8  -3094313.34845  23506959.937    23506970.2534
  21408351.387   -13426047.981 9 -10228435.75847  21408353.898    21408361.0524
 00  6  7  2 33 30.0000000  0  7 11 25 05 21 29 15 30
  23866839.457    -5327219.857 8  -4134872.51845  23866841.568    23866849.6524
  21127643.679   -20460180.716 9 -15908041.68248  21127647.328    21127654.3924
  23210964.191    -7039194.257 8  -5471229.84545  23210968.928    23210978.1454
  20986599.534   -21178844.585 9 -16485450.00947  20986601.359    20986609.5994
  20699312.925   -21472034.981 9 -16711729.83048  20699316.744    20699323.7824
  23524531.465    -3908405.044 8  -3022340.69445  23524536.197    23524546.5674
  21408164.244   -13427025.509 9 -10229197.45847  21408167.954    21408175.0104
 00  6  7  2 34  0.0000000  0  7 11 25 05 21 29 15 30
  23870563.878    -5307636.855 8  -4119613.01945  23870567.225    23870576.5454
  21119635.140   -20502265.056 9 -15940834.64748  21119638.751    21119645.8434
  23223956.454    -6970921.598 8  -5418030.40345  23223961.461    23223969.9514
  21000060.666   -21108102.054 9 -16430326.00647  21000063.108    21000071.5194
  20703520.105   -21449933.709 9 -16694508.07548  20703522.433    20703529.4994
  23542137.015    -3815887.248 8  -2950248.97345  23542142.361    23542152.7274
  21408096.802   -13427390.479 9 -10229481.85147  21408098.181    21408105.9464
 00  6  7  2 34 30.0000000  0  7 11 25 05 21 29 15 30
  23874379.692    -5287584.684 8  -4103987.91945  23874384.950    23874392.9774
  21111689.720   -20544016.948 9 -15973368.55348  21111693.654    21111700.5784
  23237030.327    -6902211.233 8  -5364489.92545  23237036.531    23237045.1904
  21013615.813   -21036867.023 9 -16374818.21847  21013618.510    21013626.6884
  20707773.275   -21427575.798 9 -16677086.35848  20707777.012    20707783.9184
  23559774.297    -3723220.262 8  -2878041.04245  23559776.836    23559786.3034
  21408145.422   -13427142.802 9 -10229288.84147  21408145.650    21408153.1764
 00  6  7  2 35  0.0000000  0  7 11 25 05 21 29 15 30
  23878287.039    -5267064.870 8  -4087998.42145  23878289.152    23878298.0364
  21103808.154   -20585436.865 9 -16005643.78648  21103812.224    21103818.6214
  23250189.653    -6833065.422 8  -5310610.11546  23250194.980    23250204.2924
  21027266.330   -20965141.049 9 -16318927.88447  21027267.852    21027275.7244
  20712076.136   -21404960.375 9 -16659463.93548  20712080.689    20712087.7424
  23577433.055    -3630407.210 8  -2805719.24645  23577439.005    23577448.2174
  21408307.189   -13426282.423 9 -10228618.41747  21408309.428    21408316.9764
 00  6  7  2 35 30.0000000  0  7 11 25 05 21 29 15 30
  23882281.283    -5246078.895 8  -4071645.73245  23882282.919    23882291.8814
  21095991.401   -20626524.482 9 -16037660.07248  21095993.461    21096000.1274
  23263434.634    -6763486.401 8  -5256392.74346  23263434.895    23263445.3614
  21041007.809   -20892925.804 9 -16262656.30447  21041009.953    21041018.1694
  20716430.073   -21382087.460 9 -16641640.88748  20716433.416    20716440.2734
  23595126.789    -3537451.185 8  -2733286.05646  23595129.118    23595138.0244
  21408586.828   -13424809.341 9 -10227470.57047  21408589.224    21408597.1934
 00  6  7  2 36  0.0000000  0  7 11 25 05 21 29 15 30
  23886361.206    -5224628.419 8  -4054931.04145  23886364.614    23886372.5724
  21088234.785   -20667280.227 9 -16069417.76048  21088237.770    21088244.3944
  23276752.441    -6693476.197 8  -5201839.40545  23276758.123    23276767.7154
  21054842.349   -20820223.582 9 -16206005.26547  21054844.677    21054852.8354
  20720830.502   -21358956.367 9 -16623616.69748  20720834.974    20720841.9884
  23612845.709    -3444355.689 8  -2660744.16346  23612844.746    23612853.8384
  21408983.380   -13422723.349 9 -10225845.14447  21408986.477    21408994.1254
 00  6  7  2 36 30.0000000  0  7 11 25 05 21 29 15 30
  23890531.543    -5202714.932 8  -4037855.60745  23890533.138    23890543.1934
  21080542.598   -20707704.137 9 -16100916.86148  21080544.960    21080552.0304
  23290160.553    -6623037.005 8  -5146951.76346  23290161.789    23290171.9954
  21068767.378   -20747036.334 9 -16148976.29347  21068772.144    21068779.6794
  20725284.320   -21335566.422 9 -16605390.76648  20725286.151    20725292.7144
  23630581.603    -3351124.012 8  -2588096.13845  23630585.284    23630595.1534
  21409496.391   -13420024.457 9 -10223742.11747  21409500.209    21409507.5074
 00  6  7  2 37  0.0000000  0  7 11 25 05 21 29 15 30
  23894787.724    -5180340.132 8  -4020420.69745  23894791.129    23894800.7234
  21072912.997   -20747796.330 9 -16132157.48748  21072915.650    21072922.6574
  23303644.799    -6552171.345 8  -5091731.82346  23303646.871    23303657.3184
  21082784.511   -20673365.514 8 -16091570.50047  21082790.731    21082798.5574
  20729781.894   -21311917.448 9 -16586962.97648  20729786.273    20729793.1224
  23648345.215    -3257759.497 8  -2515344.65045  23648350.864    23648361.6214
  21410127.672   -13416712.601 9 -10221161.45647  21410130.214    21410137.7764
 00  6  7  2 37 30.0000000  0  7 11 25 05 21 29 15 30
  23899137.852    -5157505.577 8  -4002627.54345  23899136.504    23899145.4604
  21065348.440   -20787556.889 9 -16163139.69848  21065349.653    21065356.5164
  23317201.522    -6480881.226 8  -5036181.12845  23317211.478    23317223.3854
  21096898.234   -20599213.139 8 -16033789.48347  21096901.733    21096909.4464
  20734333.501   -21288008.856 9 -16568332.94248  20734336.174    20734343.1214
  23666145.413    -3164265.566 8  -2442492.33745  23666141.484    23666153.1254
  21410871.910   -13412787.789 9 -10218103.16347  21410877.039    21410884.6724
 00  6  7  2 38  0.0000000  0  7 11 25 05 21 29 15 30
  23903569.412    -5134212.633 8  -3984477.21545  23903569.672    23903578.7374
  21057842.874   -20826986.233 9 -16193863.81148  21057846.152    21057853.0754
  23330859.406    -6409168.929 8  -4980301.46945  23330859.417    23330869.4504
  21111101.255   -20524581.174 9 -15975634.72647  21111103.783    21111111.8094
  20738930.682   -21263840.268 9 -16549500.30648  20738935.242    20738942.1714
  23683947.446    -3070645.678 8  -2369541.87445  23683958.226    23683968.5904
  21411736.672   -13408249.691 9 -10214566.97047  21411740.934    21411748.0924
 00  6  7  2 38 30.0000000  0  7 11 25 05 21 29 15 30
  23908087.156    -5110463.183 8  -3965971.18845  23908089.828    23908097.7334
  21050403.743   -20866084.596 9 -16224330.02348  21050406.036    21050412.9174
  23344580.689    -6337036.601 8  -4924094.48845  23344587.161    23344595.3064
  21125393.076   -20449470.995 9 -15917107.32947  21125397.110    21125404.5234
  20743581.277   -21239410.859 9 -16530464.37948  20743584.248    20743590.9874
  23701801.476    -2976902.856 8  -2296495.62445  23701796.818    23701806.3864
  21412718.472   -13403098.759 9 -10210553.26647  21412721.474    21412728.6444
 00  6  7  2 39  0.0000000  0  7 11 25 05 21 29 15 30
  23912697.710    -5086258.987 8  -3947110.77845  23912695.435    23912702.3414
  21043026.570   -20904851.466 9 -16254537.92948  21043029.338    21043036.1724
  23358395.472    -6264486.579 8  -4867562.08845  23358392.705    23358400.5544
  21139779.513   -20373885.264 9 -15858209.42347  21139780.386    21139788.3624
  20748279.524   -21214720.367 9 -16511225.01948  20748282.149    20748289.1664
  23719651.966    -2883040.492 8  -2223356.19745  23719658.324    23719668.0254
  21413815.952   -13397335.027 9 -10206062.05147  21413817.857    21413825.1484
 00  6  7  2 39 30.0000000  0  7 11 25 05 21 29 15 30
  23917386.304    -5061601.699 8  -3927897.32545  23917387.539    23917394.7664
  21035711.772   -20943287.359 9 -16284487.93148  21035715.121    21035721.6844
  23372273.529    -6191521.224 8  -4810706.02345  23372276.733    23372285.4514
  21154250.585   -20297825.468 9 -15798942.11547  21154253.856    21154261.8454
  20753029.476   -21189768.396 9 -16491781.93248  20753030.636    20753037.2574
  23737537.727    -2789061.614 8  -2150125.97845  23737541.445    23737550.6144
  21415026.304   -13390958.661 9 -10201093.46547  21415030.950    21415038.5854
 00  6  7  2 40  0.0000000  0  7 11 25 05 21 29 15 30
  23922162.855    -5036492.983 8  -3908332.08445  23922164.186    23922173.0074
  21028460.304   -20981392.551 9 -16314180.24248  21028463.864    21028470.7624
  23386240.726    -6118142.611 8  -4753527.95745  23386239.707    23386249.9804
  21168814.471   -20221293.632 9 -15739306.96947  21168817.415    21168825.3884
  20757824.177   -21164554.413 9 -16472134.64948  20757828.537    20757835.3754
  23755446.610    -2694969.721 8  -2076807.68545  23755445.650    23755456.3924
  21416359.983   -13383969.591 9 -10195647.45047  21416361.152    21416368.6744
 00  6  7  2 40 30.0000000  0  7 11 25 05 21 29 15 30
  23927031.156    -5010934.323 8  -3888416.24545  23927029.047    23927037.2614
  21021272.761   -21019167.106 9 -16343614.91948  21021275.156    21021282.4104
  23400284.085    -6044353.287 8  -4696029.86645  23400282.140    23400291.0004
  21183467.855   -20144291.425 9 -15679305.32347  21183470.731    21183479.0484
  20762675.090   -21139078.115 9 -16452283.02548  20762676.758    20762683.5774
  23773369.307    -2600768.223 8  -2003404.04845  23773372.882    23773381.9444
  21417805.615   -13376368.016 9 -10189724.15647  21417807.386    21417815.0464
 00  6  7  2 41  0.0000000  0  7 11 25 05 21 29 15 30
  23931976.965    -4984927.596 8  -3868151.28845  23931977.759    23931986.9244
  21014147.255   -21056611.168 9 -16372792.06548  21014149.904    21014157.2774
  23414398.205    -5970155.634 8  -4638213.56145  23414401.394    23414411.8164
  21198210.085   -20066821.040 8 -15618938.83247  21198212.954    21198220.8424
  20767571.582   -21113338.792 9 -16432226.42048  20767574.793    20767581.6924
  23791320.152    -2506460.356 8  -1929917.51445  23791319.157    23791330.2394
  21419366.863   -13368154.114 9 -10183323.72747  21419370.674    21419378.1324
 00  6  7  2 41 30.0000000  0  7 11 25 05 21 29 15 30
  23937010.449    -4958474.600 8  -3847538.56445  23937012.115    23937021.9534
  21007083.538   -21093725.203 9 -16401712.05248  21007086.942    21007094.3144
  23428597.387    -5895551.818 8  -4580080.80045  23428597.758    23428607.4814
  21213040.934   -19988884.668 8 -15558209.24247  21213043.641    21213051.5484
  20772519.067   -21087335.859 9 -16411964.39648  20772522.978    20772529.9514
  23809280.968    -2412049.329 8  -1856350.59245  23809284.976    23809295.8114
  21421044.920   -13359328.366 9 -10176446.53447  21421050.429    21421057.7144
 00  6  7  2 42  0.0000000  0  7 11 25 05 21 29 15 30
  23942129.766    -4931577.025 8  -3826579.44445  23942130.137    23942140.3664
  21000084.691   -21130509.325 9 -16430374.95548  21000087.469    21000094.3534
  23442864.026    -5820544.321 7  -4521633.47045  23442871.303    23442881.5764
  21227961.471   -19910483.845 8 -15497117.76247  21227962.781    21227970.8904
  20777518.261   -21061069.179 9 -16391496.86848  20777520.951    20777528.4974
  23827258.605    -2317538.362 7  -1782705.75245  23827269.582    23827281.9594
  21422842.759   -13349890.805 9 -10169092.61547  21422846.186    21422853.6884
 00  6  7  2 42 30.0000000  0  7 11 25 05 21 29 15 30
  23947333.646    -4904236.717 8  -3805275.33245  23947332.608    23947343.4374
  20993147.626   -21166963.503 9 -16458780.77948  20993150.935    20993157.2894
  23457219.985    -5745135.324 7  -4462873.29345  23457221.208    23457230.7794
  21242967.647   -19831621.280 8 -15435666.52647  21242970.080    21242978.1914
  20782566.326   -21034538.210 9 -16370823.41448  20782569.673    20782577.0174
  23845271.210    -2222930.586 8  -1708985.51245  23845273.287    23845283.8104
  21424754.115   -13339841.629 9 -10161262.10447  21424758.749    21424765.6124
 00  6  7  2 43  0.0000000  0  7 11 25 05 21 29 15 30
  23952620.566    -4876455.588 8  -3783627.72045  23952620.472    23952629.2604
  20986273.524   -21203088.021 9 -16486929.71848  20986276.045    20986282.8084
  23471640.679    -5669327.230 7  -4403802.10245  23471646.266    23471656.2414
  21258061.376   -19752298.586 8 -15373856.70147  21258064.248    21258073.1724
  20787665.687   -21007742.201 9 -16349943.38948  20787668.555    20787676.2334
  23863283.002    -2128229.443 7  -1635192.51545  23863292.274    23863304.3024
  21426784.500   -13329181.264 9 -10152955.34147  21426787.473    21426794.1794
 00  6  7  2 43 30.0000000  0  7 11 25 05 21 29 15 30
  23957990.160    -4848235.343 8  -3761637.92845  23957990.386    23957999.1144
  20979461.241   -21238883.372 9 -16514822.15648  20979464.493    20979471.3294
  23486139.502    -5593122.339 7  -4344421.75145  23486147.975    23486158.3634
  21273242.568   -19672518.010 8 -15311690.01147  21273245.816    21273254.7774
  20792815.645   -20980681.032 9 -16328856.77548  20792818.040    20792826.0574
  23881335.567    -2033438.261 7  -1561329.34945  23881332.003    23881343.8084
  21428930.612   -13317909.917 9 -10144172.50847  21428932.538    21428939.4514
 00  6  7  2 44  0.0000000  0  7 11 25 05 21 29 15 30
  23963445.860    -4819577.765 8  -3739307.37345  23963442.600    23963453.2594
  20972712.691   -21274349.624 9 -16542458.15148  20972715.493    20972722.4564
  23500714.576    -5516522.958 7  -4284734.00745  23500724.760    23500734.6274
  21288511.369   -19592281.553 8 -15249168.12347  21288515.157    21288522.9614
  20798015.120   -20953353.995 9 -16307562.96648  20798018.401    20798025.8214
  23899386.913    -1938560.266 8  -1487398.58545  23899387.545    23899397.7444
  21431190.553   -13306027.932 9 -10134913.84247  21431193.189    21431200.3194
 00  6  7  2 44 30.0000000  0  7 11 25 05 21 29 15 30
  23968979.942    -4790484.766 8  -3716637.48645  23968980.701    23968988.3074
  20966024.281   -21309487.155 9 -16569838.01148  20966028.812    20966035.8314
  23515376.967    -5439531.690 8  -4224740.87345  23515376.708    23515386.3134
  21303867.296   -19511591.589 9 -15186292.88447  21303869.835    21303877.6914
  20803268.705   -20925760.714 9 -16286061.64048  20803269.367    20803276.4684
  23917459.640    -1843598.877 8  -1413402.79445  23917458.324    23917469.5694
  21433565.801   -13293535.565 9 -10125179.55547  21433570.088    21433577.2144
 00  6  7  2 45  0.0000000  0  7 11 25 05 21 29 15 30
  23974598.124    -4760958.280 8  -3693629.83345  23974597.528    23974607.3054
  20959401.323   -21344296.017 9 -16596961.75348  20959404.950    20959411.6854
  23530100.424    -5362150.761 8  -4164444.11945  23530102.505    23530110.5714
  21319306.187   -19430450.162 9 -15123065.83747  21319310.644    21319318.3344
  20808566.918   -20897900.789 9 -16264352.59748  20808571.061    20808577.9004
  23935540.866    -1748557.052 8  -1339344.29845  23935544.939    23935554.5224
  21436060.486   -13280433.184 9 -10114969.92547  21436063.668    21436070.7864
 00  6  7  2 45 30.0000000  0  7 11 25 05 21 29 15 30
  23980298.647    -4730999.924 8  -3670285.68645  23980298.844    23980307.8964
  20952841.987   -21378776.521 9 -16623829.67348  20952843.701    20952850.4334
  23544897.544    -5284382.539 7  -4103845.58945  23544899.838    23544909.5254
  21334831.906   -19348858.573 8 -15059487.98947  21334836.519    21334845.0464
  20813918.945   -20869773.609 9 -16242435.32148  20813923.277    20813930.3124
  23953642.428    -1653438.044 8  -1265225.69145  23953645.599    23953654.8584
  21438669.012   -13266721.573 9 -10104285.56047  21438672.910    21438680.2444
 00  6  7  2 46  0.0000000  0  7 11 25 05 21 29 15 30
  23986080.585    -4700611.865 8  -3646606.65545  23986081.549    23986090.3234
  20946340.478   -21412929.188 9 -16650442.16748  20946344.571    20946351.2874
  23559772.618    -5206229.513 8  -4042947.27845  23559771.946    23559782.5614
  21350446.758   -19266819.913 8 -14995561.77747  21350448.279    21350456.1124
  20819323.506   -20841379.293 9 -16220309.92248  20819326.378    20819334.1514
  23971755.657    -1558245.221 7  -1191049.58445  23971759.574    23971768.5104
  21441392.921   -13252401.162 9 -10093126.81647  21441398.191    21441405.3544
 00  6  7  2 46 30.0000000  0  8 11 25 05 21 29 15 20 30
  23991941.793    -4669795.976 8  -3622594.29145  23991944.201    23991954.6124
  20939905.953   -21446753.950 9 -16676799.12548  20939907.937    20939914.7054
  23574720.700    -5127694.172 7  -3981750.97645  23574716.630    23574726.6154
  21366142.948   -19184335.997 9 -14931288.64547  21366144.486    21366153.1524
  20824776.886   -20812716.585 9 -16197975.37348  20824780.543    20824788.4144
  23989886.158    -1462981.702 7  -1116818.37745  23989887.031    23989896.6174
  24627815.156     -377521.91017   -282218.61755  24627819.062    24627830.3544
  21444235.924   -13237472.122 9 -10081493.80947  21444239.066    21444245.9794
 00  6  7  2 47  0.0000000  0  8 11 25 05 21 29 15 20 30
  23997889.063    -4638554.209 8  -3598250.03145  23997889.375    23997898.4914
  20933530.876   -21480250.975 9 -16702900.69648  20933533.575    20933540.4664
  23589732.345    -5048778.714 7  -3920258.48845  23589734.704    23589744.6694
  21381923.560   -19101408.913 8 -14866670.21847  21381925.050    21381933.6884
  20830282.104   -20783785.349 9 -16175431.52547  20830286.078    20830293.5374
  24008029.178    -1367650.985 7  -1042534.78545  24008028.239    24008037.9264
  24608056.839     -481362.883 7   -363133.50045  24608058.677    24608066.8144
  21447192.194   -13221934.980 9 -10069386.97147  21447195.925    21447202.7694
 00  6  7  2 47 30.0000000  0  8 11 25 05 21 29 15 20 30
  24003912.662    -4606888.374 8  -3573575.35245  24003915.044    24003924.3554
  20927218.489   -21513420.799 9 -16728747.28148  20927221.652    20927228.6674
  23604817.008    -4969485.531 7  -3858471.68545  23604823.211    23604834.0284
  21397786.061   -19018041.017 9 -14801708.27147  21397789.704    21397798.0664
  20835840.790   -20754585.196 9 -16152678.18047  20835843.069    20835850.1694
  24026176.074    -1272256.218 7   -968201.31145  24026180.780    24026191.0554
  24588323.473     -585040.887 7   -443921.42845  24588329.113    24588339.3494
  21450266.346   -13205790.277 9 -10056806.72047  21450268.148    21450275.2804
 00  6  7  2 48  0.0000000  0  8 11 25 05 21 29 15 20 30
  24010016.997    -4574800.472 8  -3548571.77145  24010020.807    24010032.1944
  20920969.323   -21546263.405 9 -16754338.89448  20920971.564    20920979.0784
  23619979.583    -4889817.015 8  -3796392.42845  23619984.591    23619994.2544
  21413735.294   -18934234.863 9 -14736404.82347  21413737.387    21413745.7804
  20841447.132   -20725115.709 9 -16129714.95548  20841451.006    20841457.9614
  24044345.456    -1176800.382 8   -893820.21845  24044346.124    24044356.4194
  24568627.086     -688553.436 7   -524580.41745  24568631.316    24568641.3724
  21453451.511   -13189038.563 9 -10043753.46647  21453455.704    21453462.5894
 00  6  7  2 48 30.0000000  0  8 11 25 05 21 29 15 20 30
  24016204.783    -4542292.659 7  -3523241.03045  24016205.732    24016218.4864
  20914781.488   -21578779.444 9 -16779676.08548  20914784.129    20914791.1674
  23635212.078    -4809775.909 7  -3734022.80545  23635215.721    23635226.4824
  21429764.969   -18849992.028 8 -14670761.11147  21429768.310    21429776.7674
  20847105.999   -20695376.388 9 -16106541.44648  20847109.865    20847117.2614
  24062522.562    -1081286.806 8   -819394.14445  24062522.703    24062532.7494
  24548962.692     -791897.956 7   -605108.42645  24548966.344    24548975.4144
  21456757.049   -13171680.558 9 -10030227.76747  21456758.918    21456765.7284
 00  6  7  2 49  0.0000000  0  8 11 25 05 21 29 15 20 30
  24022470.579    -4509366.872 7  -3497584.58945  24022471.363    24022483.6624
  20908654.402   -21610969.256 9 -16804758.98948  20908658.987    20908665.6154
  23650514.466    -4729364.444 7  -3671364.62145  23650517.133    23650528.1224
  21445878.228   -18765315.087 8 -14604779.12747  21445881.960    21445889.7574
  20852816.247   -20665366.699 9 -16083157.26548  20852820.552    20852828.1754
  24080707.482     -985718.850 8   -744925.67945  24080707.645    24080719.4104
  24529327.379     -895071.732 7   -685503.39545  24529333.131    24529342.3004
  21460176.021   -13153716.844 9 -10016230.08547  21460176.915    21460184.1124
 00  6  7  2 49 30.0000000  0  8 11 25 05 21 29 15 20 30
  24028817.057    -4476025.167 7  -3471604.01545  24028817.232    24028828.7374
  20902593.309   -21642832.932 9 -16829587.77048  20902595.547    20902602.1134
  23665884.676    -4648584.885 7  -3608419.63245  23665888.669    23665899.1244
  21462075.771   -18680206.175 8 -14538460.54147  21462077.350    21462085.8864
  20858579.692   -20635086.470 9 -16059562.35548  20858582.898    20858590.1754
  24098899.037     -890099.744 7   -670417.40245  24098903.368    24098915.3334
  24509727.801     -998072.221 7   -765763.35045  24509731.012    24509741.7364
  21463706.855   -13135147.910 9 -10001760.78347  21463710.598    21463717.6514
 00  6  7  2 50  0.0000000  0  8 11 25 05 21 29 15 20 30
  24035238.709    -4442269.465 7  -3445300.87045  24035239.860    24035251.6724
  20896590.098   -21674370.778 9 -16854162.67748  20896593.911    20896600.7004
  23681328.398    -4567439.834 7  -3545189.81145  23681329.787    23681341.8424
  21478352.510   -18594667.234 8 -14471806.89047  21478355.033    21478363.6464
  20864394.441   -20604535.117 9 -16035756.10548  20864396.560    20864403.6824
  24117102.274     -794432.494 7   -595871.59145  24117107.826    24117121.5264
  24490159.937    -1100897.012 7   -845886.46845  24490163.829    24490174.0224
  21467355.147   -13115974.581 9  -9986820.56347  21467359.482    21467367.0414
 00  6  7  2 50 30.0000000  0  8 11 25 05 21 29 15 20 30
  24041735.505    -4408101.906 7  -3418676.82245  24041740.295    24041753.0364
  20890652.328   -21705583.552 9 -16878484.34748  20890654.608    20890661.1454
  23696836.543    -4485931.913 7  -3481677.24345  23696840.646    23696851.9254
  21494714.079   -18508700.653 8 -14404819.99947  21494713.752    21494722.3714
  20870260.125   -20573712.066 9 -16011738.16248  20870262.345    20870269.1884
  24135313.903     -698720.306 7   -521290.74745  24135322.224    24135334.5084
  24470631.853    -1203543.393 7   -925870.56045  24470631.008    24470641.7544
  21471119.605   -13096197.485 9  -9971409.87047  21471122.968    21471130.2134
 00  6  7  2 51  0.0000000  0  8 11 25 05 21 29 15 20 30
  24048324.109    -4373524.462 7  -3391733.38545  24048322.364    24048333.7154
  20884774.106   -21736471.240 9 -16902552.68348  20884776.795    20884783.3004
  23712409.809    -4404063.474 7  -3417883.73945  23712419.761    23712431.5474
  21511152.384   -18422309.304 8 -14337502.11147  21511153.849    21511162.3614
  20876177.086   -20542617.098 9 -15987508.34848  20876179.290    20876186.4504
  24153544.350     -602966.282 7   -446677.26045  24153543.391    24153555.2744
  24451129.929    -1306008.847 7  -1005713.62545  24451131.992    24451142.4654
  21474999.197   -13075817.191 9  -9955529.13547  21475001.116    21475008.4724
 00  6  7  2 51 30.0000000  0  8 11 25 05 21 29 15 20 30
  24054978.096    -4338539.240 8  -3364472.17745  24054980.136    24054991.9334
  20878958.824   -21767034.040 9 -16926367.83948  20878960.973    20878967.3124
  23728066.512    -4321837.198 7  -3353811.37645  23728066.981    23728077.2864
  21527671.460   -18335495.050 8 -14269854.68547  21527674.270    21527682.7244
  20882145.704   -20511249.480 9 -15963066.05248  20882148.450    20882155.7864
  24171760.973     -507173.546 7   -372033.71445  24171770.677    24171784.3704
  24431667.951    -1408290.733 7  -1085413.68545  24431667.804    24431680.0694
  21478988.227   -13054834.388 9  -9939178.90747  21478993.602    21479001.1934
 00  6  7  2 52  0.0000000  0  8 11 25 05 21 29 15 20 30
  24061709.152    -4303148.319 8  -3336894.82545  24061714.827    24061726.8394
  20873203.531   -21797272.530 9 -16949930.29548  20873206.601    20873213.3054
  23743780.438    -4239255.397 7  -3289462.00145  23743782.140    23743793.2624
  21544271.527   -18248260.788 8 -14201879.99147  21544273.976    21544282.4884
  20888167.851   -20479609.135 9 -15938411.22048  20888169.834    20888176.4644
  24190005.937     -411345.378 7   -297362.47645  24190008.519    24190019.1384
  24412231.819    -1510386.237 7  -1164968.57345  24412239.900    24412251.7344
  21483097.803   -13033250.014 9  -9922359.92147  21483101.038    21483108.8684
 00  6  7  2 52 30.0000000  0  8 11 25 05 21 29 15 20 30
  24068527.727    -4267354.110 8  -3309003.24745  24068527.709    24068538.2424
  20867511.930   -21827186.990 9 -16973240.24248  20867514.278    20867520.7394
  23759563.431    -4156320.632 7  -3224837.60345  23759565.083    23759573.9504
  21560951.601   -18160608.117 8 -14133579.27247  21560954.514    21560962.2414
  20894239.617   -20447695.538 9 -15913543.52748  20894242.616    20894249.4784
  24208241.544     -315484.869 7   -222666.08145  24208246.755    24208262.0864
  24392842.522    -1612292.962 7  -1244376.28245  24392846.807    24392859.6334
  21487320.384   -13011064.779 9  -9905072.74947  21487322.961    21487330.9994
 00  6  7  2 53  0.0000000  0  8 11 25 05 21 29 15 20 30
  24075412.922    -4231158.363 8  -3280798.76645  24075415.404    24075423.8874
  20861879.447   -21856777.942 9 -16996298.05448  20861882.915    20861889.5654
  23775411.364    -4073035.308 7  -3159939.99145  23775412.003    23775423.8234
  21577708.725   -18072539.207 8 -14064954.20847  21577713.731    21577721.4684
  20900365.372   -20415508.182 9 -15888462.52348  20900367.383    20900374.6744
  24226491.032     -219595.559 7   -147947.21745  24226497.199    24226507.0934
  24373493.093    -1714008.387 7  -1323634.95445  24373491.082    24373503.0104
  21491656.692   -12988279.447 9  -9887317.96147  21491659.021    21491666.7474
 00  6  7  2 53 30.0000000  0  8 11 25 05 21 29 15 20 30
  24082376.125    -4194563.065 8  -3252282.91645  24082379.537    24082388.5464
  20856310.558   -21886045.477 9 -17019103.90748  20856313.379    20856319.9714
  23791334.850    -3989401.697 7  -3094771.00345  23791326.914    23791337.6924
  21594546.371   -17984056.981 8 -13996007.06647  21594551.193    21594558.8564
  20906540.807   -20383046.716 9 -15863167.89448  20906545.053    20906551.8104
  24244756.201     -123680.192 7    -73208.05545  24244749.230    24244759.3794
  24354170.313    -1815529.865 7  -1402742.50845  24354171.700    24354183.8134
  21496108.636   -12964894.836 9  -9869096.20747  21496108.822    21496116.3554
 00  6  7  2 54  0.0000000  0  8 11 25 05 21 29 15 20 30
  24089416.287    -4157570.819 8  -3223457.83245  24089417.638    24089427.3664
  20850801.337   -21914990.271 9 -17041658.28248  20850805.217    20850811.8824
  23807294.037    -3905422.135 7  -3029332.43345  23807307.869    23807318.5414
  21611463.838   -17895163.536 8 -13926739.47047  21611466.806    21611475.1434
  20912771.732   -20350310.609 9 -15837659.26648  20912774.267    20912781.4394
  24262995.786      -27742.102 7      1548.80345  24263006.692    24263015.7304
  24334885.789    -1916854.676 7  -1481696.83245  24334892.050    24334902.4244
  21500667.552   -12940911.874 9  -9850408.18247  21500672.650    21500680.1104
 00  6  7  2 54 30.0000000  0  8 11 25 05 21 29 15 20 30
  24096524.942    -4120183.487 7  -3194324.87145  24096533.274    24096541.7874
  20845354.460   -21943612.321 9 -17063961.18348  20845358.799    20845365.2504
  23823348.936    -3821099.544 7  -2963626.56845  23823353.888    23823367.0454
  21628454.934   -17805861.456 8 -13857153.48547  21628460.070    21628469.2214
  20919051.769   -20317299.508 9 -15811936.37248  20919056.165    20919063.2654
  24281270.413       68215.800 8     76321.13945  24281267.092    24281273.9574
  24315641.237    -2017980.309 7  -1560495.98145  24315646.531    24315658.3404
  21505345.695   -12916331.278 9  -9831254.47447  21505350.210    21505357.6994
 00  6  7  2 55  0.0000000  0  8 11 25 05 21 29 15 20 30
  24103723.617    -4082403.368 8  -3164885.83445  24103722.111    24103730.4234
  20839971.318   -21971912.013 9 -17086012.87748  20839973.680    20839979.9794
  23839475.880    -3736436.180 7  -2897655.20145  23839466.449    23839474.6804
  21645528.187   -17716153.128 8 -13787250.93947  21645531.183    21645539.7264
  20925387.994   -20284013.106 9 -15785998.97948  20925390.836    20925397.4554
  24299518.257      164190.152 7    151106.28145  24299529.995    24299540.0504
  24296439.469    -2118903.964 7  -1639137.72545  24296442.061    24296454.1494
  21510138.648   -12891154.158 9  -9811635.96347  21510141.242    21510148.8334
 00  6  7  2 55 30.0000000  0  8 11 25 05 21 29 15 20 30
  24110979.268    -4044232.542 8  -3135142.33445  24110985.942    24110994.5374
  20834647.139   -21999889.994 9 -17107813.88548  20834649.551    20834656.1124
  23855634.836    -3651434.658 7  -2831420.33445  23855641.738    23855652.0914
  21662678.925   -17626040.685 8 -13717033.51847  21662679.270    21662687.8754
  20931773.775   -20250450.922 9 -15759846.67348  20931777.220    20931784.2154
  24317798.818      260178.014 8    225901.90545  24317794.873    24317801.6164
  24277271.421    -2219622.803 8  -1717619.86945  24277276.986    24277288.4354
  21515040.425   -12865381.295 9  -9791553.23447  21515045.841    21515052.7714
 00  6  7  2 56  0.0000000  0  8 11 25 05 21 29 15 20 30
  24118319.361    -4005673.246 8  -3105096.12345  24118323.902    24118332.1894
  20829384.231   -22027546.634 9 -17129364.48648  20829386.841    20829393.3164
  23871876.513    -3566097.721 7  -2764924.06745  23871880.548    23871889.8094
  21679900.871   -17535526.766 8 -13646503.23946  21679903.232    21679911.7634
  20938212.089   -20216612.544 9 -15733479.14747  20938215.798    20938223.4014
  24336065.429      356176.069 8    300705.44545  24336062.542    24336074.0034
  24258143.924    -2320134.527 7  -1795940.59045  24258149.816    24258160.7364
  21520061.563   -12839013.759 9  -9771007.11347  21520063.432    21520070.7604
 00  6  7  2 56 30.0000000  0  8 11 25 05 21 29 15 20 30
  24125731.811    -3966727.405 8  -3074748.71545  24125735.779    24125743.0614
  20824181.867   -22054881.915 9 -17150664.66348  20824185.076    20824191.3004
  23888161.634    -3480427.950 7  -2698168.43845  23888182.704    23888192.4574
  21697202.388   -17444614.247 8 -13575662.39546  21697202.946    21697211.4534
  20944703.943   -20182497.499 9 -15706896.04147  20944707.818    20944715.2654
  24354328.873      452181.182 8    375514.55345  24354332.811    24354342.4394
  24239066.689    -2420436.649 7  -1874097.98145  24239062.858    24239073.1654
  21525191.540   -12812052.651 9  -9749998.46647  21525194.111    21525201.2864
 00  6  7  2 57  0.0000000  0  8 11 25 05 21 29 15 20 30
  24133215.664    -3927397.654 8  -3044102.16145  24133218.822    24133227.5754
  20819042.856   -22081896.787 9 -17171715.11748  20819044.672    20819050.6594
  23904555.161    -3394427.530 7  -2631155.19845  23904546.661    23904558.6624
  21714577.511   -17353304.934 8 -13504512.36646  21714578.531    21714587.2274
  20951248.765   -20148105.442 9 -15680097.05947  20951252.488    20951259.6794
  24372608.064      548190.350 8    450326.79745  24372602.429    24372611.5824
  24220007.648    -2520526.232 7  -1952089.72245  24220016.429    24220027.9494
  21530433.424   -12784498.484 9  -9728527.70647  21530437.835    21530444.8754
 00  6  7  2 57 30.0000000  0  8 11 25 05 21 29 15 20 30
  24140769.198    -3887686.717 8  -3013158.60845  24140776.651    24140784.4094
  20813962.587   -22108591.604 9 -17192516.20748  20813964.548    20813970.4544
  23920981.291    -3308099.180 7  -2563886.38344  23920977.374    23920983.9284
  21732028.542   -17261601.335 8 -13433055.12446  21732029.750    21732037.6304
  20957843.252   -20113435.990 9 -15653081.94447  20957850.198    20957857.3594
  24390866.783      644200.343 7    525139.67945  24390872.208    24390883.6044
  24201008.742    -2620400.657 7  -2029913.84345  24201009.731    24201021.6594
  21535791.449   -12756352.593 9  -9706595.85947  21535793.845    21535800.3054
 00  6  7  2 58  0.0000000  0  7 11 25 21 29 15 20 30
  24148400.918    -3847596.057 8  -2981919.19145  24148406.526    24148415.4894
  20808942.749   -22134966.782 9 -17213068.26348  20808945.331    20808951.3594
  21749552.235   -17169505.894 8 -13361292.50746  21749555.099    21749562.6614
  20964498.710   -20078488.762 9 -15625850.36648  20964500.886    20964507.8294
  24409137.532      740208.403 7    599951.09545  24409142.024    24409152.4254
  24182044.057    -2720057.263 7  -2107568.21845  24182047.217    24182056.7474
  21541261.630   -12727616.036 9  -9684203.73847  21541261.866    21541269.2194
 00  6  7  2 58 30.0000000  0  7 11 25 21 29 15 20 30
  24156101.049    -3807128.166 7  -2950385.79445  24156104.886    24156115.1914
  20803982.318   -22161022.505 9 -17233371.42148  20803986.787    20803993.2634
  21767152.627   -17077021.407 8 -13289226.73746  21767154.211    21767162.2734
  20971201.651   -20043263.255 9 -15598401.93547  20971203.434    20971210.9224
  24427408.463      836211.144 7    674758.31145  24427410.051    24427422.1344
  24163124.306    -2819493.444 7  -2185050.84045  24163124.507    24163134.7774
  21546839.975   -12698290.104 9  -9661352.36447  21546842.349    21546849.6024
 00  6  7  2 59  0.0000000  0  7 11 25 21 29 15 20 30
  24163871.931    -3766285.639 7  -2918560.44545  24163877.552    24163887.8854
  20799085.868   -22186759.124 9 -17253425.93148  20799089.304    20799095.9404
  21784826.539   -16984150.446 8 -13216859.83247  21784827.083    21784836.3084
  20977956.855   -20007759.262 9 -15570736.50747  20977959.908    20977967.0954
  24445663.933      932205.571 7    749559.08745  24445677.805    24445688.6584
  24144238.476    -2918706.576 7  -2262359.65545  24144245.344    24144254.7214
  21552534.206   -12668375.621 9  -9638042.38047  21552534.810    21552542.3904
 00  6  7  2 59 30.0000000  0  7 11 25 21 29 15 20 30
  24171711.136    -3725070.615 7  -2886444.84745  24171719.040    24171729.9234
  20794250.021   -22212177.234 9 -17273232.22348  20794252.151    20794259.1904
  21802570.449   -16890895.402 8 -13144193.64646  21802572.665    21802581.7694
  20984764.161   -19971976.425 9 -15542853.81647  20984768.966    20984776.3174
  24463939.917     1028188.480 7    824350.88945  24463942.278    24463953.7224
  24125409.455    -3017693.967 7  -2339492.52245  24125406.766    24125417.0234
  21558336.855   -12637873.624 9  -9614274.58747  21558338.962    21558346.8224
 00  6  7  3  0  0.0000000  0  7 11 25 21 29 15 20 30
  24179619.631    -3683485.197 7  -2854040.65245  24179633.169    24179643.8464
  20789473.018   -22237277.407 9 -17292790.82948  20789475.844    20789482.8194
  21820389.102   -16797258.593 8 -13071229.95446  21820391.247    21820400.3754
  20991632.294   -19935914.390 9 -15514753.56947  20991631.447    20991638.6934
  24482194.685     1124157.034 7    899131.44345  24482204.349    24482216.9984
  24106613.274    -3116452.850 7  -2416447.33745  24106614.918    24106622.7984
  21564253.598   -12606785.050 9  -9590049.70947  21564254.629    21564262.2644
 00  6  7  3  0 30.0000000  0  7 11 25 21 29 15 20 30
  24187610.848    -3641531.828 8  -2821349.72645  24187617.398    24187627.1374
  20784756.988   -22262060.154 9 -17312102.04248  20784759.866    20784766.7994
  21838278.218   -16703242.458 8 -12997970.67246  21838281.584    21838290.9974
  20998544.175   -19899572.547 9 -15486435.29947  20998547.173    20998554.0044
  24500463.743     1220108.122 7    973898.45645  24500463.405    24500476.2064
  24087863.086    -3214980.624 8  -2493222.16945  24087867.000    24087874.8474
  21570279.327   -12575111.594 9  -9565369.08547  21570281.951    21570289.5154
 00  6  7  3  1  0.0000000  0  7 11 25 21 29 15 20 30
  24195669.069    -3599212.859 7  -2788373.95945  24195671.054    24195680.3414
  20780100.690   -22286525.708 9 -17331166.14848  20780104.335    20780111.1704
  21856241.161   -16608849.834 8 -12924418.04346  21856243.442    21856253.5734
  21005512.147   -19862950.817 9 -15457898.92147  21005516.168    21005523.0214
  24518713.992     1316038.858 7   1048649.55745  24518720.178    24518730.5774
  24069163.746    -3313274.788 8  -2569814.93645  24069161.849    24069169.3724
  21576419.557   -12542854.191 9  -9540233.43647  21576420.233    21576427.8994
 00  6  7  3  1 30.0000000  0  7 11 25 21 29 15 20 30
  24203789.121    -3556530.728 7  -2755115.21345  24203792.616    24203801.8584
  20775506.801   -22310674.611 9 -17349983.45148  20775509.093    20775515.7854
  21874275.694   -16514083.304 8 -12850574.07546  21874277.711    21874287.6374
  21012536.960   -19826048.626 9 -15429143.99447  21012538.627    21012544.9884
  24536965.819     1411945.962 7   1123382.24145  24536969.286    24536981.0714
  24050502.225    -3411332.457 7  -2646223.38845  24050501.480    24050509.1744
  21582666.133   -12510014.256 9  -9514643.87547  21582669.653    21582677.2034
 00  6  7  3  2  0.0000000  0  6 11 25 21 29 20 30
  24211980.106    -3513487.584 8  -2721575.14745  24211983.355    24211992.9554
  20770971.017   -22334507.503 9 -17368554.58548  20770973.914    20770980.7924
  21892378.893   -16418945.343 8 -12776440.65046  21892382.033    21892391.1024
  21019610.936   -19788865.552 9 -15400170.18447  21019614.269    21019621.2944
  24031884.613    -3509151.056 7  -2722445.60245  24031885.739    24031895.6324
  21589025.053   -12476592.816 9  -9488601.17847  21589029.502    21589036.7774
 00  6  7  3  2 30.0000000  0  6 11 25 21 29 20 30
  24220239.709    -3470085.888 8  -2687755.70945  24220243.073    24220251.1474
  20766496.878   -22358024.787 9 -17386879.75548  20766498.841    20766505.3254
  21910555.909   -16323438.342 8 -12702019.68446  21910557.276    21910565.6794
  21026741.317   -19751401.518 9 -15370977.45147  21026743.136    21026750.4484
  24013315.462    -3606728.007 7  -2798479.48445  24013318.746    24013327.1304
  21595497.820   -12442591.171 9  -9462106.38747  21595500.293    21595507.4674
 00  6  7  3  3  0.0000000  0  6 11 25 21 29 20 30
  24228570.151    -3426327.979 8  -2653658.66445  24228569.103    24228578.9194
  20762080.325   -22381226.694 9 -17404959.13748  20762083.360    20762090.0104
  21928802.050   -16227564.850 8 -12627313.13946  21928800.863    21928810.6474
  21033921.761   -19713655.984 9 -15341565.39047  21033925.682    21033932.8164
  23994796.882    -3704060.435 8  -2874322.83945  23994797.671    23994805.4104
  21602076.315   -12408010.396 9  -9435160.31547  21602080.974    21602088.1924
 00  6  7  3  3 30.0000000  0  6 11 25 21 29 20 30
  24236957.989    -3382216.326 7  -2619286.01045  24236963.768    24236971.5554
  20757725.133   -22404113.492 9 -17422793.03048  20757728.408    20757734.7534
  21947108.507   -16131327.956 8 -12552323.45446  21947114.532    21947123.5344
  21041158.944   -19675628.589 9 -15311933.68247  21041162.382    21041169.4884
  23976322.897    -3801145.615 8  -2949973.53645  23976322.572    23976329.4754
  21608767.345   -12372851.997 9  -9407764.14647  21608771.106    21608778.6514
 00  6  7  3  4  0.0000000  0  6 11 25 21 29 20 30
  24245420.472    -3337753.359 7  -2584639.58245  24245423.306    24245435.1094
  20753429.859   -22426685.784 9 -17440381.76748  20753432.903    20753439.2234
  21965495.975   -16034730.115 8 -12477052.50646  21965496.820    21965505.4044
  21048448.549   -19637318.902 9 -15282082.02447  21048452.764    21048459.5754
  23957895.636    -3897981.096 8  -3025429.69445  23957895.152    23957903.2374
  21615570.579   -12337117.385 9  -9379918.98447  21615571.188    21615577.9324
 00  6  7  3  4 30.0000000  0  6 11 25 21 29 20 30
  24253943.153    -3292941.462 7  -2549721.22545  24253948.805    24253961.2414
  20749193.625   -22448944.115 9 -17457725.86848  20749197.186    20749203.5784
  21983942.392   -15937773.441 8 -12401501.91746  21983946.336    21983954.9934
  21055794.690   -19598726.751 9 -15252010.25747  21055796.743    21055803.1594
  23939515.020    -3994564.106 8  -3100689.11745  23939515.333    23939523.6204
  21622480.693   -12300807.764 9  -9351625.77147  21622480.811    21622487.4544
 00  6  7  3  5  0.0000000  0  6 11 25 21 29 20 30
  24262542.334    -3247782.978 7  -2514532.82445  24262543.302    24262557.1034
  20745017.690   -22470889.424 9 -17474826.09148  20745020.747    20745027.7784
  22002465.978   -15840460.973 8 -12325674.10846  22002464.522    22002473.5894
  21063190.588   -19559851.790 9 -15221718.14847  21063194.325    21063201.3094
  23921178.465    -4090892.001 7  -3175749.76245  23921184.205    23921192.8254
  21629496.761   -12263924.727 9  -9322885.73247  21629498.954    21629506.5294
 00  6  7  3  5 30.0000000  0  6 11 25 21 29 20 30
  24271199.092    -3202280.512 7  -2479076.41145  24271201.536    24271214.9194
  20740900.332   -22492521.791 9 -17491682.40848  20740903.843    20740911.4594
  22021046.577   -15742794.842 8 -12249570.71046  22021049.698    22021058.8454
  21070643.490   -19520693.693 9 -15191205.38847  21070645.586    21070652.8354
  23902900.679    -4186962.051 7  -3250609.48545  23902903.265    23902913.3234
  21636622.167   -12226469.426 9  -9293699.78447  21636626.152    21636633.9084
 00  6  7  3  6  0.0000000  0  7 11 22 25 21 29 20 30
  24279926.414    -3156436.055 7  -2443353.45545  24279927.166    24279938.2754
  24458186.372     -959373.58317   -724529.89455  24458187.458    24458201.6794
  20736843.127   -22513841.936 9 -17508295.51748  20736846.723    20736854.3694
  22039700.282   -15644778.267 8 -12173194.24246  22039701.636    22039711.4324
  21078147.552   -19481252.071 9 -15160471.70347  21078151.002    21078158.3154
  23884667.641    -4282771.555 8  -3325266.19745  23884671.048    23884680.1924
  21643860.327   -12188442.984 9  -9264068.78147  21643862.577    21643870.2344
 00  6  7  3  6 30.0000000  0  7 11 22 25 21 29 20 30
  24288718.312    -3110252.692 7  -2407366.47145  24288717.989    24288727.7504
  24435134.497    -1080466.369 7   -818887.63945  24435144.785    24435159.2704
  20732846.939   -22534850.212 9 -17524665.59748  20732849.252    20732856.2244
  22058419.475   -15546413.904 8 -12096546.78946  22058419.567    22058429.1474
  21085707.549   -19441526.631 9 -15129516.85147  21085710.536    21085717.7534
  23866485.248    -4378317.898 7  -3399717.84445  23866487.614    23866497.5814
  21651206.574   -12149847.290 9  -9233994.22747  21651207.397    21651214.6314
 00  6  7  3  7  0.0000000  0  7 11 22 25 21 29 20 30
  24297568.998    -3063732.863 7  -2371117.27445  24297570.136    24297579.0204
  24412106.058    -1201541.092 7   -913231.41245  24412104.644    24412118.1884
  20728907.365   -22555547.076 9 -17540792.95448  20728911.099    20728917.6874
  22077198.413   -15447704.200 8 -12019630.25646  22077203.587    22077212.8814
  21093322.368   -19401517.043 9 -15098340.58747  21093324.338    21093331.6664
  23848354.151    -4473598.099 8  -3473962.11445  23848357.952    23848368.1924
  21658654.728   -12110683.715 9  -9203477.16647  21658659.438    21658667.5944
 00  6  7  3  7 30.0000000  0  7 11 22 25 21 29 20 30
  24306481.837    -3016878.760 7  -2334607.57645  24306485.203    24306494.7194
  24389069.855    -1322595.621 7  -1007559.36045  24389068.179    24389082.0534
  20725029.507   -22575933.161 9 -17556678.18148  20725031.717    20725038.3294
  22096050.917   -15348651.453 8 -11942446.37846  22096053.934    22096061.8754
  21100988.060   -19361222.981 9 -15066942.66047  21100991.859    21100999.2324
  23830278.470    -4568609.693 8  -3547997.04645  23830278.202    23830288.5894
  21666216.177   -12070953.673 9  -9172518.69347  21666220.137    21666227.7164
 00  6  7  3  8  0.0000000  0  8 11 22 25 05 21 29 20 30
  24315459.425    -2969692.989 8  -2297839.49945  24315465.148    24315473.6014
  24366034.680    -1443627.031 7  -1101869.35245  24366036.528    24366048.6474
  20721208.229   -22596008.995 9 -17572321.72248  20721211.302    20721218.0724
  24279515.073       43769.12217
  22114964.463   -15249258.962 8 -11864997.75046  22114967.716    22114976.1354
  21108710.305   -19320644.136 9 -15035322.81047  21108713.254    21108721.3084
  23812247.812    -4663349.967 8  -3621820.51645  23812250.355    23812257.9244
  21673886.901   -12030658.520 9  -9141119.86147  21673888.401    21673896.2384
 00  6  7  3  8 30.0000000  0  8 11 22 25 05 21 29 20 30
  24324500.695    -2922178.011 7  -2260814.82145  24324506.974    24324516.1324
  24343006.010    -1564632.526 7  -1196159.19445  24343007.742    24343022.1094
  20717445.913   -22615775.067 9 -17587723.85048  20717449.456    20717456.5144
  24297197.366      136668.282 7
  22133943.259   -15149528.889 8 -11787286.10146  22133945.425    22133954.7094
  21116486.478   -19279780.297 9 -15003480.88847  21116489.696    21116497.7304
  23794271.158    -4757816.266 8  -3695430.53245  23794272.883    23794281.8484
  21681662.749   -11989799.652 9  -9109281.79547  21681663.271    21681671.0054
 00  6  7  3  9  0.0000000  0  8 11 22 25 05 21 29 20 30
  24333611.466    -2874335.924 8  -2223535.25745  24333610.806    24333619.4874
  24319983.811    -1685609.390 7  -1290426.65045  24319988.257    24320001.8774
  20713744.994   -22635231.912 9 -17602885.07348  20713747.446    20713754.1754
  24314927.353      229836.665 7    164892.63654  24314933.861    24314937.4204
  22152986.934   -15049464.313 8 -11709313.78446  22152986.821    22152995.5194
  21124316.803   -19238631.071 9 -14971416.60047  21124320.343    21124327.8864
  23776347.079    -4852005.921 8  -3768824.98845  23776349.635    23776359.4964
  21689543.604   -11948379.150 9  -9077006.07347  21689545.566    21689553.0134
 00  6  7  3  9 30.0000000  0  8 11 22 25 05 21 29 20 30
  24342776.190    -2826170.061 7  -2186003.36245  24342776.238    24342785.5394
  24296965.788    -1806555.409 7  -1384670.11745  24296973.090    24296985.8674
  20710100.931   -22654380.128 9 -17617805.81848  20710103.704    20710110.7184
  24332709.338      323271.667 7    237699.11245  24332707.915    24332718.2724
  22172085.771   -14949068.087 8 -11631083.02246  22172091.890    22172100.9984
  21132201.983   -19197196.058 9 -14939129.58347  21132205.330    21132212.6274
  23758478.828    -4945916.192 8  -3842001.70745  23758479.851    23758486.9354
  21697531.625   -11906398.207 8  -9044293.65047  21697533.868    21697541.7314
 00  6  7  3 10  0.0000000  0  8 11 22 25 05 21 29 20 30
  24351999.572    -2777682.678 7  -2148220.97645  24352002.883    24352013.4274
  24273962.778    -1927468.225 7  -1478887.70145  24273966.179    24273976.0294
  20706515.032   -22673220.034 9 -17632486.28248  20706518.517    20706525.6054
  24350533.340      416970.601 7    310711.23845  24350536.859    24350548.0374
  22191258.055   -14848342.549 8 -11552595.64646  22191259.037    22191268.1494
  21140143.173   -19155475.168 9 -14906619.83747  21140144.588    21140152.0204
  23740660.601    -5039544.291 8  -3914958.60545  23740662.631    23740669.2684
  21705628.300   -11863858.423 9  -9011145.77047  21705629.225    21705637.0204
 00  6  7  3 10 30.0000000  0  8 11 22 25 05 21 29 20 30
  24361281.603    -2728876.220 7  -2110189.93045  24361290.178    24361301.4014
  24250960.490    -2048344.992 7  -1573077.17445  24250964.656    24250973.6524
  20702989.317   -22691752.510 9 -17646927.21848  20702991.881    20702999.0454
  24368389.104      510930.825 7    383926.98744  24368416.758    24368428.0074
  22210485.926   -14747290.045 8 -11473853.47646  22210488.261    22210497.4624
  21148133.809   -19113468.087 9 -14873887.07747  21148138.210    21148145.8064
  23722897.788    -5132887.648 8  -3987693.57545  23722900.100    23722908.7864
  21713825.941   -11820761.498 9  -8977563.73947  21713830.187    21713837.7644
 00  6  7  3 11  0.0000000  0  8 11 22 25 05 21 29 20 30
  24370636.933    -2679753.217 7  -2071912.27545  24370639.362    24370649.6204
  24227971.475    -2169182.780 7  -1667236.28545  24227970.266    24227978.9474
  20699520.901   -22709977.703 9 -17661128.65648  20699523.921    20699530.8284
  24386351.266      605149.708 7    457344.22045  24386345.979    24386357.5224
  22229777.196   -14645913.917 8 -11394859.13746  22229779.665    22229788.4474
  21156181.678   -19071174.503 9 -14840931.09547  21156186.480    21156193.9214
  23705182.036    -5225943.556 8  -4060204.54145  23705191.089    23705199.5174
  21722130.772   -11777108.907 8  -8943548.72547  21722136.871    21722144.3534
 00  6  7  3 11 30.0000000  0  8 11 22 25 05 21 29 20 30
  24380047.984    -2630316.158 7  -2033389.88545  24380047.242    24380056.6414
  24204983.463    -2289979.017 7  -1761363.04245  24204983.346    24204992.8944
  20696111.414   -22727896.148 9 -17675091.08948  20696114.366    20696121.2974
  24404322.133      699624.806 7    530961.09845  24404326.577    24404333.9384
  22249127.352   -14544217.472 8 -11315615.16146  22249131.494    22249141.6464
  21164286.372   -19028594.071 9 -14807751.56747  21164289.089    21164296.6174
  23687530.109    -5318709.192 8  -4132489.32245  23687536.701    23687545.9274
  21730548.334   -11732902.561 9  -8909102.22447  21730549.284    21730556.6294
 00  6  7  3 12  0.0000000  0  8 11 22 25 05 21 29 20 30
  24389513.951    -2580567.645 7  -1994624.78145  24389513.760    24389522.6644
  24182000.312    -2410731.329 8  -1855455.50845  24182002.770    24182013.9494
  20692758.247   -22745508.492 9 -17688815.00848  20692762.642    20692769.3854
  24422349.915      794353.448 7    604775.65945  24422353.492    24422362.7664
  22268543.399   -14442202.738 8 -11236123.19746  22268544.413    22268554.6354
  21172443.903   -18985726.576 9 -14774348.35947  21172446.686    21172454.1504
  23669945.302    -5411181.904 8  -4204545.82745  23669942.201    23669949.5154
  21739064.127   -11688144.016 9  -8874225.44147  21739066.648    21739073.8494
 00  6  7  3 12 30.0000000  0  8 11 22 25 05 21 29 20 30
  24399038.277    -2530510.385 7  -1955619.12645  24399039.202    24399048.5914
  24159034.775    -2531437.478 7  -1949512.00845  24159033.760    24159043.4584
  20689466.525   -22762815.352 9 -17702300.87248  20689469.302    20689476.0174
  24440426.163      889333.273 7    678785.85645  24440426.991    24440434.8444
  22288011.329   -14339872.139 8 -11156385.09946  22288017.152    22288026.9404
  21180657.412   -18942571.891 9 -14740721.36247  21180659.442    21180666.0804
  23652399.763    -5503358.852 8  -4276371.89545  23652400.993    23652408.9204
  21747681.530   -11642834.797 9  -8838919.56847  21747688.816    21747696.0674
 00  6  7  3 13  0.0000000  0  8 11 22 25 05 21 29 20 30
  24408617.909    -2480146.904 7  -1916374.87645  24408621.658    24408632.0764
  24136064.639    -2652094.393 7  -2043530.13045  24136072.885    24136084.0504
  20686230.929   -22779817.455 9 -17715549.31248  20686234.037    20686240.4314
  24458546.180      984561.534 7    752989.67444  24458545.104    24458557.2494
  22307548.960   -14237228.658 8 -11076403.22546  22307549.961    22307559.5474
  21188923.450   -18899129.378 9 -14706870.07347  21188926.507    21188932.8734
  23634915.859    -5595237.748 8  -4347965.64545  23634915.849    23634926.3494
  21756414.103   -11596976.734 9  -8803186.02547  21756415.160    21756422.3674
 00  6  7  3 13 30.0000000  0  8 11 22 25 05 21 29 20 30
  24418251.878    -2429479.834 7  -1876894.00945  24418261.811    24418273.1114
  24113125.560    -2772699.218 7  -2137507.73245  24113122.070    24113133.3014
  20683053.702   -22796515.218 9 -17728560.51648  20683056.853    20683062.9824
  24476700.035     1080035.809 7    827385.13744  24476713.057    24476725.3024
  22327138.517   -14134275.485 8 -10996180.06946  22327141.242    22327151.3564
  21197245.600   -18855399.204 9 -14672794.64047  21197247.807    21197254.7634
  23617485.915    -5686815.694 8  -4419324.87845  23617489.201    23617499.4294
  21765244.368   -11550571.445 9  -8767026.07647  21765245.445    21765253.4364
 00  6  7  3 14  0.0000000  0  8 11 22 25 05 21 29 20 30
  24427954.634    -2378511.735 7  -1837178.65444  24427960.565    24427969.8734
  24090179.329    -2893249.392 8  -2231442.64945  24090182.903    24090194.2214
  20679934.424   -22812909.146 9 -17741334.93948  20679937.167    20679943.3924
  24494912.825     1175753.438 7    901970.21544  24494928.952    24494939.8094
  22346789.549   -14031015.221 8 -10915717.59146  22346791.606    22346800.2254
  21205618.449   -18811380.986 9 -14638494.76147  21205623.678    21205631.0874
  23600121.392    -5778089.997 8  -4490447.60145  23600120.871    23600129.8974
  21774181.006   -11503620.570 9  -8730440.97547  21774180.390    21774187.9254
 00  6  7  3 14 30.0000000  0  8 11 22 25 05 21 29 20 30
  24437709.196    -2327245.243 7  -1797230.70444  24437717.281    24437727.3004
  24067253.693    -3013742.604 8  -2325333.25745  24067253.773    24067264.9884
  20676872.486   -22828999.874 9 -17753873.11248  20676874.794    20676881.4434
  24513187.615     1271711.754 7    976742.90744  24513189.669    24513202.1594
  22366498.379   -13927450.535 8 -10835017.90746  22366499.488    22366508.5494
  21214050.560   -18767074.428 9 -14603970.19747  21214055.025    21214062.2184
  23582806.665    -5869058.111 8  -4561331.65445  23582808.451    23582818.3114
  21783217.482   -11456125.877 9  -8693432.14647  21783218.303    21783226.1314
 00  6  7  3 15  0.0000000  0  7 22 25 05 21 29 20 30
  24044340.683    -3134176.402 8  -2419177.56745  24044335.775    24044345.0684
  20673868.043   -22844788.213 9 -17766175.71448  20673870.485    20673877.1024
  24531489.707     1367908.035 7   1051701.04944  24531492.224    24531507.4054
  22386265.998   -13823583.770 8 -10754082.85046  22386264.796    22386273.4244
  21222540.279   -18722479.201 9 -14569220.71447  21222541.221    21222548.8894
  23565558.006    -5959717.243 8  -4631974.96945  23565557.791    23565566.2374
  21792355.746   -11408089.349 9  -8656001.09547  21792358.887    21792366.4934
 00  6  7  3 15 30.0000000  0  7 22 25 05 21 29 20 30
  24021429.736    -3254547.805 8  -2512973.22245  24021429.743    24021440.6564
  20670921.162   -22860274.565 9 -17778242.97348  20670923.293    20670930.1274
  24549845.146     1464339.994 7   1126842.82344  24549844.693    24549857.2874
  22406083.752   -13719418.128 8 -10672914.88346  22406086.594    22406095.2034
  21231079.947   -18677595.262 9 -14534246.25547  21231082.303    21231089.7554
  23548363.289    -6050064.599 8  -4702375.35645  23548364.152    23548373.2624
  21801599.247   -11359512.754 9  -8618149.23047  21801603.290    21801610.2074
 00  6  7  3 16  0.0000000  0  7 22 25 05 21 29 20 30
  23998536.312    -3374854.036 8  -2606718.13845  23998535.503    23998546.4314
  20668031.713   -22875459.078 9 -17790075.00948  20668033.646    20668040.7704
  24568235.109     1561005.079 7   1202166.21944  24568239.329    24568253.4684
  22425958.378   -13614956.348 8 -10591516.18946  22425964.617    22425974.2444
  21239673.762   -18632422.299 9 -14499046.58347  21239678.511    21239686.2744
  23531230.526    -6140097.509 8  -4772530.71445  23531230.097    23531240.7834
  21810947.440   -11310397.549 9  -8579877.66247  21810949.456    21810956.9054
 00  6  7  3 16 30.0000000  0  7 22 25 05 21 29 20 30
  23975655.858    -3495092.457 8  -2700410.24845  23975655.017    23975665.6794
  20665198.998   -22890342.820 9 -17801672.69148  20665201.429    20665208.4364
  24586675.259     1657900.336 7   1277668.97744  24586677.527    24586690.6224
  22445897.295   -13510201.117 8 -10509888.82046  22445899.146    22445908.2034
  21248327.856   -18586960.117 9 -14463621.53947  21248330.279    21248337.2964
  23514153.691    -6229813.309 8  -4842438.98745  23514159.216    23514168.6234
  21820393.978   -11260745.781 9  -8541187.99947  21820397.713    21820404.9844
 00  6  7  3 17  0.0000000  0  7 22 25 05 21 29 20 30
  23952782.329    -3615260.675 8  -2794047.57545  23952787.823    23952798.7214
  20662423.336   -22904926.226 9 -17813036.36148  20662426.243    20662433.0704
  24605166.551     1755023.792 7   1353349.55544  24605161.240    24605172.6784
  22465891.501   -13405155.830 8 -10428035.44046  22465889.580    22465897.4724
  21257034.003   -18541208.507 9 -14427970.96347  21257036.280    21257043.4934
  23497146.246    -6319209.427 8  -4912098.16446  23497148.580    23497156.8134
  21829945.067   -11210559.443 8  -8502081.78847  21829947.812    21829955.5874
 00  6  7  3 17 30.0000000  0  6 22 25 21 29 20 30
  23929933.116    -3735356.323 8  -2887628.42645  23929934.526    23929943.6104
  20659705.863   -22919210.106 9 -17824166.64548  20659708.029    20659714.9264
  22485926.413   -13299823.064 8 -10345958.05846  22485933.490    22485943.0004
  21265795.993   -18495167.059 9 -14392094.53747  21265797.437    21265804.9974
  23480195.474    -6408283.280 8  -4981506.24045  23480196.141    23480206.6674
  21839598.590   -11159840.091 9  -8462560.25147  21839599.760    21839606.8314
 00  6  7  3 18  0.0000000  0  6 22 25 21 29 20 30
  23907089.673    -3855376.382 8  -2981150.35745  23907095.713    23907104.5714
  20657043.211   -22933194.848 9 -17835063.84248  20657046.905    20657053.5704
  22506030.502   -13194205.246 8 -10263658.57746  22506031.835    22506041.3654
  21274612.861   -18448835.751 9 -14355992.25147  21274614.050    21274621.7294
  23463306.136    -6497032.019 8  -5050660.96545  23463308.920    23463317.6974
  21849347.485   -11108589.610 8  -8422624.85047  21849351.828    21849359.3704
 00  6  7  3 18 30.0000000  0  6 22 25 21 29 20 30
  23884261.868    -3975317.834 8  -3074611.05545  23884270.950    23884279.7944
  20654440.127   -22946880.806 9 -17845728.19648  20654442.876    20654449.2944
  22526179.389   -13088305.394 8 -10181139.32346  22526183.675    22526193.5484
  21283481.513   -18402214.396 9 -14319663.93847  21283485.850    21283493.3784
  23446480.276    -6585452.920 8  -5119560.24145  23446482.984    23446491.5554
  21859204.835   -11056810.155 9  -8382277.26847  21859205.305    21859212.8104
 00  6  7  3 19  0.0000000  0  6 22 25 21 29 20 30
  23861468.301    -4095178.427 8  -3168008.81745  23861461.743    23861469.5904
  20651893.247   -22960268.729 9 -17856160.29048  20651895.017    20651901.6514
  22546385.077   -12982126.330 8 -10098402.47946  22546389.800    22546398.6474
  21292408.611   -18355302.737 9 -14283109.41047  21292413.180    21292420.2044
  23429717.362    -6673543.117 8  -5188201.83045  23429720.438    23429729.1164
  21869157.690   -11004503.513 9  -8341518.89147  21869159.398    21869166.6124
 00  6  7  3 19 30.0000000  0  6 22 25 21 29 20 30
  23838666.539    -4214955.730 8  -3261341.62545  23838668.724    23838678.8864
  20649400.748   -22973359.769 9 -17866361.08948  20649403.923    20649410.5154
  22566643.704   -12875670.835 8 -10015450.25746  22566647.487    22566657.0094
  21301390.343   -18308100.699 9 -14246328.60747  21301395.153    21301402.5304
  23413017.899    -6761300.290 8  -5256583.92345  23413019.707    23413028.2584
  21879210.550   -10951671.622 9  -8300351.22447  21879213.337    21879220.4054
 00  6  7  3 20  0.0000000  0  6 22 25 21 29 20 30
  23815891.890    -4334647.071 8  -3354607.48645  23815892.162    23815900.3474
  20646964.831   -22986154.005 9 -17876330.65348  20646969.029    20646975.5664
  22586955.022   -12768941.836 8  -9932284.90046  22586957.290    22586966.6284
  21310428.782   -18260608.012 9 -14209321.33447  21310432.553    21310439.9804
  23396380.632    -6848721.917 8  -5324704.57145  23396383.978    23396392.9894
  21889366.406   -10898316.546 9  -8258775.89347  21889366.307    21889373.0514
 00  6  7  3 20 30.0000000  0  6 22 25 21 29 20 30
  23793130.169    -4454249.442 8  -3447804.04745  23793133.597    23793141.4494
  20644587.048   -22998651.861 9 -17886069.25848  20644590.825    20644597.6804
  22607311.027   -12661942.303 8  -9848908.75546  22607317.774    22607328.2494
  21319522.585   -18212824.523 9 -14172087.45647  21319525.850    21319533.2014
  23379808.984    -6935805.077 8  -5392561.47845  23379811.213    23379819.7484
  21899615.010   -10844440.173 9  -8216794.33647  21899618.451    21899625.5744
 00  6  7  3 21  0.0000000  0  6 22 25 21 29 20 30
  23770387.644    -4573759.991 8  -3540929.06045  23770389.979    23770399.3334
  20642266.765   -23010854.538 9 -17895577.81448  20642268.950    20642275.4964
  22627730.751   -12554674.934 8  -9765323.88046  22627730.513    22627740.8524
  21328671.048   -18164749.983 9 -14134626.79347  21328674.239    21328681.4194
  23363304.941    -7022546.975 8  -5460152.51945  23363306.559    23363312.6694
  21909968.335   -10790044.277 8  -8174407.95947  21909969.702    21909976.6244
 00  6  7  3 21 30.0000000  0  6 22 25 21 29 20 30
  23747659.934    -4693176.219 8  -3633980.65845  23747665.908    23747673.7274
  20639999.631   -23022762.538 9 -17904856.75748  20640002.829    20640009.5084
  22648181.454   -12447142.906 8  -9681532.77546  22648192.903    22648202.9274
  21337876.063   -18116384.475 9 -14096939.39947  21337877.771    21337884.8494
  23346864.811    -7108945.221 8  -5527475.76445  23346864.716    23346873.5494
  21920416.416   -10735130.963 8  -8131618.38947  21920419.200    21920426.6384
 00  6  7  3 22  0.0000000  0  6 22 25 21 29 20 30
  23724955.169    -4812496.023 7  -3726957.06345  23724957.891    23724969.0254
  20637791.005   -23034376.144 9 -17913906.30848  20637792.977    20637799.4034
  22668707.375   -12339348.507 8  -9597537.24846  22668705.803    22668715.9524
  21347132.546   -18067727.731 9 -14059025.07147  21347136.970    21347143.6494
  23330486.213    -7194997.098 8  -5594529.08845  23330489.264    23330498.3434
  21930965.442   -10679702.249 8  -8088427.21547  21930966.901    21930974.4104
 00  6  7  3 22 30.0000000  0  6 22 25 21 29 20 30
  23702277.439    -4931716.428 8  -3819855.98745  23702273.271    23702282.5814
  20635634.124   -23045695.848 9 -17922726.87848  20635638.478    20635645.3294
  22689263.351   -12231294.837 8  -9513339.68546  22689267.566    22689277.5114
  21356447.124   -18018779.532 9 -14020883.63447  21356451.585    21356458.4944
  23314182.538    -7280699.732 8  -5661310.31346  23314182.746    23314188.6424
  21941608.434   -10623760.161 8  -8044836.00347  21941612.517    21941620.0744
 00  6  7  3 23  0.0000000  0  6 22 25 21 29 20 30
  23679599.759    -5050834.389 7  -3912675.16945  23679605.929    23679614.2024
  20633536.959   -23056722.503 9 -17931319.08648  20633540.326    20633547.1034
  22709871.789   -12122984.619 8  -9428942.21146  22709878.956    22709888.1644
  21365817.798   -17969539.707 9 -13982514.95447  21365821.485    21365828.5154
  23297939.112    -7366050.571 8  -5727817.39946  23297940.115    23297947.5774
  21952351.669   -10567306.930 8  -8000846.50447  21952355.582    21952362.7974
 00  6  7  3 23 30.0000000  0  6 22 25 21 29 20 30
  23656958.669    -5169847.145 7  -4005412.35945  23656957.150    23656967.1104
  20631494.306   -23067456.721 9 -17939683.43848  20631497.883    20631504.6554
  22730538.586   -12014420.989 8  -9344347.27146  22730538.374    22730547.8124
  21375244.050   -17920008.091 9 -13943918.89947  21375246.904    21375254.2324
  23281760.599    -7451047.130 8  -5794048.41846  23281765.112    23281773.9794
  21963192.280   -10510344.519 8  -7956460.24747  21963194.883    21963202.2874
 00  6  7  3 24  0.0000000  0  6 22 25 21 29 20 30
  23634322.121    -5288752.373 7  -4098065.78845  23634330.135    23634340.3104
  20629506.621   -23077899.347 9 -17947820.58048  20629510.649    20629517.5954
  22751246.070   -11905606.725 8  -9259557.05446  22751245.308    22751253.9854
  21384728.264   -17870184.717 9 -13905095.50547  21384727.927    21384735.4524
  23265656.336    -7535686.547 8  -5860001.17146  23265659.287    23265667.3294
  21974128.783   -10452874.840 8  -7911678.72947  21974131.085    21974138.4514
 00  6  7  3 24 30.0000000  0  6 22 25 21 29 20 30
  23611715.722    -5407547.597 7  -4190633.49645  23611723.949    23611735.1824
  20627575.562   -23088050.784 9 -17955730.81648  20627579.099    20627585.7164
  22771994.056   -11796544.580 8  -9174573.65046  22771999.280    22772008.0794
  21394259.420   -17820069.363 9 -13866044.59547  21394264.403    21394271.8084
  23249617.756    -7619966.566 8  -5925673.87946  23249621.137    23249629.3624
  21985158.935   -10394900.035 8  -7866503.58747  21985163.361    21985170.6004
 00  6  7  3 25  0.0000000  0  6 22 25 21 29 20 30
  23589137.917    -5526230.029 7  -4283113.29945  23589139.819    23589150.3324
  20625699.060   -23097911.637 9 -17963414.61148  20625702.487    20625709.2724
  22792803.707   -11687237.804 8  -9089399.64946  22792799.318    22792808.4994
  21403852.978   -17769661.930 9 -13826766.09947  21403856.948    21403864.1304
  23233643.885    -7703884.327 8  -5991064.30046  23233651.537    23233661.7474
  21996287.570   -10336422.351 8  -7820936.59347  21996291.098    21996298.0544
 00  6  7  3 25 30.0000000  0  6 22 25 21 29 20 30
  23566575.164    -5644796.485 7  -4375502.68045  23566577.518    23566589.9104
  20623878.002   -23107482.773 9 -17970872.66648  20623881.002    20623887.6814
  22813644.708   -11577688.945 8  -9004036.99446  22813646.346    22813654.8274
  21413501.272   -17718962.365 9 -13787259.96547  21413504.564    21413511.8404
  23217755.746    -7787436.886 8  -6056170.13346  23217751.965    23217762.8744
  22007509.114   -10277443.922 8  -7774979.43147  22007514.356    22007521.7574
 00  6  7  3 26  0.0000000  0  6 22 25 21 29 20 30
  23544040.889    -5763244.372 8  -4467799.67545  23544039.226    23544049.2854
  20622110.883   -23116764.369 9 -17978105.06748  20622114.613    20622121.4354
  22834532.254   -11467901.379 8  -8918488.36146  22834538.143    22834547.2324
  21423206.026   -17667970.431 9 -13747526.00147  21423207.804    21423215.3354
  23201921.882    -7870622.048 8  -6120989.69446  23201922.931    23201931.1914
  22018830.277   -10217966.772 8  -7728633.62247  22018832.290    22018840.1084
 00  6  7  3 26 30.0000000  0  6 22 25 21 29 20 30
  23521516.040    -5881571.202 8  -4560002.39545  23521521.705    23521531.9384
  20620400.975   -23125757.110 9 -17985112.36148  20620403.283    20620409.8584
  22855474.266   -11357877.584 8  -8832755.59846  22855474.675    22855483.5794
  21432965.952   -17616686.073 9 -13707564.19047  21432967.216    21432974.2664
  23186160.457    -7953436.931 8  -6185520.74946  23186164.329    23186172.2184
  22030243.216   -10157992.983 9  -7681900.84947  22030245.728    22030253.3214
 00  6  7  3 27  0.0000000  0  7 22 06 25 21 29 20 30
  23499026.781    -5999774.803 8  -4652109.05545  23499027.886    23499039.6124
  24854544.380    -3480325.81917  -2699692.84655  24854548.897    24854557.7844
  20618744.009   -23134461.944 9 -17991895.31048  20618746.945    20618753.5024
  22876452.514   -11247620.441 8  -8746841.04146  22876455.349    22876465.5934
  21442777.415   -17565109.383 9 -13667374.57947  21442781.653    21442789.2574
  23170471.508    -8035879.093 8  -6249761.30146  23170474.752    23170484.9964
  22041753.309   -10097524.624 9  -7634782.67947  22041752.544    22041759.7714
 00  6  7  3 27 30.0000000  0  7 22 06 25 21 29 20 30
  23476554.229    -6117851.987 8  -4744117.23145  23476558.364    23476569.7174
  24842976.294    -3541149.736 7  -2747088.05045  24842974.148    24842984.1344
  20617141.527   -23142879.713 9 -17998454.60948  20617145.048    20617151.6174
  22897477.032   -11137132.784 8  -8660746.86146  22897480.454    22897490.1834
  21452646.109   -17513239.921 8 -13626956.84347  21452652.345    21452659.8014
  23154857.040    -8117945.754 8  -6313709.24146  23154859.043    23154867.8484
  22053348.429   -10036564.027 9  -7587280.93847  22053353.020    22053360.5404
 00  6  7  3 28  0.0000000  0  7 22 06 25 21 29 20 30
  23454111.616    -6235799.958 8  -4836024.72945  23454114.363    23454125.1104
  24831438.385    -3601767.303 7  -2794322.47345  24831439.467    24831450.3454
  20615594.410   -23151010.821 9 -18004790.58448  20615597.931    20615604.2324
  22918544.804   -11026417.818 8  -8574475.53646  22918548.682    22918558.6424
  21462574.542   -17461077.955 9 -13586311.18547  21462578.569    21462586.3704
  23139314.147    -8199634.484 8  -6377362.73246  23139314.347    23139322.3214
  22065043.195    -9975113.484 9  -7539397.44847  22065046.602    22065054.2724
 00  6  7  3 28 30.0000000  0  7 22 06 25 21 29 20 30
  23431689.412    -6353615.882 8  -4927829.34745  23431695.264    23431704.7024
  24819942.772    -3662175.696 7  -2841393.94245  24819944.196    24819954.8894
  20614101.863   -23158855.827 9 -18010903.58448  20614105.206    20614111.3344
  22939662.743   -10915477.905 8  -8488028.93346  22939660.087    22939670.5334
  21472555.455   -17408623.304 9 -13545437.45547  21472560.129    21472567.7944
  23123835.535    -8280942.763 8  -6440719.76046  23123841.131    23123849.1954
  22076832.265    -9913174.993 9  -7491133.73347  22076832.916    22076840.4534
 00  6  7  3 29  0.0000000  0  7 22 06 25 21 29 20 30
  23409307.148    -6471297.423 8  -5019529.20545  23409299.069    23409311.5044
  24808480.488    -3722372.033 7  -2888300.14145  24808486.992    24808498.7384
  20612664.721   -23166415.696 9 -18016794.39048  20612666.889    20612672.9304
  22960804.210   -10804316.352 8  -8401409.63446  22960813.816    22960824.0484
  21482596.342   -17355875.757 9 -13504335.50147  21482597.600    21482605.4234
  23108440.707    -8361867.751 8  -6503778.10146  23108442.165    23108450.5844
  22088710.601    -9850750.740 9  -7442491.50447  22088712.121    22088718.8504
 00  6  7  3 29 30.0000000  0  7 22 06 25 21 29 20 30
  23386922.491    -6588842.077 8  -5111122.40545  23386931.380    23386942.1674
  24797069.443    -3782353.600 7  -2935039.00645  24797074.544    24797086.8294
  20611280.337   -23173690.549 9 -18022463.17048  20611282.258    20611288.5814
  22982006.397   -10692936.078 8  -8314619.91346  22982008.363    22982019.4804
  21492688.434   -17302835.563 9 -13463005.51647  21492691.059    21492698.4174
  23093116.223    -8442406.998 8  -6566535.89146  23093115.607    23093123.9574
  22100679.278    -9787842.818 8  -7393472.39647  22100682.773    22100690.0844
 00  6  7  3 30  0.0000000  0  7 22 06 25 21 29 20 30
  23364587.140    -6706246.891 8  -5202606.63245  23364589.899    23364600.4704
  24785701.434    -3842117.718 7  -2981608.38345  24785701.331    24785714.5524
  20609949.435   -23180681.267 9 -18027910.43148  20609952.214    20609958.3674
  23003238.252   -10581340.239 8  -8227662.23346  23003244.484    23003254.9574
  21502838.977   -17249502.344 8 -13421447.21447  21502840.089    21502847.3634
  23077866.797    -8522557.749 8  -6628990.93446  23077864.035    23077871.2844
  22112743.483    -9724453.695 8  -7344078.32647  22112745.622    22112753.2684
 00  6  7  3 30 30.0000000  0  7 22 06 25 21 29 20 30
  23342274.086    -6823508.810 8  -5293979.53745  23342275.431    23342286.2174
  24774370.214    -3901661.681 7  -3028006.23545  24774370.751    24774383.2224
  20608673.265   -23187388.609 9 -18033136.96048  20608675.913    20608681.9184
  23024523.797   -10469531.588 8  -8140538.73546  23024521.780    23024532.4364
  21513042.352   -17195876.237 8 -13379660.67047  21513044.552    21513052.2014
  23062681.388    -8602317.717 8  -6691141.46546  23062685.187    23062692.5494
  22124895.625    -9660585.657 8  -7294311.06447  22124899.195    22124907.1544
 00  6  7  3 31  0.0000000  0  7 22 06 25 21 29 20 30
  23319990.805    -6940625.209 8  -5385238.99745  23319989.980    23319997.6234
  24763082.989    -3960982.870 7  -3074230.51245  24763082.005    24763093.8644
  20607449.538   -23193813.137 9 -18038143.13048  20607453.222    20607459.6034
  23045837.502   -10357512.774 8  -8053251.44946  23045838.314    23045848.4804
  21523301.882   -17141957.306 8 -13337645.94647  21523305.445    21523312.4264
  23047579.840    -8681684.136 8  -6752985.35746  23047582.158    23047590.2474
  22137141.408    -9596241.070 8  -7244172.46547  22137143.072    22137151.2124
 00  6  7  3 31 30.0000000  0  7 22 06 25 21 29 20 30
  23297734.159    -7057593.811 8  -5476383.35845  23297730.990    23297741.6454
  24751831.617    -4020078.240 7  -3120278.85245  24751836.614    24751846.6514
  20606280.867   -23199955.313 9 -18042929.24248  20606284.316    20606290.9654
  23067193.370   -10245286.952 8  -7965802.87746  23067193.996    23067205.1164
  21533620.096   -17087745.301 9 -13295402.85147  21533621.788    21533628.8604
  23032557.094    -8760654.538 8  -6814520.65446  23032554.810    23032561.7754
  22149476.876    -9531422.022 8  -7193664.15446  22149478.122    22149485.0264
 00  6  7  3 32  0.0000000  0  7 22 06 25 21 29 20 30
  23275496.799    -7174412.067 8  -5567410.50745  23275500.881    23275510.8044
  24740631.580    -4078945.124 7  -3166149.07745  24740634.753    24740646.9254
  20605165.337   -23205815.600 9 -18047495.69848  20605169.237    20605175.3844
  23088581.057   -10132856.968 8  -7878195.20246  23088588.641    23088599.8624
  21543992.068   -17033240.318 9 -13252931.47247  21543993.775    21544001.2314
  23017600.225    -8839226.268 8  -6875745.28146  23017602.599    23017610.1044
  22161899.045    -9466130.749 8  -7142787.86546  22161902.188    22161910.2294
 00  6  7  3 32 30.0000000  0  7 22 06 25 21 29 20 30
  23253297.036    -7291076.961 8  -5658318.17245  23253301.217    23253311.3964
  24729469.923    -4137580.596 7  -3211839.00845  24729476.434    24729488.5114
  20604105.832   -23211395.290 9 -18051843.52848  20604107.572    20604113.9844
  23110019.693   -10020226.148 8  -7790431.06746  23110022.383    23110032.6034
  21554416.768   -16978442.341 8 -13210231.78447  21554421.247    21554428.7174
  23002723.039    -8917396.875 8  -6936657.36046  23002726.295    23002734.2544
  22174411.544    -9400369.784 8  -7091545.59046  22174416.532    22174424.2554
 00  6  7  3 33  0.0000000  0  7 22 06 25 21 29 20 30
  23231128.285    -7407585.546 8  -5749103.98646  23231130.195    23231139.7964
  24718358.432    -4195982.275 7  -3257346.74145  24718363.222    24718373.6624
  20603094.697   -23216694.883 9 -18055973.03648  20603098.863    20603105.4744
  23131492.963    -9907397.231 8  -7702512.57946  23131492.515    23131502.7814
  21564901.030   -16923351.209 8 -13167303.65947  21564904.722    21564911.8414
  22987925.313    -8995163.912 8  -6997254.98546  22987928.527    22987936.5674
  22187018.548    -9334141.231 8  -7039938.97346  22187018.752    22187027.1564
 00  6  7  3 33 30.0000000  0  7 22 06 25 21 29 20 30
  23208992.817    -7523935.149 8  -5839765.97946  23208990.658    23208998.9534
  24707289.145    -4254147.358 7  -3302670.13845  24707293.860    24707305.1574
  20602140.827   -23221715.243 9 -18059885.07448  20602143.408    20602150.2434
  23153000.652    -9794372.688 8  -7614441.62646  23153000.952    23153011.0434
  21575439.020   -16867967.098 8 -13124147.23447  21575444.150    21575451.3184
  22973202.666    -9072524.511 8  -7057535.86646  22973206.081    22973215.8344
  22199706.060    -9267447.545 8  -6987969.90846  22199710.655    22199717.5444
 00  6  7  3 34  0.0000000  0  7 22 06 25 21 29 20 30
  23186873.503    -7640123.508 8  -5930302.29846  23186879.452    23186889.5874
  24696270.030    -4312073.135 7  -3347807.03845  24696271.694    24696284.3474
  20601238.757   -23226456.630 9 -18063579.69248  20601241.139    20601248.1404
  23174546.332    -9681155.695 8  -7526220.72946  23174545.777    23174555.2104
  21586036.014   -16812289.913 8 -13080762.45747  21586039.034    21586046.3704
  22958562.322    -9149476.473 8  -7117498.32046  22958563.814    22958572.5234
  22212485.777    -9200291.009 8  -6935640.16446  22212489.691    22212498.2814
 00  6  7  3 34 30.0000000  0  7 22 06 25 21 29 20 30
  23164796.380    -7756147.963 8  -6020710.86346  23164800.374    23164811.0684
  24685289.450    -4369756.785 7  -3392755.30845  24685294.169    24685306.8474
  20600386.793   -23230919.813 9 -18067057.51648  20600391.565    20600398.9844
  23196120.382    -9567749.115 8  -7437852.07745  23196125.976    23196135.5174
  21596689.104   -16756319.851 8 -13037149.45947  21596689.765    21596697.4774
  22943996.892    -9226017.288 8  -7177140.39846  22943998.259    22944007.4344
  22225350.902    -9132673.848 8  -6882951.53746  22225357.301    22225364.9614
 00  6  7  3 35  0.0000000  0  7 22 06 25 21 29 20 30
  23142746.908    -7872005.376 8  -6110989.26846  23142754.696    23142763.8134
  24674353.632    -4427195.635 7  -3437512.84345  24674363.954    24674376.2954
  20599593.200   -23235105.201 9 -18070318.84148  20599595.165    20599602.3434
  23217745.131    -9454156.171 8  -7349338.21245  23217741.749    23217752.6914
  21607389.832   -16700056.700 8 -12993308.08147  21607396.380    21607404.2064
  22929512.293    -9302144.397 8  -7236460.13246  22929512.285    22929520.8254
  22238307.303    -9064598.644 8  -6829905.95146  22238312.356    22238319.1854
 00  6  7  3 35 30.0000000  0  7 22 06 25 21 29 20 30
  23120744.263    -7987692.951 8  -6201135.33346  23120740.524    23120748.5804
  24663482.792    -4484387.220 7  -3482077.69645  24663481.326    24663492.5014
  20598847.414   -23239013.407 9 -18073364.17248  20598851.684    20598858.6874
  23239385.959    -9340379.566 8  -7260681.24645  23239392.116    23239402.9004
  21618157.637   -16643500.669 8 -12949238.47047  21618158.956    21618166.2974
  22915102.287    -9377855.140 8  -7295455.44746  22915105.193    22915113.2404
  22251351.047    -8996067.735 8  -6776505.28246  22251352.911    22251360.5794
 00  6  7  3 36  0.0000000  0  7 22 06 25 21 29 20 30
  23098756.920    -8103208.097 8  -6291147.02646  23098758.247    23098767.3794
  24652640.909    -4541328.808 7  -3526447.72045  24652646.654    24652656.8924
  20598158.315   -23242645.468 9 -18076194.34148  20598160.645    20598167.3864
  23261075.333    -9226422.255 8  -7171883.49345  23261078.121    23261088.8724
  21628973.918   -16586651.597 8 -12904940.52847  21628976.909    21628984.2794
  22900774.286    -9453147.099 8  -7354124.40846  22900777.773    22900785.2174
  22264477.271    -8927083.285 8  -6722751.20546  22264480.870    22264488.3854
 00  6  7  3 36 30.0000000  0  7 22 06 25 21 29 20 30
  23076810.484    -8218548.523 8  -6381022.57346  23076808.642    23076819.0264
  24641862.806    -4598017.660 7  -3570620.83445  24641858.724    24641870.4034
  20597519.144   -23246002.067 9 -18078809.92548  20597522.120    20597528.5224
  23282790.289    -9112287.668 8  -7082947.58345  23282797.995    23282808.4444
  21639848.022   -16529509.866 8 -12860414.54447  21639850.739    21639858.1804
  22886527.474    -9528017.881 8  -7412465.19246  22886529.182    22886537.0364
  22277691.966    -8857647.772 8  -6668645.66446  22277693.997    22277701.1284
 00  6  7  3 37  0.0000000  0  7 22 06 25 21 29 20 30
  23054890.107    -8333711.497 8  -6470759.78146  23054893.482    23054903.4074
  24631114.374    -4654451.082 7  -3614594.88445  24631118.933    24631131.4494
  20596932.739   -23249083.747 9 -18081211.28148  20596935.692    20596942.0304
  23304555.822    -8997977.854 8  -6993875.16345  23304549.236    23304561.7194
  21650777.293   -16472075.310 8 -12815660.39147  21650779.468    21650787.3394
  22872361.293    -9602464.948 8  -7470475.81846  22872363.313    22872371.0104
  22290990.525    -8787763.631 8  -6614190.53646  22290992.017    22290999.1694
 00  6  7  3 37 30.0000000  0  7 22 06 25 21 29 20 30
  23032999.434    -8448693.859 8  -6560356.25145  23033012.264    23033022.5574
  24620424.288    -4710626.372 8  -3658367.79645  24620430.191    24620440.2384
  20596399.188   -23251891.333 9 -18083399.06248  20596401.722    20596407.6464
  23326337.977    -8883496.321 8  -6904668.90645  23326334.573    23326347.1334
  21661763.098   -16414347.932 8 -12770678.06747  21661764.966    21661772.3624
  22858273.346    -9676485.908 8  -7528154.44046  22858276.909    22858284.8784
  22304371.345    -8717433.284 8  -6559387.71446  22304375.550    22304382.2424
 00  6  7  3 38  0.0000000  0  7 22 06 25 21 29 20 30
  23011163.539    -8563492.999 8  -6649809.94945  23011166.649    23011175.2884
  24609786.450    -4766540.990 8  -3701937.59045  24609790.195    24609800.7064
  20595917.032   -23254424.926 9 -18085373.28448  20595919.653    20595925.2234
  23348149.258    -8768845.797 8  -6815330.99545  23348152.355    23348163.9034
  21672801.319   -16356327.909 8 -12725467.69047  21672806.165    21672813.4554
  22844269.525    -9750078.281 8  -7585499.05646  22844273.049    22844281.1784
  22317839.243    -8646658.967 8  -6504238.93546  22317843.168    22317850.8244
 00  6  7  3 38 30.0000000  0  7 22 06 25 21 29 20 30
  22989353.105    -8678106.269 8  -6739118.87045  22989357.029    22989365.7694
  24599194.629    -4822192.002 7  -3745301.98045  24599199.870    24599210.4514
  20595486.171   -23256685.676 9 -18087134.94648  20595489.238    20595495.0764
  23369990.469    -8654029.282 8  -6725863.71345  23370001.403    23370011.6424
  21683899.268   -16298015.216 8 -12680029.27147  21683902.291    21683910.1214
  22830350.033    -9823239.507 8  -7642507.77546  22830350.091    22830359.0484
  22331394.657    -8575443.223 8  -6448746.19846  22331395.612    22331403.1484
 00  6  7  3 39  0.0000000  0  7 22 06 25 21 29 20 30
  22967582.509    -8792531.270 8  -6828281.02946  22967582.460    22967591.5854
  24588652.545    -4877576.815 7  -3788458.97045  24588659.609    24588672.0184
  20595106.451   -23258673.990 9 -18088684.31548  20595110.361    20595116.7184
  23391890.352    -8539049.945 8  -6636269.61645  23391882.503    23391893.3674
  21695054.633   -16239409.862 8 -12634362.78647  21695054.698    21695062.8334
  22816507.182    -9895967.224 8  -7699178.68046  22816511.139    22816518.8014
  22345028.147    -8503788.830 8  -6392911.65846  22345030.789    22345038.8484
 00  6  7  3 39 30.0000000  0  7 22 06 25 21 29 20 30
  22945846.603    -8906765.443 8  -6917294.49145  22945844.554    22945851.7964
  24578166.074    -4932693.016 7  -3831406.64445  24578171.497    24578181.9814
  20594780.170   -23260390.685 9 -18090022.00648  20594783.695    20594790.3114
  23413784.594    -8423910.930 8  -6546551.07745  23413792.653    23413802.5984
  21706258.739   -16180512.178 9 -12588468.52547  21706262.938    21706270.2024
  22802752.887    -9968259.095 8  -7755509.97646  22802753.439    22802762.6654
  22358747.547    -8431697.758 8  -6336736.85346  22358749.759    22358757.6114
 00  6  7  3 40  0.0000000  0  7 22 06 25 21 29 20 30
  22924143.135    -9020805.612 8  -7006156.86445  22924142.953    22924152.2644
  24567732.733    -4987537.977 8  -3874142.93445  24567735.585    24567746.3694
  20594506.133   -23261836.409 9 -18091148.50248  20594508.722    20594515.3594
  23435730.708    -8308614.529 8  -6456709.88945  23435732.480    23435742.6294
  21717524.803   -16121322.229 8 -12542346.51447  21717526.531    21717533.9114
  22789074.894   -10040112.413 8  -7811499.52546  22789080.496    22789089.4094
  22372545.329    -8359172.729 8  -6280223.91046  22372550.337    22372558.7264
 00  6  7  3 40 30.0000000  0  7 22 06 25 21 29 20 30
  22902477.720    -9134648.962 8  -7094865.77146  22902479.318    22902488.5484
  24557341.730    -5042109.007 7  -3916665.71545  24557350.708    24557361.9554
  20594281.143   -23263011.870 9 -18092064.45748  20594284.972    20594291.9614
  23457700.200    -8193163.525 8  -6366748.21845  23457702.095    23457713.4204
  21728843.059   -16061840.004 8 -12495996.77047  21728845.383    21728853.1134
  22775491.027   -10111525.166 8  -7867145.75846  22775490.982    22775499.9514
  22386431.736    -8286215.891 8  -6223374.49146  22386433.782    22386441.4584
 00  6  7  3 41  0.0000000  0  7 22 06 25 21 29 20 30
  22880854.898    -9248293.014 8  -7183419.42146  22880853.161    22880862.9214
  24547017.394    -5096403.372 8  -3958972.95145  24547018.284    24547029.4994
  20594109.276   -23263917.615 9 -18092770.26148  20594112.651    20594119.9114
  23479701.774    -8077561.041 7  -6276668.59345  23479700.987    23479710.8774
  21740216.940   -16002065.611 8 -12449419.37147  21740219.656    21740227.7734
  22761983.967   -10182494.702 8  -7922446.62746  22761985.771    22761994.9344
  22400391.832    -8212830.044 8  -6166190.76546  22400398.612    22400405.8004
 00  6  7  3 41 30.0000000  0  7 22 06 25 21 29 20 30
  22859257.523    -9361735.396 8  -7271815.92546  22859265.999    22859275.2474
  24536737.804    -5150418.426 7  -4001062.51845  24536739.794    24536749.9974
  20593988.703   -23264554.455 9 -18093266.46648  20593991.574    20593998.5584
  23501727.652    -7961810.816 7  -6186473.79445  23501726.183    23501738.6274
  21751647.523   -15941999.367 8 -12402614.54247  21751650.231    21751658.2674
  22748564.686   -10253018.419 8  -7977400.11746  22748566.627    22748574.8354
  22414441.344    -8139017.552 8  -6108674.57646  22414444.950    22414452.5484
 00  6  7  3 42  0.0000000  0  7 22 06 25 21 29 20 30
  22837716.420    -9474973.334 8  -7360053.12046  22837716.914    22837725.6674
  24526507.002    -5204151.504 7  -4042932.34845  24526515.284    24526526.1064
  20593918.506   -23264923.071 9 -18093553.68048  20593921.734    20593928.5774
  23523777.348    -7845915.059 7  -6096165.69744  23523781.373    23523791.8084
  21763133.573   -15881641.234 8 -12355582.27447  21763135.870    21763143.8914
  22735232.611   -10323094.487 8  -8032004.76646  22735231.335    22735239.6184
  22428571.506    -8064781.013 8  -6050827.98446  22428571.896    22428579.6184
 00  6  7  3 42 30.0000000  0  7 22 06 25 21 29 20 30
  22816203.439    -9588003.755 8  -7448128.64946  22816207.337    22816217.7234
  24516340.502    -5257600.060 7  -4084580.47945  24516343.423    24516354.1764
  20593900.089   -23265023.940 9 -18093632.31248  20593902.397    20593909.1984
  23545854.041    -7729876.832 7  -6005746.53744  23545863.240    23545873.2744
  21774673.696   -15820991.232 8 -12308322.58747  21774676.928    21774684.9424
  22721978.268   -10392720.221 8  -8086258.53746  22721981.363    22721989.3084
  22442776.144    -7990122.743 8  -5992652.76546  22442778.843    22442785.6384
 00  6  7  3 43  0.0000000  0  7 22 06 25 21 29 20 30
  22794737.902    -9700823.934 8  -7536040.33446  22794738.397    22794748.2034
  24506224.089    -5310761.568 7  -4126004.92745  24506226.768    24506239.0244
  20593929.254   -23264857.853 9 -18093502.91648  20593933.916    20593940.5534
  23567955.461    -7613698.861 7  -5915218.39444  23567970.569    23567983.6234
  21786272.140   -15760049.648 8 -12260835.67447  21786273.932    21786281.5064
  22708818.915   -10461893.360 8  -8140159.60646  22708819.032    22708825.0284
  22457062.623    -7915045.190 8  -5934150.81446  22457065.537    22457072.2584
 00  6  7  3 43 30.0000000  0  7 22 06 25 21 29 20 30
  22773304.648    -9813431.570 8  -7623786.43446  22773310.161    22773320.2814
  24496165.769    -5363633.424 7  -4167203.72145  24496164.928    24496176.7764
  20594013.014   -23264425.516 9 -18093166.05448  20594016.247    20594022.7784
  23590101.148    -7497384.548 7  -5824584.06944  23590104.317    23590115.3504
  21797923.644   -15698816.620 8 -12213121.65847  21797926.335    21797933.7704
  22695737.982   -10530611.390 8  -8193706.05346  22695741.319    22695748.7814
  22471424.450    -7839551.093 8  -5875324.28346  22471431.593    22471439.3824
 00  6  7  3 44  0.0000000  0  7 22 06 25 21 29 20 30
  22751923.906    -9925824.135 8  -7711364.95846  22751922.270    22751933.3804
  24486152.756    -5416213.118 7  -4208174.82345  24486158.091    24486171.0344
  20594146.070   -23263727.280 9 -18092622.01648  20594149.318    20594155.6864
  23612266.062    -7380936.481 7  -5733845.49744  23612266.415    23612274.1964
  21809631.887   -15637292.388 8 -12165180.72947  21809634.255    21809642.0744
  22682746.892   -10598872.149 8  -8246896.20246  22682751.190    22682759.0134
  22485876.331    -7763642.684 8  -5816174.91346  22485876.103    22485883.1204
 00  6  7  3 44 30.0000000  0  7 22 06 25 21 29 20 30
  22730575.673   -10037998.709 8  -7798773.59646  22730577.941    22730586.6794
  24476201.105    -5468497.978 7  -4248916.21345  24476210.340    24476222.3054
  20594331.828   -23262763.897 9 -18091871.34148  20594332.647    20594339.0954
  23634451.527    -7264357.652 7  -5643005.04944  23634445.387    23634458.3074
  21821391.272   -15575477.101 8 -12117013.01147  21821397.054    21821405.2294
  22669845.978   -10666673.085 8  -8299728.03146  22669849.583    22669856.5594
  22500399.660    -7687323.116 8  -5756705.14946  22500399.654    22500407.0204
 00  6  7  3 45  0.0000000  0  7 22 06 25 21 29 20 30
  22709269.353   -10149952.431 8  -7886010.17546  22709272.515    22709282.7024
  24466309.575    -5520485.486 7  -4289425.89645  24466315.926    24466330.7564
  20594562.662   -23261536.260 9 -18090914.67848  20594566.234    20594572.8584
  23656647.250    -7147651.111 7  -5552065.09044  23656656.583    23656668.8854
  21833211.003   -15513370.840 8 -12068618.55147  21833215.413    21833223.3534
  22657035.785   -10734012.098 8  -8352199.91146  22657035.333    22657042.9314
  22515001.759    -7610594.311 8  -5696916.50246  22515000.431    22515007.7654
 00  6  7  3 45 30.0000000  0  7 22 06 25 21 29 20 30
  22688012.633   -10261682.486 8  -7973072.49546  22688011.891    22688020.3224
  24456476.181    -5572173.221 7  -4329701.95545  24456480.465    24456493.0924
  20594848.482   -23260045.262 9 -18089752.87648  20594850.120    20594856.3494
  23678889.109    -7030819.692 7  -5461027.78044  23678889.648    23678900.8644
  21845085.783   -15450973.805 8 -12019997.49647  21845089.360    21845097.1034
  22644307.980   -10800886.875 8  -8404310.04146  22644310.438    22644316.3324
  22529675.581    -7533458.924 8  -5636811.03246  22529678.097    22529686.9664
 00  6  7  3 46  0.0000000  0  7 22 06 25 21 29 20 30
  22666788.454   -10373186.596 8  -8059958.70846  22666793.251    22666801.7854
  24446702.211    -5623558.395 7  -4369742.27645  24446703.049    24446715.2144
  20595181.178   -23258291.049 9 -18088385.91148  20595183.868    20595190.2774
  23701131.654    -6913866.327 7  -5369895.53344  23701144.575    23701157.8044
  21857015.978   -15388286.201 8 -11971150.03247  21857018.246    21857025.9944
  22631672.766   -10867295.102 8  -8456056.66046  22631672.889    22631680.9044
  22544429.199    -7455919.425 8  -5576390.71546  22544434.197    22544442.9464
 00  6  7  3 46 30.0000000  0  7 22 06 25 21 29 20 30
  22645615.305   -10484462.329 8  -8146666.98546  22645617.964    22645625.7514
  24436983.934    -5674638.632 7  -4409544.96145  24436983.431    24436992.6284
  20595564.415   -23256274.434 9 -18086814.43148  20595567.679    20595574.0064
  23723407.125    -6796794.006 7  -5278670.49544  23723422.991    23723434.9254
  21869003.055   -15325308.213 8 -11922076.29647  21869002.633    21869011.1664
  22619121.002   -10933234.414 8  -8507437.87246  22619125.448    22619131.1754
  22559261.245    -7377978.622 8  -5515657.65146  22559265.501    22559273.6644
